<?xml version="1.0" encoding="UTF-8" standalone="no" ?>
<gpx xmlns="http://www.topografix.com/GPX/1/1" xmlns:xsi="http://www.w3.org/2001/XMLSchema-instance" xsi:schemaLocation="http://www.topografix.com/GPX/1/1 http://www.topografix.com/GPX/1/1/gpx.xsd" version="1.1" creator="VisuGPX - https://www.visugpx.com">
  <metadata>
    <name>Maurens 2015 05 06</name>
    <desc><![CDATA[
]]></desc>
  </metadata>
  <trk>
    <name><![CDATA[Maurens 2015 05 06]]></name>
    <trkseg>
      <trkpt lat="43.46439" lon="1.79386">
        <ele>248.1</ele>
        <time>2015-05-06T08:00:42.000Z</time>
      </trkpt>
      <trkpt lat="43.4644" lon="1.79386">
        <ele>248.3</ele>
        <time>2015-05-06T08:00:43.000Z</time>
      </trkpt>
      <trkpt lat="43.46449" lon="1.79387">
        <ele>249.6</ele>
        <time>2015-05-06T08:01:1.000Z</time>
      </trkpt>
      <trkpt lat="43.46459" lon="1.79386">
        <ele>249.9</ele>
        <time>2015-05-06T08:01:9.000Z</time>
      </trkpt>
      <trkpt lat="43.4647" lon="1.79386">
        <ele>250</ele>
        <time>2015-05-06T08:01:16.000Z</time>
      </trkpt>
      <trkpt lat="43.46479" lon="1.79384">
        <ele>250.4</ele>
        <time>2015-05-06T08:01:26.000Z</time>
      </trkpt>
      <trkpt lat="43.4649" lon="1.79385">
        <ele>251.4</ele>
        <time>2015-05-06T08:01:40.000Z</time>
      </trkpt>
      <trkpt lat="43.46499" lon="1.79383">
        <ele>252.2</ele>
        <time>2015-05-06T08:01:48.000Z</time>
      </trkpt>
      <trkpt lat="43.46508" lon="1.79385">
        <ele>253.6</ele>
        <time>2015-05-06T08:01:58.000Z</time>
      </trkpt>
      <trkpt lat="43.46517" lon="1.7939">
        <ele>255.5</ele>
        <time>2015-05-06T08:02:9.000Z</time>
      </trkpt>
      <trkpt lat="43.46526" lon="1.79396">
        <ele>256</ele>
        <time>2015-05-06T08:02:19.000Z</time>
      </trkpt>
      <trkpt lat="43.46534" lon="1.79405">
        <ele>254.3</ele>
        <time>2015-05-06T08:02:29.000Z</time>
      </trkpt>
      <trkpt lat="43.4654" lon="1.79416">
        <ele>259.1</ele>
        <time>2015-05-06T08:02:36.000Z</time>
      </trkpt>
      <trkpt lat="43.46545" lon="1.79427">
        <ele>261.4</ele>
        <time>2015-05-06T08:02:44.000Z</time>
      </trkpt>
      <trkpt lat="43.46553" lon="1.79437">
        <ele>263</ele>
        <time>2015-05-06T08:02:54.000Z</time>
      </trkpt>
      <trkpt lat="43.46558" lon="1.79447">
        <ele>263.7</ele>
        <time>2015-05-06T08:03:0.000Z</time>
      </trkpt>
      <trkpt lat="43.46567" lon="1.79453">
        <ele>264.4</ele>
        <time>2015-05-06T08:03:7.000Z</time>
      </trkpt>
      <trkpt lat="43.46572" lon="1.79463">
        <ele>265.8</ele>
        <time>2015-05-06T08:03:20.000Z</time>
      </trkpt>
      <trkpt lat="43.46576" lon="1.79475">
        <ele>266.9</ele>
        <time>2015-05-06T08:03:35.000Z</time>
      </trkpt>
      <trkpt lat="43.46573" lon="1.79488">
        <ele>267.6</ele>
        <time>2015-05-06T08:03:46.000Z</time>
      </trkpt>
      <trkpt lat="43.46568" lon="1.79499">
        <ele>268.2</ele>
        <time>2015-05-06T08:03:54.000Z</time>
      </trkpt>
      <trkpt lat="43.46564" lon="1.79511">
        <ele>268.6</ele>
        <time>2015-05-06T08:04:3.000Z</time>
      </trkpt>
      <trkpt lat="43.46559" lon="1.79522">
        <ele>268.8</ele>
        <time>2015-05-06T08:04:12.000Z</time>
      </trkpt>
      <trkpt lat="43.46556" lon="1.79534">
        <ele>268.9</ele>
        <time>2015-05-06T08:04:20.000Z</time>
      </trkpt>
      <trkpt lat="43.46554" lon="1.79548">
        <ele>268.9</ele>
        <time>2015-05-06T08:04:27.000Z</time>
      </trkpt>
      <trkpt lat="43.46559" lon="1.7956">
        <ele>268.7</ele>
        <time>2015-05-06T08:04:35.000Z</time>
      </trkpt>
      <trkpt lat="43.46566" lon="1.79569">
        <ele>268.1</ele>
        <time>2015-05-06T08:04:43.000Z</time>
      </trkpt>
      <trkpt lat="43.46571" lon="1.7958">
        <ele>267.2</ele>
        <time>2015-05-06T08:04:51.000Z</time>
      </trkpt>
      <trkpt lat="43.46578" lon="1.79589">
        <ele>266.1</ele>
        <time>2015-05-06T08:05:0.000Z</time>
      </trkpt>
      <trkpt lat="43.46585" lon="1.79598">
        <ele>265.1</ele>
        <time>2015-05-06T08:05:8.000Z</time>
      </trkpt>
      <trkpt lat="43.46591" lon="1.79609">
        <ele>264.1</ele>
        <time>2015-05-06T08:05:16.000Z</time>
      </trkpt>
      <trkpt lat="43.46598" lon="1.79619">
        <ele>263.2</ele>
        <time>2015-05-06T08:05:24.000Z</time>
      </trkpt>
      <trkpt lat="43.46605" lon="1.79628">
        <ele>262.6</ele>
        <time>2015-05-06T08:05:31.000Z</time>
      </trkpt>
      <trkpt lat="43.46611" lon="1.79638">
        <ele>261.6</ele>
        <time>2015-05-06T08:05:39.000Z</time>
      </trkpt>
      <trkpt lat="43.46617" lon="1.79649">
        <ele>260.9</ele>
        <time>2015-05-06T08:05:47.000Z</time>
      </trkpt>
      <trkpt lat="43.46623" lon="1.79658">
        <ele>260.2</ele>
        <time>2015-05-06T08:05:55.000Z</time>
      </trkpt>
      <trkpt lat="43.46629" lon="1.79669">
        <ele>259.5</ele>
        <time>2015-05-06T08:06:3.000Z</time>
      </trkpt>
      <trkpt lat="43.46634" lon="1.79681">
        <ele>258.9</ele>
        <time>2015-05-06T08:06:11.000Z</time>
      </trkpt>
      <trkpt lat="43.46639" lon="1.79692">
        <ele>258.4</ele>
        <time>2015-05-06T08:06:18.000Z</time>
      </trkpt>
      <trkpt lat="43.46643" lon="1.79703">
        <ele>257.9</ele>
        <time>2015-05-06T08:06:25.000Z</time>
      </trkpt>
      <trkpt lat="43.46648" lon="1.79715">
        <ele>257.6</ele>
        <time>2015-05-06T08:06:32.000Z</time>
      </trkpt>
      <trkpt lat="43.46653" lon="1.79728">
        <ele>257.3</ele>
        <time>2015-05-06T08:06:39.000Z</time>
      </trkpt>
      <trkpt lat="43.46658" lon="1.7974">
        <ele>256.7</ele>
        <time>2015-05-06T08:06:47.000Z</time>
      </trkpt>
      <trkpt lat="43.46662" lon="1.79752">
        <ele>256.4</ele>
        <time>2015-05-06T08:06:55.000Z</time>
      </trkpt>
      <trkpt lat="43.46667" lon="1.79763">
        <ele>256.2</ele>
        <time>2015-05-06T08:07:2.000Z</time>
      </trkpt>
      <trkpt lat="43.4667" lon="1.79776">
        <ele>256.1</ele>
        <time>2015-05-06T08:07:10.000Z</time>
      </trkpt>
      <trkpt lat="43.46674" lon="1.79789">
        <ele>255.9</ele>
        <time>2015-05-06T08:07:17.000Z</time>
      </trkpt>
      <trkpt lat="43.46678" lon="1.798">
        <ele>255.7</ele>
        <time>2015-05-06T08:07:24.000Z</time>
      </trkpt>
      <trkpt lat="43.46684" lon="1.79812">
        <ele>255.5</ele>
        <time>2015-05-06T08:07:31.000Z</time>
      </trkpt>
      <trkpt lat="43.46689" lon="1.79823">
        <ele>255.4</ele>
        <time>2015-05-06T08:07:37.000Z</time>
      </trkpt>
      <trkpt lat="43.46694" lon="1.79835">
        <ele>255.2</ele>
        <time>2015-05-06T08:07:44.000Z</time>
      </trkpt>
      <trkpt lat="43.467" lon="1.79847">
        <ele>254.7</ele>
        <time>2015-05-06T08:07:51.000Z</time>
      </trkpt>
      <trkpt lat="43.46704" lon="1.79858">
        <ele>254.4</ele>
        <time>2015-05-06T08:07:57.000Z</time>
      </trkpt>
      <trkpt lat="43.46709" lon="1.79868">
        <ele>253.8</ele>
        <time>2015-05-06T08:08:4.000Z</time>
      </trkpt>
      <trkpt lat="43.46716" lon="1.79877">
        <ele>253.1</ele>
        <time>2015-05-06T08:08:11.000Z</time>
      </trkpt>
      <trkpt lat="43.46723" lon="1.79887">
        <ele>252.5</ele>
        <time>2015-05-06T08:08:18.000Z</time>
      </trkpt>
      <trkpt lat="43.4673" lon="1.79896">
        <ele>252.1</ele>
        <time>2015-05-06T08:08:25.000Z</time>
      </trkpt>
      <trkpt lat="43.46738" lon="1.79903">
        <ele>251.6</ele>
        <time>2015-05-06T08:08:32.000Z</time>
      </trkpt>
      <trkpt lat="43.46747" lon="1.7991">
        <ele>251.2</ele>
        <time>2015-05-06T08:08:39.000Z</time>
      </trkpt>
      <trkpt lat="43.46755" lon="1.79915">
        <ele>250.9</ele>
        <time>2015-05-06T08:08:46.000Z</time>
      </trkpt>
      <trkpt lat="43.46764" lon="1.7992">
        <ele>250.5</ele>
        <time>2015-05-06T08:08:53.000Z</time>
      </trkpt>
      <trkpt lat="43.46773" lon="1.79926">
        <ele>250.2</ele>
        <time>2015-05-06T08:09:1.000Z</time>
      </trkpt>
      <trkpt lat="43.46782" lon="1.79931">
        <ele>249.8</ele>
        <time>2015-05-06T08:09:9.000Z</time>
      </trkpt>
      <trkpt lat="43.46792" lon="1.79935">
        <ele>248.9</ele>
        <time>2015-05-06T08:09:37.000Z</time>
      </trkpt>
      <trkpt lat="43.468" lon="1.79943">
        <ele>248.8</ele>
        <time>2015-05-06T08:09:43.000Z</time>
      </trkpt>
      <trkpt lat="43.46808" lon="1.79952">
        <ele>248.6</ele>
        <time>2015-05-06T08:09:50.000Z</time>
      </trkpt>
      <trkpt lat="43.46815" lon="1.79962">
        <ele>248.3</ele>
        <time>2015-05-06T08:09:57.000Z</time>
      </trkpt>
      <trkpt lat="43.46822" lon="1.79973">
        <ele>248</ele>
        <time>2015-05-06T08:10:4.000Z</time>
      </trkpt>
      <trkpt lat="43.46828" lon="1.79982">
        <ele>247.5</ele>
        <time>2015-05-06T08:10:11.000Z</time>
      </trkpt>
      <trkpt lat="43.46834" lon="1.79992">
        <ele>247.1</ele>
        <time>2015-05-06T08:10:18.000Z</time>
      </trkpt>
      <trkpt lat="43.46841" lon="1.80001">
        <ele>246.8</ele>
        <time>2015-05-06T08:10:25.000Z</time>
      </trkpt>
      <trkpt lat="43.46849" lon="1.80009">
        <ele>246.6</ele>
        <time>2015-05-06T08:10:32.000Z</time>
      </trkpt>
      <trkpt lat="43.46855" lon="1.80019">
        <ele>246.2</ele>
        <time>2015-05-06T08:10:39.000Z</time>
      </trkpt>
      <trkpt lat="43.46861" lon="1.80029">
        <ele>245.9</ele>
        <time>2015-05-06T08:10:46.000Z</time>
      </trkpt>
      <trkpt lat="43.46868" lon="1.80037">
        <ele>245.7</ele>
        <time>2015-05-06T08:10:53.000Z</time>
      </trkpt>
      <trkpt lat="43.46874" lon="1.80047">
        <ele>245.5</ele>
        <time>2015-05-06T08:11:4.000Z</time>
      </trkpt>
      <trkpt lat="43.46882" lon="1.80056">
        <ele>245.2</ele>
        <time>2015-05-06T08:11:16.000Z</time>
      </trkpt>
      <trkpt lat="43.46889" lon="1.80065">
        <ele>244.9</ele>
        <time>2015-05-06T08:11:25.000Z</time>
      </trkpt>
      <trkpt lat="43.46896" lon="1.80075">
        <ele>244.8</ele>
        <time>2015-05-06T08:11:33.000Z</time>
      </trkpt>
      <trkpt lat="43.46904" lon="1.80083">
        <ele>244.7</ele>
        <time>2015-05-06T08:11:41.000Z</time>
      </trkpt>
      <trkpt lat="43.46911" lon="1.80092">
        <ele>244.5</ele>
        <time>2015-05-06T08:11:48.000Z</time>
      </trkpt>
      <trkpt lat="43.46917" lon="1.80102">
        <ele>244.4</ele>
        <time>2015-05-06T08:11:56.000Z</time>
      </trkpt>
      <trkpt lat="43.46924" lon="1.80113">
        <ele>244.2</ele>
        <time>2015-05-06T08:12:4.000Z</time>
      </trkpt>
      <trkpt lat="43.4693" lon="1.80123">
        <ele>244</ele>
        <time>2015-05-06T08:12:11.000Z</time>
      </trkpt>
      <trkpt lat="43.46936" lon="1.80133">
        <ele>243.8</ele>
        <time>2015-05-06T08:12:18.000Z</time>
      </trkpt>
      <trkpt lat="43.46943" lon="1.80142">
        <ele>243.6</ele>
        <time>2015-05-06T08:12:25.000Z</time>
      </trkpt>
      <trkpt lat="43.46951" lon="1.8015">
        <ele>243.4</ele>
        <time>2015-05-06T08:12:33.000Z</time>
      </trkpt>
      <trkpt lat="43.46959" lon="1.80159">
        <ele>243.1</ele>
        <time>2015-05-06T08:12:41.000Z</time>
      </trkpt>
      <trkpt lat="43.46967" lon="1.80166">
        <ele>242.9</ele>
        <time>2015-05-06T08:12:48.000Z</time>
      </trkpt>
      <trkpt lat="43.46976" lon="1.80173">
        <ele>242.6</ele>
        <time>2015-05-06T08:12:56.000Z</time>
      </trkpt>
      <trkpt lat="43.46983" lon="1.8018">
        <ele>242.5</ele>
        <time>2015-05-06T08:13:3.000Z</time>
      </trkpt>
      <trkpt lat="43.46992" lon="1.80187">
        <ele>242.4</ele>
        <time>2015-05-06T08:13:11.000Z</time>
      </trkpt>
      <trkpt lat="43.47" lon="1.80193">
        <ele>242.4</ele>
        <time>2015-05-06T08:13:18.000Z</time>
      </trkpt>
      <trkpt lat="43.47008" lon="1.80199">
        <ele>242.3</ele>
        <time>2015-05-06T08:13:25.000Z</time>
      </trkpt>
      <trkpt lat="43.47017" lon="1.80206">
        <ele>242.1</ele>
        <time>2015-05-06T08:13:41.000Z</time>
      </trkpt>
      <trkpt lat="43.47025" lon="1.80214">
        <ele>242</ele>
        <time>2015-05-06T08:13:48.000Z</time>
      </trkpt>
      <trkpt lat="43.47032" lon="1.80222">
        <ele>241.9</ele>
        <time>2015-05-06T08:13:55.000Z</time>
      </trkpt>
      <trkpt lat="43.47039" lon="1.8023">
        <ele>241.7</ele>
        <time>2015-05-06T08:14:2.000Z</time>
      </trkpt>
      <trkpt lat="43.47047" lon="1.80239">
        <ele>241.3</ele>
        <time>2015-05-06T08:14:10.000Z</time>
      </trkpt>
      <trkpt lat="43.47054" lon="1.80248">
        <ele>241</ele>
        <time>2015-05-06T08:14:17.000Z</time>
      </trkpt>
      <trkpt lat="43.47061" lon="1.80257">
        <ele>240.6</ele>
        <time>2015-05-06T08:14:24.000Z</time>
      </trkpt>
      <trkpt lat="43.47068" lon="1.80266">
        <ele>240.3</ele>
        <time>2015-05-06T08:14:31.000Z</time>
      </trkpt>
      <trkpt lat="43.47075" lon="1.80275">
        <ele>239.8</ele>
        <time>2015-05-06T08:14:38.000Z</time>
      </trkpt>
      <trkpt lat="43.47082" lon="1.80285">
        <ele>239.3</ele>
        <time>2015-05-06T08:14:45.000Z</time>
      </trkpt>
      <trkpt lat="43.47089" lon="1.80294">
        <ele>239</ele>
        <time>2015-05-06T08:14:52.000Z</time>
      </trkpt>
      <trkpt lat="43.47096" lon="1.80302">
        <ele>238.5</ele>
        <time>2015-05-06T08:14:59.000Z</time>
      </trkpt>
      <trkpt lat="43.47103" lon="1.80312">
        <ele>238.2</ele>
        <time>2015-05-06T08:15:6.000Z</time>
      </trkpt>
      <trkpt lat="43.4711" lon="1.80321">
        <ele>238</ele>
        <time>2015-05-06T08:15:13.000Z</time>
      </trkpt>
      <trkpt lat="43.47116" lon="1.8033">
        <ele>237.9</ele>
        <time>2015-05-06T08:15:20.000Z</time>
      </trkpt>
      <trkpt lat="43.47124" lon="1.8034">
        <ele>237.8</ele>
        <time>2015-05-06T08:15:28.000Z</time>
      </trkpt>
      <trkpt lat="43.4713" lon="1.80349">
        <ele>237.7</ele>
        <time>2015-05-06T08:15:36.000Z</time>
      </trkpt>
      <trkpt lat="43.47137" lon="1.8036">
        <ele>237.7</ele>
        <time>2015-05-06T08:15:44.000Z</time>
      </trkpt>
      <trkpt lat="43.47142" lon="1.8037">
        <ele>237.6</ele>
        <time>2015-05-06T08:15:51.000Z</time>
      </trkpt>
      <trkpt lat="43.47148" lon="1.8038">
        <ele>237.6</ele>
        <time>2015-05-06T08:15:58.000Z</time>
      </trkpt>
      <trkpt lat="43.47154" lon="1.8039">
        <ele>237.6</ele>
        <time>2015-05-06T08:16:5.000Z</time>
      </trkpt>
      <trkpt lat="43.47161" lon="1.80399">
        <ele>237.9</ele>
        <time>2015-05-06T08:16:13.000Z</time>
      </trkpt>
      <trkpt lat="43.4717" lon="1.80405">
        <ele>238.3</ele>
        <time>2015-05-06T08:16:21.000Z</time>
      </trkpt>
      <trkpt lat="43.47178" lon="1.80413">
        <ele>238.9</ele>
        <time>2015-05-06T08:16:29.000Z</time>
      </trkpt>
      <trkpt lat="43.47186" lon="1.80421">
        <ele>239.7</ele>
        <time>2015-05-06T08:16:38.000Z</time>
      </trkpt>
      <trkpt lat="43.47194" lon="1.80428">
        <ele>240.6</ele>
        <time>2015-05-06T08:16:47.000Z</time>
      </trkpt>
      <trkpt lat="43.47203" lon="1.80434">
        <ele>241.8</ele>
        <time>2015-05-06T08:16:56.000Z</time>
      </trkpt>
      <trkpt lat="43.47212" lon="1.80438">
        <ele>242.5</ele>
        <time>2015-05-06T08:17:5.000Z</time>
      </trkpt>
      <trkpt lat="43.4722" lon="1.80444">
        <ele>243.4</ele>
        <time>2015-05-06T08:17:15.000Z</time>
      </trkpt>
      <trkpt lat="43.47229" lon="1.80448">
        <ele>244.5</ele>
        <time>2015-05-06T08:17:27.000Z</time>
      </trkpt>
      <trkpt lat="43.47237" lon="1.80454">
        <ele>245.4</ele>
        <time>2015-05-06T08:17:35.000Z</time>
      </trkpt>
      <trkpt lat="43.47246" lon="1.8046">
        <ele>246.3</ele>
        <time>2015-05-06T08:17:44.000Z</time>
      </trkpt>
      <trkpt lat="43.47253" lon="1.80468">
        <ele>247.2</ele>
        <time>2015-05-06T08:17:53.000Z</time>
      </trkpt>
      <trkpt lat="43.4726" lon="1.80478">
        <ele>248.2</ele>
        <time>2015-05-06T08:18:2.000Z</time>
      </trkpt>
      <trkpt lat="43.47265" lon="1.80489">
        <ele>248.9</ele>
        <time>2015-05-06T08:18:11.000Z</time>
      </trkpt>
      <trkpt lat="43.47271" lon="1.805">
        <ele>249.8</ele>
        <time>2015-05-06T08:18:20.000Z</time>
      </trkpt>
      <trkpt lat="43.47276" lon="1.8051">
        <ele>250.4</ele>
        <time>2015-05-06T08:18:28.000Z</time>
      </trkpt>
      <trkpt lat="43.47282" lon="1.8052">
        <ele>250.8</ele>
        <time>2015-05-06T08:18:36.000Z</time>
      </trkpt>
      <trkpt lat="43.47289" lon="1.8053">
        <ele>251.1</ele>
        <time>2015-05-06T08:18:44.000Z</time>
      </trkpt>
      <trkpt lat="43.47296" lon="1.80538">
        <ele>251.4</ele>
        <time>2015-05-06T08:18:52.000Z</time>
      </trkpt>
      <trkpt lat="43.47303" lon="1.80546">
        <ele>251.5</ele>
        <time>2015-05-06T08:19:0.000Z</time>
      </trkpt>
      <trkpt lat="43.47311" lon="1.80553">
        <ele>251.2</ele>
        <time>2015-05-06T08:19:7.000Z</time>
      </trkpt>
      <trkpt lat="43.47319" lon="1.8056">
        <ele>250.8</ele>
        <time>2015-05-06T08:19:14.000Z</time>
      </trkpt>
      <trkpt lat="43.47328" lon="1.80567">
        <ele>250.1</ele>
        <time>2015-05-06T08:19:22.000Z</time>
      </trkpt>
      <trkpt lat="43.47337" lon="1.80575">
        <ele>249.6</ele>
        <time>2015-05-06T08:19:30.000Z</time>
      </trkpt>
      <trkpt lat="43.47345" lon="1.80582">
        <ele>249</ele>
        <time>2015-05-06T08:19:38.000Z</time>
      </trkpt>
      <trkpt lat="43.47352" lon="1.80589">
        <ele>248.5</ele>
        <time>2015-05-06T08:19:45.000Z</time>
      </trkpt>
      <trkpt lat="43.47361" lon="1.80596">
        <ele>247.7</ele>
        <time>2015-05-06T08:19:53.000Z</time>
      </trkpt>
      <trkpt lat="43.4737" lon="1.80604">
        <ele>246.8</ele>
        <time>2015-05-06T08:20:1.000Z</time>
      </trkpt>
      <trkpt lat="43.47378" lon="1.80611">
        <ele>246.1</ele>
        <time>2015-05-06T08:20:9.000Z</time>
      </trkpt>
      <trkpt lat="43.47387" lon="1.80618">
        <ele>245.5</ele>
        <time>2015-05-06T08:20:17.000Z</time>
      </trkpt>
      <trkpt lat="43.47395" lon="1.80625">
        <ele>245.1</ele>
        <time>2015-05-06T08:20:25.000Z</time>
      </trkpt>
      <trkpt lat="43.47403" lon="1.80632">
        <ele>244.9</ele>
        <time>2015-05-06T08:20:32.000Z</time>
      </trkpt>
      <trkpt lat="43.47412" lon="1.80639">
        <ele>244.8</ele>
        <time>2015-05-06T08:20:40.000Z</time>
      </trkpt>
      <trkpt lat="43.4742" lon="1.80645">
        <ele>244.6</ele>
        <time>2015-05-06T08:20:48.000Z</time>
      </trkpt>
      <trkpt lat="43.47429" lon="1.80651">
        <ele>244.6</ele>
        <time>2015-05-06T08:20:55.000Z</time>
      </trkpt>
      <trkpt lat="43.47438" lon="1.80656">
        <ele>244.5</ele>
        <time>2015-05-06T08:21:3.000Z</time>
      </trkpt>
      <trkpt lat="43.47447" lon="1.80661">
        <ele>244.5</ele>
        <time>2015-05-06T08:21:10.000Z</time>
      </trkpt>
      <trkpt lat="43.47457" lon="1.80662">
        <ele>244.5</ele>
        <time>2015-05-06T08:21:17.000Z</time>
      </trkpt>
      <trkpt lat="43.47466" lon="1.80665">
        <ele>244.5</ele>
        <time>2015-05-06T08:21:27.000Z</time>
      </trkpt>
      <trkpt lat="43.47475" lon="1.80668">
        <ele>244.5</ele>
        <time>2015-05-06T08:21:34.000Z</time>
      </trkpt>
      <trkpt lat="43.47485" lon="1.8067">
        <ele>244.3</ele>
        <time>2015-05-06T08:21:42.000Z</time>
      </trkpt>
      <trkpt lat="43.47496" lon="1.80673">
        <ele>243.7</ele>
        <time>2015-05-06T08:21:51.000Z</time>
      </trkpt>
      <trkpt lat="43.47506" lon="1.80675">
        <ele>243.1</ele>
        <time>2015-05-06T08:21:58.000Z</time>
      </trkpt>
      <trkpt lat="43.47516" lon="1.80677">
        <ele>242.4</ele>
        <time>2015-05-06T08:22:5.000Z</time>
      </trkpt>
      <trkpt lat="43.47526" lon="1.80678">
        <ele>241.5</ele>
        <time>2015-05-06T08:22:13.000Z</time>
      </trkpt>
      <trkpt lat="43.47535" lon="1.80679">
        <ele>240.4</ele>
        <time>2015-05-06T08:22:22.000Z</time>
      </trkpt>
      <trkpt lat="43.47545" lon="1.80681">
        <ele>239.5</ele>
        <time>2015-05-06T08:22:30.000Z</time>
      </trkpt>
      <trkpt lat="43.47554" lon="1.80683">
        <ele>238.7</ele>
        <time>2015-05-06T08:22:38.000Z</time>
      </trkpt>
      <trkpt lat="43.47565" lon="1.80685">
        <ele>237.7</ele>
        <time>2015-05-06T08:22:46.000Z</time>
      </trkpt>
      <trkpt lat="43.47574" lon="1.80688">
        <ele>236.7</ele>
        <time>2015-05-06T08:22:53.000Z</time>
      </trkpt>
      <trkpt lat="43.47583" lon="1.8069">
        <ele>235.6</ele>
        <time>2015-05-06T08:23:0.000Z</time>
      </trkpt>
      <trkpt lat="43.47593" lon="1.80691">
        <ele>234.6</ele>
        <time>2015-05-06T08:23:8.000Z</time>
      </trkpt>
      <trkpt lat="43.47603" lon="1.80694">
        <ele>233.5</ele>
        <time>2015-05-06T08:23:16.000Z</time>
      </trkpt>
      <trkpt lat="43.47613" lon="1.80696">
        <ele>232.5</ele>
        <time>2015-05-06T08:23:23.000Z</time>
      </trkpt>
      <trkpt lat="43.47621" lon="1.80699">
        <ele>231.3</ele>
        <time>2015-05-06T08:23:30.000Z</time>
      </trkpt>
      <trkpt lat="43.47631" lon="1.80705">
        <ele>229.9</ele>
        <time>2015-05-06T08:23:38.000Z</time>
      </trkpt>
      <trkpt lat="43.47639" lon="1.80711">
        <ele>228.9</ele>
        <time>2015-05-06T08:23:45.000Z</time>
      </trkpt>
      <trkpt lat="43.47647" lon="1.80718">
        <ele>228</ele>
        <time>2015-05-06T08:23:52.000Z</time>
      </trkpt>
      <trkpt lat="43.47655" lon="1.80724">
        <ele>226.9</ele>
        <time>2015-05-06T08:24:0.000Z</time>
      </trkpt>
      <trkpt lat="43.47664" lon="1.80731">
        <ele>225.9</ele>
        <time>2015-05-06T08:24:8.000Z</time>
      </trkpt>
      <trkpt lat="43.47672" lon="1.80737">
        <ele>225.3</ele>
        <time>2015-05-06T08:24:15.000Z</time>
      </trkpt>
      <trkpt lat="43.4768" lon="1.80743">
        <ele>224.5</ele>
        <time>2015-05-06T08:24:22.000Z</time>
      </trkpt>
      <trkpt lat="43.47689" lon="1.8075">
        <ele>223.8</ele>
        <time>2015-05-06T08:24:30.000Z</time>
      </trkpt>
      <trkpt lat="43.47698" lon="1.80754">
        <ele>223.2</ele>
        <time>2015-05-06T08:24:37.000Z</time>
      </trkpt>
      <trkpt lat="43.47706" lon="1.8076">
        <ele>222.7</ele>
        <time>2015-05-06T08:24:44.000Z</time>
      </trkpt>
      <trkpt lat="43.47713" lon="1.80769">
        <ele>222.1</ele>
        <time>2015-05-06T08:24:53.000Z</time>
      </trkpt>
      <trkpt lat="43.47722" lon="1.80774">
        <ele>221.7</ele>
        <time>2015-05-06T08:25:2.000Z</time>
      </trkpt>
      <trkpt lat="43.47732" lon="1.80777">
        <ele>221.3</ele>
        <time>2015-05-06T08:25:11.000Z</time>
      </trkpt>
      <trkpt lat="43.47741" lon="1.80779">
        <ele>220.9</ele>
        <time>2015-05-06T08:25:19.000Z</time>
      </trkpt>
      <trkpt lat="43.4775" lon="1.80781">
        <ele>220.5</ele>
        <time>2015-05-06T08:25:26.000Z</time>
      </trkpt>
      <trkpt lat="43.47759" lon="1.80783">
        <ele>220.3</ele>
        <time>2015-05-06T08:25:34.000Z</time>
      </trkpt>
      <trkpt lat="43.47768" lon="1.80787">
        <ele>220.2</ele>
        <time>2015-05-06T08:25:42.000Z</time>
      </trkpt>
      <trkpt lat="43.47777" lon="1.80793">
        <ele>220.1</ele>
        <time>2015-05-06T08:25:50.000Z</time>
      </trkpt>
      <trkpt lat="43.47778" lon="1.80807">
        <ele>220</ele>
        <time>2015-05-06T08:26:0.000Z</time>
      </trkpt>
      <trkpt lat="43.47774" lon="1.80819">
        <ele>220</ele>
        <time>2015-05-06T08:26:8.000Z</time>
      </trkpt>
      <trkpt lat="43.47771" lon="1.80832">
        <ele>220</ele>
        <time>2015-05-06T08:26:16.000Z</time>
      </trkpt>
      <trkpt lat="43.47769" lon="1.80844">
        <ele>219.9</ele>
        <time>2015-05-06T08:26:24.000Z</time>
      </trkpt>
      <trkpt lat="43.47767" lon="1.80857">
        <ele>219.8</ele>
        <time>2015-05-06T08:26:32.000Z</time>
      </trkpt>
      <trkpt lat="43.47766" lon="1.80871">
        <ele>219.8</ele>
        <time>2015-05-06T08:26:40.000Z</time>
      </trkpt>
      <trkpt lat="43.47764" lon="1.80884">
        <ele>219.7</ele>
        <time>2015-05-06T08:26:48.000Z</time>
      </trkpt>
      <trkpt lat="43.47762" lon="1.80897">
        <ele>219.7</ele>
        <time>2015-05-06T08:26:56.000Z</time>
      </trkpt>
      <trkpt lat="43.4776" lon="1.8091">
        <ele>219.7</ele>
        <time>2015-05-06T08:27:4.000Z</time>
      </trkpt>
      <trkpt lat="43.47756" lon="1.80923">
        <ele>219.7</ele>
        <time>2015-05-06T08:27:12.000Z</time>
      </trkpt>
      <trkpt lat="43.47753" lon="1.80935">
        <ele>219.7</ele>
        <time>2015-05-06T08:27:19.000Z</time>
      </trkpt>
      <trkpt lat="43.4775" lon="1.80947">
        <ele>219.7</ele>
        <time>2015-05-06T08:27:27.000Z</time>
      </trkpt>
      <trkpt lat="43.47747" lon="1.80959">
        <ele>219.8</ele>
        <time>2015-05-06T08:27:35.000Z</time>
      </trkpt>
      <trkpt lat="43.47743" lon="1.80971">
        <ele>220.1</ele>
        <time>2015-05-06T08:27:43.000Z</time>
      </trkpt>
      <trkpt lat="43.47739" lon="1.80983">
        <ele>220.2</ele>
        <time>2015-05-06T08:27:51.000Z</time>
      </trkpt>
      <trkpt lat="43.47735" lon="1.80996">
        <ele>220.3</ele>
        <time>2015-05-06T08:27:59.000Z</time>
      </trkpt>
      <trkpt lat="43.47731" lon="1.81008">
        <ele>220.4</ele>
        <time>2015-05-06T08:28:7.000Z</time>
      </trkpt>
      <trkpt lat="43.47727" lon="1.81019">
        <ele>220.4</ele>
        <time>2015-05-06T08:28:15.000Z</time>
      </trkpt>
      <trkpt lat="43.47723" lon="1.81031">
        <ele>220.4</ele>
        <time>2015-05-06T08:28:23.000Z</time>
      </trkpt>
      <trkpt lat="43.47718" lon="1.81044">
        <ele>220.4</ele>
        <time>2015-05-06T08:28:31.000Z</time>
      </trkpt>
      <trkpt lat="43.47715" lon="1.81057">
        <ele>220.4</ele>
        <time>2015-05-06T08:28:39.000Z</time>
      </trkpt>
      <trkpt lat="43.47711" lon="1.81069">
        <ele>220.4</ele>
        <time>2015-05-06T08:28:47.000Z</time>
      </trkpt>
      <trkpt lat="43.47708" lon="1.81081">
        <ele>220.7</ele>
        <time>2015-05-06T08:28:55.000Z</time>
      </trkpt>
      <trkpt lat="43.47704" lon="1.81094">
        <ele>220.9</ele>
        <time>2015-05-06T08:29:3.000Z</time>
      </trkpt>
      <trkpt lat="43.47702" lon="1.81107">
        <ele>221</ele>
        <time>2015-05-06T08:29:11.000Z</time>
      </trkpt>
      <trkpt lat="43.47699" lon="1.8112">
        <ele>221.1</ele>
        <time>2015-05-06T08:29:19.000Z</time>
      </trkpt>
      <trkpt lat="43.47697" lon="1.81132">
        <ele>221.1</ele>
        <time>2015-05-06T08:29:27.000Z</time>
      </trkpt>
      <trkpt lat="43.47696" lon="1.81146">
        <ele>221.3</ele>
        <time>2015-05-06T08:29:36.000Z</time>
      </trkpt>
      <trkpt lat="43.47695" lon="1.81158">
        <ele>221.3</ele>
        <time>2015-05-06T08:29:44.000Z</time>
      </trkpt>
      <trkpt lat="43.47695" lon="1.81171">
        <ele>221.3</ele>
        <time>2015-05-06T08:29:52.000Z</time>
      </trkpt>
      <trkpt lat="43.47695" lon="1.81184">
        <ele>221.3</ele>
        <time>2015-05-06T08:30:0.000Z</time>
      </trkpt>
      <trkpt lat="43.47695" lon="1.81197">
        <ele>221.3</ele>
        <time>2015-05-06T08:30:8.000Z</time>
      </trkpt>
      <trkpt lat="43.47694" lon="1.8121">
        <ele>221.5</ele>
        <time>2015-05-06T08:30:16.000Z</time>
      </trkpt>
      <trkpt lat="43.47693" lon="1.81224">
        <ele>221.7</ele>
        <time>2015-05-06T08:30:25.000Z</time>
      </trkpt>
      <trkpt lat="43.47693" lon="1.81237">
        <ele>222</ele>
        <time>2015-05-06T08:30:33.000Z</time>
      </trkpt>
      <trkpt lat="43.47694" lon="1.8125">
        <ele>222.2</ele>
        <time>2015-05-06T08:30:41.000Z</time>
      </trkpt>
      <trkpt lat="43.47694" lon="1.81263">
        <ele>222.4</ele>
        <time>2015-05-06T08:30:50.000Z</time>
      </trkpt>
      <trkpt lat="43.47691" lon="1.81276">
        <ele>222.7</ele>
        <time>2015-05-06T08:30:58.000Z</time>
      </trkpt>
      <trkpt lat="43.47688" lon="1.81289">
        <ele>222.8</ele>
        <time>2015-05-06T08:31:7.000Z</time>
      </trkpt>
      <trkpt lat="43.47684" lon="1.813">
        <ele>222.9</ele>
        <time>2015-05-06T08:31:14.000Z</time>
      </trkpt>
      <trkpt lat="43.4768" lon="1.81313">
        <ele>222.9</ele>
        <time>2015-05-06T08:31:22.000Z</time>
      </trkpt>
      <trkpt lat="43.47677" lon="1.81325">
        <ele>222.8</ele>
        <time>2015-05-06T08:31:30.000Z</time>
      </trkpt>
      <trkpt lat="43.47673" lon="1.81337">
        <ele>222.7</ele>
        <time>2015-05-06T08:31:38.000Z</time>
      </trkpt>
      <trkpt lat="43.4767" lon="1.81349">
        <ele>222.7</ele>
        <time>2015-05-06T08:31:46.000Z</time>
      </trkpt>
      <trkpt lat="43.47665" lon="1.81361">
        <ele>222.8</ele>
        <time>2015-05-06T08:31:55.000Z</time>
      </trkpt>
      <trkpt lat="43.47662" lon="1.81373">
        <ele>222.7</ele>
        <time>2015-05-06T08:32:3.000Z</time>
      </trkpt>
      <trkpt lat="43.47658" lon="1.81385">
        <ele>222.6</ele>
        <time>2015-05-06T08:32:12.000Z</time>
      </trkpt>
      <trkpt lat="43.47653" lon="1.81395">
        <ele>222.8</ele>
        <time>2015-05-06T08:32:21.000Z</time>
      </trkpt>
      <trkpt lat="43.47647" lon="1.81406">
        <ele>222.9</ele>
        <time>2015-05-06T08:32:31.000Z</time>
      </trkpt>
      <trkpt lat="43.47642" lon="1.81416">
        <ele>222.9</ele>
        <time>2015-05-06T08:32:39.000Z</time>
      </trkpt>
      <trkpt lat="43.47636" lon="1.81427">
        <ele>223</ele>
        <time>2015-05-06T08:32:48.000Z</time>
      </trkpt>
      <trkpt lat="43.4763" lon="1.81438">
        <ele>223.3</ele>
        <time>2015-05-06T08:32:57.000Z</time>
      </trkpt>
      <trkpt lat="43.47624" lon="1.81448">
        <ele>223.5</ele>
        <time>2015-05-06T08:33:5.000Z</time>
      </trkpt>
      <trkpt lat="43.47618" lon="1.81458">
        <ele>223.6</ele>
        <time>2015-05-06T08:33:14.000Z</time>
      </trkpt>
      <trkpt lat="43.47612" lon="1.81469">
        <ele>223.5</ele>
        <time>2015-05-06T08:33:23.000Z</time>
      </trkpt>
      <trkpt lat="43.47607" lon="1.8148">
        <ele>223.4</ele>
        <time>2015-05-06T08:33:32.000Z</time>
      </trkpt>
      <trkpt lat="43.47602" lon="1.81492">
        <ele>223.4</ele>
        <time>2015-05-06T08:33:41.000Z</time>
      </trkpt>
      <trkpt lat="43.47597" lon="1.81503">
        <ele>223.3</ele>
        <time>2015-05-06T08:33:50.000Z</time>
      </trkpt>
      <trkpt lat="43.47594" lon="1.81516">
        <ele>223.3</ele>
        <time>2015-05-06T08:33:58.000Z</time>
      </trkpt>
      <trkpt lat="43.47591" lon="1.81529">
        <ele>223.3</ele>
        <time>2015-05-06T08:34:6.000Z</time>
      </trkpt>
      <trkpt lat="43.47588" lon="1.81541">
        <ele>223.3</ele>
        <time>2015-05-06T08:34:14.000Z</time>
      </trkpt>
      <trkpt lat="43.47587" lon="1.81554">
        <ele>223.3</ele>
        <time>2015-05-06T08:34:24.000Z</time>
      </trkpt>
      <trkpt lat="43.47585" lon="1.81567">
        <ele>223.4</ele>
        <time>2015-05-06T08:34:34.000Z</time>
      </trkpt>
      <trkpt lat="43.47582" lon="1.8158">
        <ele>223.6</ele>
        <time>2015-05-06T08:34:43.000Z</time>
      </trkpt>
      <trkpt lat="43.47577" lon="1.81591">
        <ele>223.8</ele>
        <time>2015-05-06T08:34:51.000Z</time>
      </trkpt>
      <trkpt lat="43.47573" lon="1.81603">
        <ele>223.9</ele>
        <time>2015-05-06T08:34:59.000Z</time>
      </trkpt>
      <trkpt lat="43.47569" lon="1.81615">
        <ele>224</ele>
        <time>2015-05-06T08:35:7.000Z</time>
      </trkpt>
      <trkpt lat="43.47565" lon="1.81627">
        <ele>224.3</ele>
        <time>2015-05-06T08:35:16.000Z</time>
      </trkpt>
      <trkpt lat="43.47561" lon="1.8164">
        <ele>224.5</ele>
        <time>2015-05-06T08:35:24.000Z</time>
      </trkpt>
      <trkpt lat="43.47558" lon="1.81652">
        <ele>224.6</ele>
        <time>2015-05-06T08:35:32.000Z</time>
      </trkpt>
      <trkpt lat="43.47554" lon="1.81665">
        <ele>224.7</ele>
        <time>2015-05-06T08:35:40.000Z</time>
      </trkpt>
      <trkpt lat="43.47551" lon="1.81677">
        <ele>224.7</ele>
        <time>2015-05-06T08:35:48.000Z</time>
      </trkpt>
      <trkpt lat="43.47547" lon="1.81689">
        <ele>224.8</ele>
        <time>2015-05-06T08:35:56.000Z</time>
      </trkpt>
      <trkpt lat="43.47544" lon="1.81701">
        <ele>225</ele>
        <time>2015-05-06T08:36:5.000Z</time>
      </trkpt>
      <trkpt lat="43.47541" lon="1.81713">
        <ele>225.2</ele>
        <time>2015-05-06T08:36:15.000Z</time>
      </trkpt>
      <trkpt lat="43.47538" lon="1.81726">
        <ele>225.4</ele>
        <time>2015-05-06T08:39:48.000Z</time>
      </trkpt>
      <trkpt lat="43.47536" lon="1.81738">
        <ele>226.1</ele>
        <time>2015-05-06T08:39:58.000Z</time>
      </trkpt>
      <trkpt lat="43.47533" lon="1.81749">
        <ele>226.8</ele>
        <time>2015-05-06T08:40:7.000Z</time>
      </trkpt>
      <trkpt lat="43.47529" lon="1.81762">
        <ele>227.1</ele>
        <time>2015-05-06T08:40:15.000Z</time>
      </trkpt>
      <trkpt lat="43.47528" lon="1.81776">
        <ele>227.2</ele>
        <time>2015-05-06T08:40:24.000Z</time>
      </trkpt>
      <trkpt lat="43.47525" lon="1.81789">
        <ele>227.4</ele>
        <time>2015-05-06T08:40:32.000Z</time>
      </trkpt>
      <trkpt lat="43.47523" lon="1.81802">
        <ele>227.6</ele>
        <time>2015-05-06T08:40:41.000Z</time>
      </trkpt>
      <trkpt lat="43.47521" lon="1.81815">
        <ele>227.5</ele>
        <time>2015-05-06T08:40:50.000Z</time>
      </trkpt>
      <trkpt lat="43.4752" lon="1.81828">
        <ele>227.5</ele>
        <time>2015-05-06T08:40:59.000Z</time>
      </trkpt>
      <trkpt lat="43.4752" lon="1.81842">
        <ele>227.7</ele>
        <time>2015-05-06T08:41:9.000Z</time>
      </trkpt>
      <trkpt lat="43.47519" lon="1.81854">
        <ele>227.6</ele>
        <time>2015-05-06T08:41:17.000Z</time>
      </trkpt>
      <trkpt lat="43.47517" lon="1.81868">
        <ele>227.5</ele>
        <time>2015-05-06T08:41:25.000Z</time>
      </trkpt>
      <trkpt lat="43.47514" lon="1.81881">
        <ele>227.6</ele>
        <time>2015-05-06T08:41:33.000Z</time>
      </trkpt>
      <trkpt lat="43.47511" lon="1.81893">
        <ele>227.6</ele>
        <time>2015-05-06T08:41:40.000Z</time>
      </trkpt>
      <trkpt lat="43.47504" lon="1.81903">
        <ele>227.7</ele>
        <time>2015-05-06T08:41:50.000Z</time>
      </trkpt>
      <trkpt lat="43.47496" lon="1.81908">
        <ele>227.7</ele>
        <time>2015-05-06T08:41:57.000Z</time>
      </trkpt>
      <trkpt lat="43.4749" lon="1.81919">
        <ele>227.5</ele>
        <time>2015-05-06T08:42:8.000Z</time>
      </trkpt>
      <trkpt lat="43.47488" lon="1.81931">
        <ele>227.4</ele>
        <time>2015-05-06T08:42:16.000Z</time>
      </trkpt>
      <trkpt lat="43.47486" lon="1.81944">
        <ele>227.3</ele>
        <time>2015-05-06T08:42:24.000Z</time>
      </trkpt>
      <trkpt lat="43.47484" lon="1.81957">
        <ele>227.3</ele>
        <time>2015-05-06T08:42:33.000Z</time>
      </trkpt>
      <trkpt lat="43.47481" lon="1.8197">
        <ele>227.1</ele>
        <time>2015-05-06T08:42:42.000Z</time>
      </trkpt>
      <trkpt lat="43.47476" lon="1.8198">
        <ele>227</ele>
        <time>2015-05-06T08:42:48.000Z</time>
      </trkpt>
      <trkpt lat="43.47471" lon="1.8199">
        <ele>227</ele>
        <time>2015-05-06T08:42:55.000Z</time>
      </trkpt>
      <trkpt lat="43.47464" lon="1.82001">
        <ele>227.4</ele>
        <time>2015-05-06T08:43:4.000Z</time>
      </trkpt>
      <trkpt lat="43.47458" lon="1.8201">
        <ele>227.5</ele>
        <time>2015-05-06T08:43:11.000Z</time>
      </trkpt>
      <trkpt lat="43.47452" lon="1.8202">
        <ele>227.7</ele>
        <time>2015-05-06T08:43:21.000Z</time>
      </trkpt>
      <trkpt lat="43.47444" lon="1.82029">
        <ele>227.7</ele>
        <time>2015-05-06T08:43:31.000Z</time>
      </trkpt>
      <trkpt lat="43.47437" lon="1.82038">
        <ele>227.8</ele>
        <time>2015-05-06T08:43:40.000Z</time>
      </trkpt>
      <trkpt lat="43.47429" lon="1.82046">
        <ele>227.8</ele>
        <time>2015-05-06T08:43:48.000Z</time>
      </trkpt>
      <trkpt lat="43.47421" lon="1.82055">
        <ele>227.8</ele>
        <time>2015-05-06T08:43:56.000Z</time>
      </trkpt>
      <trkpt lat="43.47414" lon="1.82065">
        <ele>227.8</ele>
        <time>2015-05-06T08:44:5.000Z</time>
      </trkpt>
      <trkpt lat="43.47407" lon="1.82074">
        <ele>228</ele>
        <time>2015-05-06T08:44:13.000Z</time>
      </trkpt>
      <trkpt lat="43.474" lon="1.82083">
        <ele>228.2</ele>
        <time>2015-05-06T08:44:21.000Z</time>
      </trkpt>
      <trkpt lat="43.47394" lon="1.82093">
        <ele>228.4</ele>
        <time>2015-05-06T08:44:29.000Z</time>
      </trkpt>
      <trkpt lat="43.47388" lon="1.82104">
        <ele>228.4</ele>
        <time>2015-05-06T08:44:37.000Z</time>
      </trkpt>
      <trkpt lat="43.47383" lon="1.82114">
        <ele>228.5</ele>
        <time>2015-05-06T08:44:44.000Z</time>
      </trkpt>
      <trkpt lat="43.47378" lon="1.82125">
        <ele>228.4</ele>
        <time>2015-05-06T08:44:52.000Z</time>
      </trkpt>
      <trkpt lat="43.47372" lon="1.82136">
        <ele>228.4</ele>
        <time>2015-05-06T08:45:0.000Z</time>
      </trkpt>
      <trkpt lat="43.47365" lon="1.82144">
        <ele>228.5</ele>
        <time>2015-05-06T08:45:8.000Z</time>
      </trkpt>
      <trkpt lat="43.47357" lon="1.82153">
        <ele>228.6</ele>
        <time>2015-05-06T08:45:16.000Z</time>
      </trkpt>
      <trkpt lat="43.47349" lon="1.82162">
        <ele>228.7</ele>
        <time>2015-05-06T08:45:24.000Z</time>
      </trkpt>
      <trkpt lat="43.47342" lon="1.8217">
        <ele>228.7</ele>
        <time>2015-05-06T08:45:31.000Z</time>
      </trkpt>
      <trkpt lat="43.47335" lon="1.82177">
        <ele>228.7</ele>
        <time>2015-05-06T08:45:38.000Z</time>
      </trkpt>
      <trkpt lat="43.47327" lon="1.82185">
        <ele>228.8</ele>
        <time>2015-05-06T08:45:46.000Z</time>
      </trkpt>
      <trkpt lat="43.47319" lon="1.82192">
        <ele>229</ele>
        <time>2015-05-06T08:45:54.000Z</time>
      </trkpt>
      <trkpt lat="43.47311" lon="1.82199">
        <ele>229</ele>
        <time>2015-05-06T08:46:2.000Z</time>
      </trkpt>
      <trkpt lat="43.47302" lon="1.82206">
        <ele>229.1</ele>
        <time>2015-05-06T08:46:10.000Z</time>
      </trkpt>
      <trkpt lat="43.47293" lon="1.82213">
        <ele>229.2</ele>
        <time>2015-05-06T08:46:18.000Z</time>
      </trkpt>
      <trkpt lat="43.47284" lon="1.82219">
        <ele>229.3</ele>
        <time>2015-05-06T08:46:26.000Z</time>
      </trkpt>
      <trkpt lat="43.47276" lon="1.82225">
        <ele>229.3</ele>
        <time>2015-05-06T08:46:34.000Z</time>
      </trkpt>
      <trkpt lat="43.47267" lon="1.82232">
        <ele>229.4</ele>
        <time>2015-05-06T08:46:42.000Z</time>
      </trkpt>
      <trkpt lat="43.47259" lon="1.82239">
        <ele>229.5</ele>
        <time>2015-05-06T08:46:50.000Z</time>
      </trkpt>
      <trkpt lat="43.4725" lon="1.82246">
        <ele>229.6</ele>
        <time>2015-05-06T08:46:58.000Z</time>
      </trkpt>
      <trkpt lat="43.47242" lon="1.82254">
        <ele>229.7</ele>
        <time>2015-05-06T08:47:6.000Z</time>
      </trkpt>
      <trkpt lat="43.47236" lon="1.82265">
        <ele>229.8</ele>
        <time>2015-05-06T08:47:13.000Z</time>
      </trkpt>
      <trkpt lat="43.47232" lon="1.82277">
        <ele>229.8</ele>
        <time>2015-05-06T08:47:20.000Z</time>
      </trkpt>
      <trkpt lat="43.4723" lon="1.82289">
        <ele>229.9</ele>
        <time>2015-05-06T08:47:27.000Z</time>
      </trkpt>
      <trkpt lat="43.47227" lon="1.82302">
        <ele>229.9</ele>
        <time>2015-05-06T08:47:34.000Z</time>
      </trkpt>
      <trkpt lat="43.47224" lon="1.82314">
        <ele>229.9</ele>
        <time>2015-05-06T08:47:41.000Z</time>
      </trkpt>
      <trkpt lat="43.47222" lon="1.82327">
        <ele>230.2</ele>
        <time>2015-05-06T08:47:48.000Z</time>
      </trkpt>
      <trkpt lat="43.4722" lon="1.82339">
        <ele>230.4</ele>
        <time>2015-05-06T08:47:55.000Z</time>
      </trkpt>
      <trkpt lat="43.47217" lon="1.82352">
        <ele>230.5</ele>
        <time>2015-05-06T08:48:3.000Z</time>
      </trkpt>
      <trkpt lat="43.47214" lon="1.82364">
        <ele>230.7</ele>
        <time>2015-05-06T08:48:11.000Z</time>
      </trkpt>
      <trkpt lat="43.47213" lon="1.82376">
        <ele>231.1</ele>
        <time>2015-05-06T08:48:19.000Z</time>
      </trkpt>
      <trkpt lat="43.47209" lon="1.82389">
        <ele>231.4</ele>
        <time>2015-05-06T08:48:27.000Z</time>
      </trkpt>
      <trkpt lat="43.47206" lon="1.82401">
        <ele>231.9</ele>
        <time>2015-05-06T08:48:35.000Z</time>
      </trkpt>
      <trkpt lat="43.47203" lon="1.82413">
        <ele>232.3</ele>
        <time>2015-05-06T08:48:43.000Z</time>
      </trkpt>
      <trkpt lat="43.47199" lon="1.82426">
        <ele>232.7</ele>
        <time>2015-05-06T08:48:51.000Z</time>
      </trkpt>
      <trkpt lat="43.47196" lon="1.82438">
        <ele>233.1</ele>
        <time>2015-05-06T08:48:59.000Z</time>
      </trkpt>
      <trkpt lat="43.47193" lon="1.82451">
        <ele>233.5</ele>
        <time>2015-05-06T08:49:7.000Z</time>
      </trkpt>
      <trkpt lat="43.4719" lon="1.82464">
        <ele>233.8</ele>
        <time>2015-05-06T08:49:15.000Z</time>
      </trkpt>
      <trkpt lat="43.47188" lon="1.82476">
        <ele>234.1</ele>
        <time>2015-05-06T08:49:23.000Z</time>
      </trkpt>
      <trkpt lat="43.47185" lon="1.82489">
        <ele>234.4</ele>
        <time>2015-05-06T08:49:31.000Z</time>
      </trkpt>
      <trkpt lat="43.47183" lon="1.82502">
        <ele>234.8</ele>
        <time>2015-05-06T08:49:39.000Z</time>
      </trkpt>
      <trkpt lat="43.47182" lon="1.82515">
        <ele>235.3</ele>
        <time>2015-05-06T08:49:47.000Z</time>
      </trkpt>
      <trkpt lat="43.4718" lon="1.82528">
        <ele>235.8</ele>
        <time>2015-05-06T08:49:55.000Z</time>
      </trkpt>
      <trkpt lat="43.47179" lon="1.82541">
        <ele>236.3</ele>
        <time>2015-05-06T08:50:3.000Z</time>
      </trkpt>
      <trkpt lat="43.47177" lon="1.82554">
        <ele>236.6</ele>
        <time>2015-05-06T08:50:11.000Z</time>
      </trkpt>
      <trkpt lat="43.47173" lon="1.82566">
        <ele>236.9</ele>
        <time>2015-05-06T08:50:20.000Z</time>
      </trkpt>
      <trkpt lat="43.47168" lon="1.82577">
        <ele>237</ele>
        <time>2015-05-06T08:50:28.000Z</time>
      </trkpt>
      <trkpt lat="43.47163" lon="1.82588">
        <ele>237.3</ele>
        <time>2015-05-06T08:50:36.000Z</time>
      </trkpt>
      <trkpt lat="43.47157" lon="1.82598">
        <ele>237.5</ele>
        <time>2015-05-06T08:50:44.000Z</time>
      </trkpt>
      <trkpt lat="43.47151" lon="1.82609">
        <ele>237.6</ele>
        <time>2015-05-06T08:50:52.000Z</time>
      </trkpt>
      <trkpt lat="43.47146" lon="1.8262">
        <ele>237.9</ele>
        <time>2015-05-06T08:51:0.000Z</time>
      </trkpt>
      <trkpt lat="43.47141" lon="1.82631">
        <ele>238.1</ele>
        <time>2015-05-06T08:51:8.000Z</time>
      </trkpt>
      <trkpt lat="43.47136" lon="1.82643">
        <ele>238.4</ele>
        <time>2015-05-06T08:51:16.000Z</time>
      </trkpt>
      <trkpt lat="43.47131" lon="1.82653">
        <ele>238.5</ele>
        <time>2015-05-06T08:51:24.000Z</time>
      </trkpt>
      <trkpt lat="43.47125" lon="1.82664">
        <ele>238.8</ele>
        <time>2015-05-06T08:51:32.000Z</time>
      </trkpt>
      <trkpt lat="43.47119" lon="1.82675">
        <ele>239.1</ele>
        <time>2015-05-06T08:51:41.000Z</time>
      </trkpt>
      <trkpt lat="43.47113" lon="1.82686">
        <ele>239.3</ele>
        <time>2015-05-06T08:51:50.000Z</time>
      </trkpt>
      <trkpt lat="43.47108" lon="1.82696">
        <ele>239.6</ele>
        <time>2015-05-06T08:51:58.000Z</time>
      </trkpt>
      <trkpt lat="43.47103" lon="1.82706">
        <ele>239.8</ele>
        <time>2015-05-06T08:52:6.000Z</time>
      </trkpt>
      <trkpt lat="43.47098" lon="1.82717">
        <ele>240.2</ele>
        <time>2015-05-06T08:52:15.000Z</time>
      </trkpt>
      <trkpt lat="43.47093" lon="1.82728">
        <ele>240.5</ele>
        <time>2015-05-06T08:52:24.000Z</time>
      </trkpt>
      <trkpt lat="43.47088" lon="1.82741">
        <ele>240.8</ele>
        <time>2015-05-06T08:52:33.000Z</time>
      </trkpt>
      <trkpt lat="43.47084" lon="1.82753">
        <ele>241</ele>
        <time>2015-05-06T08:52:42.000Z</time>
      </trkpt>
      <trkpt lat="43.47081" lon="1.82766">
        <ele>241.4</ele>
        <time>2015-05-06T08:52:51.000Z</time>
      </trkpt>
      <trkpt lat="43.47077" lon="1.82778">
        <ele>241.8</ele>
        <time>2015-05-06T08:52:59.000Z</time>
      </trkpt>
      <trkpt lat="43.47073" lon="1.8279">
        <ele>242.5</ele>
        <time>2015-05-06T08:53:8.000Z</time>
      </trkpt>
      <trkpt lat="43.47069" lon="1.82803">
        <ele>242.8</ele>
        <time>2015-05-06T08:53:17.000Z</time>
      </trkpt>
      <trkpt lat="43.47064" lon="1.82815">
        <ele>243</ele>
        <time>2015-05-06T08:53:26.000Z</time>
      </trkpt>
      <trkpt lat="43.4706" lon="1.82826">
        <ele>243.1</ele>
        <time>2015-05-06T08:53:35.000Z</time>
      </trkpt>
      <trkpt lat="43.47055" lon="1.82839">
        <ele>243.2</ele>
        <time>2015-05-06T08:53:44.000Z</time>
      </trkpt>
      <trkpt lat="43.47051" lon="1.8285">
        <ele>243.5</ele>
        <time>2015-05-06T08:53:53.000Z</time>
      </trkpt>
      <trkpt lat="43.47046" lon="1.82861">
        <ele>243.7</ele>
        <time>2015-05-06T08:54:1.000Z</time>
      </trkpt>
      <trkpt lat="43.4704" lon="1.82872">
        <ele>244</ele>
        <time>2015-05-06T08:54:10.000Z</time>
      </trkpt>
      <trkpt lat="43.47035" lon="1.82882">
        <ele>244.2</ele>
        <time>2015-05-06T08:54:18.000Z</time>
      </trkpt>
      <trkpt lat="43.4703" lon="1.82892">
        <ele>244.4</ele>
        <time>2015-05-06T08:54:26.000Z</time>
      </trkpt>
      <trkpt lat="43.47025" lon="1.82903">
        <ele>244.5</ele>
        <time>2015-05-06T08:54:34.000Z</time>
      </trkpt>
      <trkpt lat="43.47019" lon="1.82914">
        <ele>244.7</ele>
        <time>2015-05-06T08:54:43.000Z</time>
      </trkpt>
      <trkpt lat="43.47014" lon="1.82926">
        <ele>244.9</ele>
        <time>2015-05-06T08:54:52.000Z</time>
      </trkpt>
      <trkpt lat="43.47009" lon="1.82937">
        <ele>245.2</ele>
        <time>2015-05-06T08:55:1.000Z</time>
      </trkpt>
      <trkpt lat="43.47004" lon="1.82949">
        <ele>245.5</ele>
        <time>2015-05-06T08:55:10.000Z</time>
      </trkpt>
      <trkpt lat="43.47" lon="1.82961">
        <ele>245.9</ele>
        <time>2015-05-06T08:55:18.000Z</time>
      </trkpt>
      <trkpt lat="43.46996" lon="1.82973">
        <ele>246.2</ele>
        <time>2015-05-06T08:55:27.000Z</time>
      </trkpt>
      <trkpt lat="43.46992" lon="1.82985">
        <ele>246.7</ele>
        <time>2015-05-06T08:55:36.000Z</time>
      </trkpt>
      <trkpt lat="43.46988" lon="1.82997">
        <ele>247.2</ele>
        <time>2015-05-06T08:55:45.000Z</time>
      </trkpt>
      <trkpt lat="43.46983" lon="1.83009">
        <ele>247.7</ele>
        <time>2015-05-06T08:55:55.000Z</time>
      </trkpt>
      <trkpt lat="43.46977" lon="1.8302">
        <ele>248.2</ele>
        <time>2015-05-06T08:56:5.000Z</time>
      </trkpt>
      <trkpt lat="43.46973" lon="1.83031">
        <ele>248.5</ele>
        <time>2015-05-06T08:56:13.000Z</time>
      </trkpt>
      <trkpt lat="43.46968" lon="1.83042">
        <ele>248.7</ele>
        <time>2015-05-06T08:56:21.000Z</time>
      </trkpt>
      <trkpt lat="43.46964" lon="1.83054">
        <ele>248.9</ele>
        <time>2015-05-06T08:56:29.000Z</time>
      </trkpt>
      <trkpt lat="43.46961" lon="1.83065">
        <ele>249.2</ele>
        <time>2015-05-06T08:56:37.000Z</time>
      </trkpt>
      <trkpt lat="43.46957" lon="1.83077">
        <ele>249.6</ele>
        <time>2015-05-06T08:56:46.000Z</time>
      </trkpt>
      <trkpt lat="43.46954" lon="1.8309">
        <ele>250</ele>
        <time>2015-05-06T08:56:55.000Z</time>
      </trkpt>
      <trkpt lat="43.4695" lon="1.83102">
        <ele>250.4</ele>
        <time>2015-05-06T08:57:3.000Z</time>
      </trkpt>
      <trkpt lat="43.46948" lon="1.83114">
        <ele>250.7</ele>
        <time>2015-05-06T08:57:11.000Z</time>
      </trkpt>
      <trkpt lat="43.46946" lon="1.83127">
        <ele>251</ele>
        <time>2015-05-06T08:57:19.000Z</time>
      </trkpt>
      <trkpt lat="43.46945" lon="1.8314">
        <ele>251.2</ele>
        <time>2015-05-06T08:57:27.000Z</time>
      </trkpt>
      <trkpt lat="43.46944" lon="1.83152">
        <ele>251.4</ele>
        <time>2015-05-06T08:57:35.000Z</time>
      </trkpt>
      <trkpt lat="43.46943" lon="1.83165">
        <ele>251.8</ele>
        <time>2015-05-06T08:57:43.000Z</time>
      </trkpt>
      <trkpt lat="43.46941" lon="1.83178">
        <ele>252.1</ele>
        <time>2015-05-06T08:57:51.000Z</time>
      </trkpt>
      <trkpt lat="43.4694" lon="1.83192">
        <ele>252.4</ele>
        <time>2015-05-06T08:58:0.000Z</time>
      </trkpt>
      <trkpt lat="43.46939" lon="1.83205">
        <ele>252.5</ele>
        <time>2015-05-06T08:58:8.000Z</time>
      </trkpt>
      <trkpt lat="43.46937" lon="1.83219">
        <ele>252.8</ele>
        <time>2015-05-06T08:58:16.000Z</time>
      </trkpt>
      <trkpt lat="43.46935" lon="1.83232">
        <ele>253.3</ele>
        <time>2015-05-06T08:58:24.000Z</time>
      </trkpt>
      <trkpt lat="43.46933" lon="1.83244">
        <ele>253.6</ele>
        <time>2015-05-06T08:58:33.000Z</time>
      </trkpt>
      <trkpt lat="43.46929" lon="1.83256">
        <ele>254</ele>
        <time>2015-05-06T08:58:41.000Z</time>
      </trkpt>
      <trkpt lat="43.46926" lon="1.83268">
        <ele>254.3</ele>
        <time>2015-05-06T08:58:49.000Z</time>
      </trkpt>
      <trkpt lat="43.46922" lon="1.83281">
        <ele>254.8</ele>
        <time>2015-05-06T08:58:58.000Z</time>
      </trkpt>
      <trkpt lat="43.46914" lon="1.83287">
        <ele>255.5</ele>
        <time>2015-05-06T08:59:8.000Z</time>
      </trkpt>
      <trkpt lat="43.46904" lon="1.83285">
        <ele>256</ele>
        <time>2015-05-06T08:59:18.000Z</time>
      </trkpt>
      <trkpt lat="43.46895" lon="1.83284">
        <ele>256.5</ele>
        <time>2015-05-06T08:59:27.000Z</time>
      </trkpt>
      <trkpt lat="43.46886" lon="1.8328">
        <ele>257.1</ele>
        <time>2015-05-06T08:59:36.000Z</time>
      </trkpt>
      <trkpt lat="43.46877" lon="1.83281">
        <ele>258.2</ele>
        <time>2015-05-06T08:59:48.000Z</time>
      </trkpt>
      <trkpt lat="43.46871" lon="1.83291">
        <ele>259.5</ele>
        <time>2015-05-06T09:01:29.000Z</time>
      </trkpt>
      <trkpt lat="43.4688" lon="1.83292">
        <ele>259.6</ele>
        <time>2015-05-06T09:03:41.000Z</time>
      </trkpt>
      <trkpt lat="43.4689" lon="1.83293">
        <ele>260.2</ele>
        <time>2015-05-06T09:03:53.000Z</time>
      </trkpt>
      <trkpt lat="43.46899" lon="1.83297">
        <ele>260.3</ele>
        <time>2015-05-06T09:04:4.000Z</time>
      </trkpt>
      <trkpt lat="43.46908" lon="1.83301">
        <ele>260.3</ele>
        <time>2015-05-06T09:04:13.000Z</time>
      </trkpt>
      <trkpt lat="43.46917" lon="1.83304">
        <ele>260.2</ele>
        <time>2015-05-06T09:04:21.000Z</time>
      </trkpt>
      <trkpt lat="43.46926" lon="1.83307">
        <ele>260.1</ele>
        <time>2015-05-06T09:04:30.000Z</time>
      </trkpt>
      <trkpt lat="43.46936" lon="1.8331">
        <ele>260</ele>
        <time>2015-05-06T09:04:39.000Z</time>
      </trkpt>
      <trkpt lat="43.46945" lon="1.83313">
        <ele>260</ele>
        <time>2015-05-06T09:04:48.000Z</time>
      </trkpt>
      <trkpt lat="43.46954" lon="1.83316">
        <ele>260</ele>
        <time>2015-05-06T09:04:57.000Z</time>
      </trkpt>
      <trkpt lat="43.46963" lon="1.83319">
        <ele>259.9</ele>
        <time>2015-05-06T09:05:6.000Z</time>
      </trkpt>
      <trkpt lat="43.46972" lon="1.83321">
        <ele>260</ele>
        <time>2015-05-06T09:05:14.000Z</time>
      </trkpt>
      <trkpt lat="43.46982" lon="1.83324">
        <ele>260.1</ele>
        <time>2015-05-06T09:05:23.000Z</time>
      </trkpt>
      <trkpt lat="43.46991" lon="1.83327">
        <ele>260.4</ele>
        <time>2015-05-06T09:05:32.000Z</time>
      </trkpt>
      <trkpt lat="43.47001" lon="1.8333">
        <ele>260.8</ele>
        <time>2015-05-06T09:05:41.000Z</time>
      </trkpt>
      <trkpt lat="43.4701" lon="1.83333">
        <ele>261.2</ele>
        <time>2015-05-06T09:05:49.000Z</time>
      </trkpt>
      <trkpt lat="43.47019" lon="1.83336">
        <ele>261.5</ele>
        <time>2015-05-06T09:05:57.000Z</time>
      </trkpt>
      <trkpt lat="43.47028" lon="1.83339">
        <ele>261.9</ele>
        <time>2015-05-06T09:06:5.000Z</time>
      </trkpt>
      <trkpt lat="43.47038" lon="1.83342">
        <ele>262.2</ele>
        <time>2015-05-06T09:06:13.000Z</time>
      </trkpt>
      <trkpt lat="43.47047" lon="1.83345">
        <ele>262.6</ele>
        <time>2015-05-06T09:06:21.000Z</time>
      </trkpt>
      <trkpt lat="43.47056" lon="1.83348">
        <ele>263.1</ele>
        <time>2015-05-06T09:06:29.000Z</time>
      </trkpt>
      <trkpt lat="43.47066" lon="1.83351">
        <ele>263.8</ele>
        <time>2015-05-06T09:06:38.000Z</time>
      </trkpt>
      <trkpt lat="43.47075" lon="1.83354">
        <ele>264.3</ele>
        <time>2015-05-06T09:06:46.000Z</time>
      </trkpt>
      <trkpt lat="43.47084" lon="1.83358">
        <ele>264.6</ele>
        <time>2015-05-06T09:06:55.000Z</time>
      </trkpt>
      <trkpt lat="43.47093" lon="1.83361">
        <ele>264.8</ele>
        <time>2015-05-06T09:07:3.000Z</time>
      </trkpt>
      <trkpt lat="43.47101" lon="1.83364">
        <ele>265.1</ele>
        <time>2015-05-06T09:07:11.000Z</time>
      </trkpt>
      <trkpt lat="43.4711" lon="1.83367">
        <ele>265.5</ele>
        <time>2015-05-06T09:07:19.000Z</time>
      </trkpt>
      <trkpt lat="43.47119" lon="1.83369">
        <ele>265.9</ele>
        <time>2015-05-06T09:07:27.000Z</time>
      </trkpt>
      <trkpt lat="43.47128" lon="1.83371">
        <ele>266.4</ele>
        <time>2015-05-06T09:07:36.000Z</time>
      </trkpt>
      <trkpt lat="43.47137" lon="1.83376">
        <ele>266.8</ele>
        <time>2015-05-06T09:07:44.000Z</time>
      </trkpt>
      <trkpt lat="43.47142" lon="1.83387">
        <ele>267.4</ele>
        <time>2015-05-06T09:07:52.000Z</time>
      </trkpt>
      <trkpt lat="43.47141" lon="1.834">
        <ele>267.8</ele>
        <time>2015-05-06T09:08:0.000Z</time>
      </trkpt>
      <trkpt lat="43.4714" lon="1.83413">
        <ele>268.2</ele>
        <time>2015-05-06T09:08:9.000Z</time>
      </trkpt>
      <trkpt lat="43.47138" lon="1.83426">
        <ele>268.7</ele>
        <time>2015-05-06T09:08:19.000Z</time>
      </trkpt>
      <trkpt lat="43.47133" lon="1.83437">
        <ele>269.3</ele>
        <time>2015-05-06T09:08:29.000Z</time>
      </trkpt>
      <trkpt lat="43.47127" lon="1.83448">
        <ele>269.8</ele>
        <time>2015-05-06T09:08:37.000Z</time>
      </trkpt>
      <trkpt lat="43.4712" lon="1.83458">
        <ele>270</ele>
        <time>2015-05-06T09:08:46.000Z</time>
      </trkpt>
      <trkpt lat="43.47114" lon="1.83468">
        <ele>270.1</ele>
        <time>2015-05-06T09:08:54.000Z</time>
      </trkpt>
      <trkpt lat="43.47108" lon="1.83478">
        <ele>270.2</ele>
        <time>2015-05-06T09:09:4.000Z</time>
      </trkpt>
      <trkpt lat="43.47101" lon="1.83488">
        <ele>270.3</ele>
        <time>2015-05-06T09:09:13.000Z</time>
      </trkpt>
      <trkpt lat="43.47094" lon="1.83498">
        <ele>270.5</ele>
        <time>2015-05-06T09:09:21.000Z</time>
      </trkpt>
      <trkpt lat="43.47089" lon="1.83508">
        <ele>270.6</ele>
        <time>2015-05-06T09:09:29.000Z</time>
      </trkpt>
      <trkpt lat="43.47084" lon="1.83518">
        <ele>270.8</ele>
        <time>2015-05-06T09:09:38.000Z</time>
      </trkpt>
      <trkpt lat="43.47077" lon="1.83528">
        <ele>270.8</ele>
        <time>2015-05-06T09:09:47.000Z</time>
      </trkpt>
      <trkpt lat="43.47071" lon="1.83539">
        <ele>270.9</ele>
        <time>2015-05-06T09:09:56.000Z</time>
      </trkpt>
      <trkpt lat="43.47065" lon="1.8355">
        <ele>271</ele>
        <time>2015-05-06T09:10:5.000Z</time>
      </trkpt>
      <trkpt lat="43.47059" lon="1.8356">
        <ele>271</ele>
        <time>2015-05-06T09:10:14.000Z</time>
      </trkpt>
      <trkpt lat="43.47053" lon="1.8357">
        <ele>271</ele>
        <time>2015-05-06T09:10:22.000Z</time>
      </trkpt>
      <trkpt lat="43.47047" lon="1.83579">
        <ele>270.9</ele>
        <time>2015-05-06T09:10:29.000Z</time>
      </trkpt>
      <trkpt lat="43.47041" lon="1.83589">
        <ele>270.7</ele>
        <time>2015-05-06T09:10:37.000Z</time>
      </trkpt>
      <trkpt lat="43.47034" lon="1.836">
        <ele>270.6</ele>
        <time>2015-05-06T09:10:45.000Z</time>
      </trkpt>
      <trkpt lat="43.47029" lon="1.8361">
        <ele>270.5</ele>
        <time>2015-05-06T09:10:54.000Z</time>
      </trkpt>
      <trkpt lat="43.47023" lon="1.83621">
        <ele>270.4</ele>
        <time>2015-05-06T09:11:3.000Z</time>
      </trkpt>
      <trkpt lat="43.47018" lon="1.83633">
        <ele>270.1</ele>
        <time>2015-05-06T09:11:12.000Z</time>
      </trkpt>
      <trkpt lat="43.47013" lon="1.83643">
        <ele>269.8</ele>
        <time>2015-05-06T09:11:20.000Z</time>
      </trkpt>
      <trkpt lat="43.47009" lon="1.83656">
        <ele>269.6</ele>
        <time>2015-05-06T09:11:28.000Z</time>
      </trkpt>
      <trkpt lat="43.47004" lon="1.83666">
        <ele>269.4</ele>
        <time>2015-05-06T09:11:36.000Z</time>
      </trkpt>
      <trkpt lat="43.47" lon="1.83679">
        <ele>269.1</ele>
        <time>2015-05-06T09:11:44.000Z</time>
      </trkpt>
      <trkpt lat="43.46996" lon="1.83691">
        <ele>268.8</ele>
        <time>2015-05-06T09:11:52.000Z</time>
      </trkpt>
      <trkpt lat="43.46991" lon="1.83702">
        <ele>268.6</ele>
        <time>2015-05-06T09:11:59.000Z</time>
      </trkpt>
      <trkpt lat="43.46986" lon="1.83713">
        <ele>268.4</ele>
        <time>2015-05-06T09:12:7.000Z</time>
      </trkpt>
      <trkpt lat="43.46981" lon="1.83724">
        <ele>268.1</ele>
        <time>2015-05-06T09:12:15.000Z</time>
      </trkpt>
      <trkpt lat="43.46976" lon="1.83735">
        <ele>267.8</ele>
        <time>2015-05-06T09:12:23.000Z</time>
      </trkpt>
      <trkpt lat="43.46971" lon="1.83746">
        <ele>267.5</ele>
        <time>2015-05-06T09:12:31.000Z</time>
      </trkpt>
      <trkpt lat="43.46966" lon="1.83758">
        <ele>267.2</ele>
        <time>2015-05-06T09:12:39.000Z</time>
      </trkpt>
      <trkpt lat="43.46961" lon="1.8377">
        <ele>266.8</ele>
        <time>2015-05-06T09:12:47.000Z</time>
      </trkpt>
      <trkpt lat="43.46955" lon="1.83781">
        <ele>266.4</ele>
        <time>2015-05-06T09:12:55.000Z</time>
      </trkpt>
      <trkpt lat="43.4695" lon="1.83792">
        <ele>266.1</ele>
        <time>2015-05-06T09:13:3.000Z</time>
      </trkpt>
      <trkpt lat="43.46944" lon="1.83804">
        <ele>265.8</ele>
        <time>2015-05-06T09:13:11.000Z</time>
      </trkpt>
      <trkpt lat="43.46939" lon="1.83815">
        <ele>265.5</ele>
        <time>2015-05-06T09:13:18.000Z</time>
      </trkpt>
      <trkpt lat="43.46934" lon="1.83827">
        <ele>265.1</ele>
        <time>2015-05-06T09:13:26.000Z</time>
      </trkpt>
      <trkpt lat="43.46929" lon="1.83838">
        <ele>264.7</ele>
        <time>2015-05-06T09:13:33.000Z</time>
      </trkpt>
      <trkpt lat="43.46925" lon="1.83849">
        <ele>264.4</ele>
        <time>2015-05-06T09:13:40.000Z</time>
      </trkpt>
      <trkpt lat="43.4692" lon="1.83861">
        <ele>264</ele>
        <time>2015-05-06T09:13:48.000Z</time>
      </trkpt>
      <trkpt lat="43.46915" lon="1.83872">
        <ele>263.7</ele>
        <time>2015-05-06T09:13:55.000Z</time>
      </trkpt>
      <trkpt lat="43.4691" lon="1.83883">
        <ele>263.4</ele>
        <time>2015-05-06T09:14:2.000Z</time>
      </trkpt>
      <trkpt lat="43.46904" lon="1.83892">
        <ele>262.9</ele>
        <time>2015-05-06T09:14:10.000Z</time>
      </trkpt>
      <trkpt lat="43.46896" lon="1.83901">
        <ele>262.3</ele>
        <time>2015-05-06T09:14:19.000Z</time>
      </trkpt>
      <trkpt lat="43.46887" lon="1.83907">
        <ele>261.7</ele>
        <time>2015-05-06T09:14:27.000Z</time>
      </trkpt>
      <trkpt lat="43.46878" lon="1.83909">
        <ele>261</ele>
        <time>2015-05-06T09:14:35.000Z</time>
      </trkpt>
      <trkpt lat="43.46869" lon="1.83911">
        <ele>260.3</ele>
        <time>2015-05-06T09:14:43.000Z</time>
      </trkpt>
      <trkpt lat="43.46859" lon="1.83914">
        <ele>259.6</ele>
        <time>2015-05-06T09:14:51.000Z</time>
      </trkpt>
      <trkpt lat="43.4685" lon="1.83916">
        <ele>258.9</ele>
        <time>2015-05-06T09:15:0.000Z</time>
      </trkpt>
      <trkpt lat="43.4684" lon="1.8392">
        <ele>258.6</ele>
        <time>2015-05-06T09:15:8.000Z</time>
      </trkpt>
      <trkpt lat="43.46832" lon="1.83926">
        <ele>258.3</ele>
        <time>2015-05-06T09:15:16.000Z</time>
      </trkpt>
      <trkpt lat="43.46823" lon="1.83932">
        <ele>258.1</ele>
        <time>2015-05-06T09:15:25.000Z</time>
      </trkpt>
      <trkpt lat="43.46814" lon="1.83938">
        <ele>257.9</ele>
        <time>2015-05-06T09:15:34.000Z</time>
      </trkpt>
      <trkpt lat="43.46805" lon="1.83944">
        <ele>257.9</ele>
        <time>2015-05-06T09:15:42.000Z</time>
      </trkpt>
      <trkpt lat="43.46796" lon="1.8395">
        <ele>257.9</ele>
        <time>2015-05-06T09:15:50.000Z</time>
      </trkpt>
      <trkpt lat="43.46787" lon="1.83956">
        <ele>257.9</ele>
        <time>2015-05-06T09:15:58.000Z</time>
      </trkpt>
      <trkpt lat="43.46778" lon="1.83961">
        <ele>257.9</ele>
        <time>2015-05-06T09:16:6.000Z</time>
      </trkpt>
      <trkpt lat="43.4677" lon="1.83967">
        <ele>257.9</ele>
        <time>2015-05-06T09:16:14.000Z</time>
      </trkpt>
      <trkpt lat="43.46761" lon="1.83974">
        <ele>257.9</ele>
        <time>2015-05-06T09:16:22.000Z</time>
      </trkpt>
      <trkpt lat="43.46753" lon="1.8398">
        <ele>257.9</ele>
        <time>2015-05-06T09:16:30.000Z</time>
      </trkpt>
      <trkpt lat="43.46744" lon="1.83989">
        <ele>257.9</ele>
        <time>2015-05-06T09:16:39.000Z</time>
      </trkpt>
      <trkpt lat="43.46737" lon="1.83996">
        <ele>257.9</ele>
        <time>2015-05-06T09:16:47.000Z</time>
      </trkpt>
      <trkpt lat="43.46729" lon="1.84003">
        <ele>257.7</ele>
        <time>2015-05-06T09:16:55.000Z</time>
      </trkpt>
      <trkpt lat="43.46722" lon="1.8401">
        <ele>257.6</ele>
        <time>2015-05-06T09:17:3.000Z</time>
      </trkpt>
      <trkpt lat="43.46714" lon="1.84017">
        <ele>257.6</ele>
        <time>2015-05-06T09:17:11.000Z</time>
      </trkpt>
      <trkpt lat="43.46705" lon="1.84024">
        <ele>258</ele>
        <time>2015-05-06T09:17:19.000Z</time>
      </trkpt>
      <trkpt lat="43.46698" lon="1.84032">
        <ele>258.3</ele>
        <time>2015-05-06T09:17:27.000Z</time>
      </trkpt>
      <trkpt lat="43.4669" lon="1.84039">
        <ele>258.6</ele>
        <time>2015-05-06T09:17:35.000Z</time>
      </trkpt>
      <trkpt lat="43.46682" lon="1.84046">
        <ele>258.7</ele>
        <time>2015-05-06T09:17:43.000Z</time>
      </trkpt>
      <trkpt lat="43.46674" lon="1.84053">
        <ele>259.2</ele>
        <time>2015-05-06T09:17:50.000Z</time>
      </trkpt>
      <trkpt lat="43.46666" lon="1.8406">
        <ele>259.7</ele>
        <time>2015-05-06T09:17:58.000Z</time>
      </trkpt>
      <trkpt lat="43.46658" lon="1.84068">
        <ele>260.3</ele>
        <time>2015-05-06T09:18:6.000Z</time>
      </trkpt>
      <trkpt lat="43.4665" lon="1.84075">
        <ele>260.9</ele>
        <time>2015-05-06T09:18:15.000Z</time>
      </trkpt>
      <trkpt lat="43.46641" lon="1.84083">
        <ele>261.3</ele>
        <time>2015-05-06T09:18:24.000Z</time>
      </trkpt>
      <trkpt lat="43.46634" lon="1.8409">
        <ele>261.7</ele>
        <time>2015-05-06T09:18:32.000Z</time>
      </trkpt>
      <trkpt lat="43.46626" lon="1.84098">
        <ele>262.2</ele>
        <time>2015-05-06T09:18:41.000Z</time>
      </trkpt>
      <trkpt lat="43.46618" lon="1.84105">
        <ele>262.9</ele>
        <time>2015-05-06T09:18:49.000Z</time>
      </trkpt>
      <trkpt lat="43.46611" lon="1.84113">
        <ele>263.7</ele>
        <time>2015-05-06T09:18:57.000Z</time>
      </trkpt>
      <trkpt lat="43.46604" lon="1.84121">
        <ele>264.3</ele>
        <time>2015-05-06T09:19:5.000Z</time>
      </trkpt>
      <trkpt lat="43.46597" lon="1.84129">
        <ele>264.9</ele>
        <time>2015-05-06T09:19:13.000Z</time>
      </trkpt>
      <trkpt lat="43.46589" lon="1.84137">
        <ele>265.5</ele>
        <time>2015-05-06T09:19:21.000Z</time>
      </trkpt>
      <trkpt lat="43.46581" lon="1.84145">
        <ele>266.1</ele>
        <time>2015-05-06T09:19:29.000Z</time>
      </trkpt>
      <trkpt lat="43.46573" lon="1.84153">
        <ele>266.5</ele>
        <time>2015-05-06T09:19:37.000Z</time>
      </trkpt>
      <trkpt lat="43.46565" lon="1.8416">
        <ele>266.8</ele>
        <time>2015-05-06T09:19:45.000Z</time>
      </trkpt>
      <trkpt lat="43.46556" lon="1.84168">
        <ele>267.3</ele>
        <time>2015-05-06T09:19:53.000Z</time>
      </trkpt>
      <trkpt lat="43.46549" lon="1.84176">
        <ele>267.8</ele>
        <time>2015-05-06T09:20:1.000Z</time>
      </trkpt>
      <trkpt lat="43.46541" lon="1.84185">
        <ele>268.1</ele>
        <time>2015-05-06T09:20:9.000Z</time>
      </trkpt>
      <trkpt lat="43.46533" lon="1.84193">
        <ele>268.3</ele>
        <time>2015-05-06T09:20:18.000Z</time>
      </trkpt>
      <trkpt lat="43.46525" lon="1.84201">
        <ele>268.5</ele>
        <time>2015-05-06T09:20:27.000Z</time>
      </trkpt>
      <trkpt lat="43.46517" lon="1.84208">
        <ele>268.9</ele>
        <time>2015-05-06T09:20:39.000Z</time>
      </trkpt>
      <trkpt lat="43.46508" lon="1.84213">
        <ele>269.9</ele>
        <time>2015-05-06T09:23:46.000Z</time>
      </trkpt>
      <trkpt lat="43.46499" lon="1.84218">
        <ele>269.9</ele>
        <time>2015-05-06T09:23:55.000Z</time>
      </trkpt>
      <trkpt lat="43.46491" lon="1.84224">
        <ele>269.8</ele>
        <time>2015-05-06T09:24:3.000Z</time>
      </trkpt>
      <trkpt lat="43.46483" lon="1.84232">
        <ele>269.4</ele>
        <time>2015-05-06T09:24:12.000Z</time>
      </trkpt>
      <trkpt lat="43.46475" lon="1.84241">
        <ele>269</ele>
        <time>2015-05-06T09:24:21.000Z</time>
      </trkpt>
      <trkpt lat="43.46469" lon="1.84251">
        <ele>268.7</ele>
        <time>2015-05-06T09:24:30.000Z</time>
      </trkpt>
      <trkpt lat="43.46463" lon="1.8426">
        <ele>268.4</ele>
        <time>2015-05-06T09:24:38.000Z</time>
      </trkpt>
      <trkpt lat="43.46456" lon="1.8427">
        <ele>268.1</ele>
        <time>2015-05-06T09:24:48.000Z</time>
      </trkpt>
      <trkpt lat="43.4645" lon="1.8428">
        <ele>267.9</ele>
        <time>2015-05-06T09:24:57.000Z</time>
      </trkpt>
      <trkpt lat="43.46444" lon="1.8429">
        <ele>267.7</ele>
        <time>2015-05-06T09:25:6.000Z</time>
      </trkpt>
      <trkpt lat="43.46436" lon="1.84297">
        <ele>267.5</ele>
        <time>2015-05-06T09:25:16.000Z</time>
      </trkpt>
      <trkpt lat="43.46429" lon="1.84306">
        <ele>267.1</ele>
        <time>2015-05-06T09:25:26.000Z</time>
      </trkpt>
      <trkpt lat="43.46421" lon="1.84314">
        <ele>266.9</ele>
        <time>2015-05-06T09:25:36.000Z</time>
      </trkpt>
      <trkpt lat="43.46414" lon="1.84323">
        <ele>266.8</ele>
        <time>2015-05-06T09:25:46.000Z</time>
      </trkpt>
      <trkpt lat="43.46406" lon="1.84331">
        <ele>266.9</ele>
        <time>2015-05-06T09:25:55.000Z</time>
      </trkpt>
      <trkpt lat="43.46398" lon="1.84336">
        <ele>267.1</ele>
        <time>2015-05-06T09:26:4.000Z</time>
      </trkpt>
      <trkpt lat="43.46391" lon="1.84344">
        <ele>267.2</ele>
        <time>2015-05-06T09:26:12.000Z</time>
      </trkpt>
      <trkpt lat="43.46383" lon="1.84351">
        <ele>267.3</ele>
        <time>2015-05-06T09:26:20.000Z</time>
      </trkpt>
      <trkpt lat="43.46376" lon="1.84359">
        <ele>267.2</ele>
        <time>2015-05-06T09:26:28.000Z</time>
      </trkpt>
      <trkpt lat="43.46369" lon="1.84366">
        <ele>267.1</ele>
        <time>2015-05-06T09:26:36.000Z</time>
      </trkpt>
      <trkpt lat="43.46362" lon="1.84375">
        <ele>266.9</ele>
        <time>2015-05-06T09:26:44.000Z</time>
      </trkpt>
      <trkpt lat="43.46354" lon="1.84383">
        <ele>266.8</ele>
        <time>2015-05-06T09:26:52.000Z</time>
      </trkpt>
      <trkpt lat="43.46348" lon="1.84392">
        <ele>266.7</ele>
        <time>2015-05-06T09:27:0.000Z</time>
      </trkpt>
      <trkpt lat="43.46341" lon="1.844">
        <ele>266.5</ele>
        <time>2015-05-06T09:27:8.000Z</time>
      </trkpt>
      <trkpt lat="43.46333" lon="1.8441">
        <ele>266.2</ele>
        <time>2015-05-06T09:27:17.000Z</time>
      </trkpt>
      <trkpt lat="43.46327" lon="1.84419">
        <ele>265.9</ele>
        <time>2015-05-06T09:27:25.000Z</time>
      </trkpt>
      <trkpt lat="43.4632" lon="1.84428">
        <ele>265.7</ele>
        <time>2015-05-06T09:27:33.000Z</time>
      </trkpt>
      <trkpt lat="43.46314" lon="1.84437">
        <ele>265.3</ele>
        <time>2015-05-06T09:27:41.000Z</time>
      </trkpt>
      <trkpt lat="43.46307" lon="1.84447">
        <ele>264.7</ele>
        <time>2015-05-06T09:27:49.000Z</time>
      </trkpt>
      <trkpt lat="43.46301" lon="1.84457">
        <ele>263.8</ele>
        <time>2015-05-06T09:27:58.000Z</time>
      </trkpt>
      <trkpt lat="43.46296" lon="1.84467">
        <ele>263.1</ele>
        <time>2015-05-06T09:28:6.000Z</time>
      </trkpt>
      <trkpt lat="43.4629" lon="1.84477">
        <ele>262.2</ele>
        <time>2015-05-06T09:28:15.000Z</time>
      </trkpt>
      <trkpt lat="43.46284" lon="1.84486">
        <ele>261.3</ele>
        <time>2015-05-06T09:28:24.000Z</time>
      </trkpt>
      <trkpt lat="43.46277" lon="1.84495">
        <ele>260.4</ele>
        <time>2015-05-06T09:28:34.000Z</time>
      </trkpt>
      <trkpt lat="43.46271" lon="1.84505">
        <ele>259.5</ele>
        <time>2015-05-06T09:28:45.000Z</time>
      </trkpt>
      <trkpt lat="43.46265" lon="1.84514">
        <ele>258.7</ele>
        <time>2015-05-06T09:28:54.000Z</time>
      </trkpt>
      <trkpt lat="43.46258" lon="1.84523">
        <ele>258.1</ele>
        <time>2015-05-06T09:29:3.000Z</time>
      </trkpt>
      <trkpt lat="43.46251" lon="1.84531">
        <ele>257.6</ele>
        <time>2015-05-06T09:29:11.000Z</time>
      </trkpt>
      <trkpt lat="43.46244" lon="1.8454">
        <ele>257.3</ele>
        <time>2015-05-06T09:29:19.000Z</time>
      </trkpt>
      <trkpt lat="43.46238" lon="1.8455">
        <ele>257</ele>
        <time>2015-05-06T09:29:27.000Z</time>
      </trkpt>
      <trkpt lat="43.46233" lon="1.84561">
        <ele>256.9</ele>
        <time>2015-05-06T09:29:36.000Z</time>
      </trkpt>
      <trkpt lat="43.46228" lon="1.84571">
        <ele>256.8</ele>
        <time>2015-05-06T09:29:45.000Z</time>
      </trkpt>
      <trkpt lat="43.46222" lon="1.8458">
        <ele>257</ele>
        <time>2015-05-06T09:29:53.000Z</time>
      </trkpt>
      <trkpt lat="43.46215" lon="1.84589">
        <ele>257.4</ele>
        <time>2015-05-06T09:30:2.000Z</time>
      </trkpt>
      <trkpt lat="43.46207" lon="1.84595">
        <ele>257.5</ele>
        <time>2015-05-06T09:30:10.000Z</time>
      </trkpt>
      <trkpt lat="43.46198" lon="1.84601">
        <ele>257.6</ele>
        <time>2015-05-06T09:30:18.000Z</time>
      </trkpt>
      <trkpt lat="43.46189" lon="1.84607">
        <ele>257.8</ele>
        <time>2015-05-06T09:30:27.000Z</time>
      </trkpt>
      <trkpt lat="43.46182" lon="1.84614">
        <ele>257.9</ele>
        <time>2015-05-06T09:30:35.000Z</time>
      </trkpt>
      <trkpt lat="43.46175" lon="1.84622">
        <ele>257.9</ele>
        <time>2015-05-06T09:30:43.000Z</time>
      </trkpt>
      <trkpt lat="43.46167" lon="1.8463">
        <ele>258</ele>
        <time>2015-05-06T09:30:51.000Z</time>
      </trkpt>
      <trkpt lat="43.4616" lon="1.84639">
        <ele>258.1</ele>
        <time>2015-05-06T09:30:59.000Z</time>
      </trkpt>
      <trkpt lat="43.46153" lon="1.84648">
        <ele>258.1</ele>
        <time>2015-05-06T09:31:7.000Z</time>
      </trkpt>
      <trkpt lat="43.46146" lon="1.84657">
        <ele>258.1</ele>
        <time>2015-05-06T09:31:14.000Z</time>
      </trkpt>
      <trkpt lat="43.4614" lon="1.84667">
        <ele>258.4</ele>
        <time>2015-05-06T09:31:23.000Z</time>
      </trkpt>
      <trkpt lat="43.46134" lon="1.84677">
        <ele>258.5</ele>
        <time>2015-05-06T09:31:32.000Z</time>
      </trkpt>
      <trkpt lat="43.46127" lon="1.84686">
        <ele>258.8</ele>
        <time>2015-05-06T09:31:41.000Z</time>
      </trkpt>
      <trkpt lat="43.46121" lon="1.84696">
        <ele>259</ele>
        <time>2015-05-06T09:31:49.000Z</time>
      </trkpt>
      <trkpt lat="43.46115" lon="1.84706">
        <ele>259.3</ele>
        <time>2015-05-06T09:31:57.000Z</time>
      </trkpt>
      <trkpt lat="43.46109" lon="1.84716">
        <ele>259.8</ele>
        <time>2015-05-06T09:32:5.000Z</time>
      </trkpt>
      <trkpt lat="43.46103" lon="1.84725">
        <ele>260.2</ele>
        <time>2015-05-06T09:32:13.000Z</time>
      </trkpt>
      <trkpt lat="43.46095" lon="1.84733">
        <ele>260.5</ele>
        <time>2015-05-06T09:32:21.000Z</time>
      </trkpt>
      <trkpt lat="43.46087" lon="1.84741">
        <ele>260.7</ele>
        <time>2015-05-06T09:32:29.000Z</time>
      </trkpt>
      <trkpt lat="43.4608" lon="1.84749">
        <ele>261</ele>
        <time>2015-05-06T09:32:37.000Z</time>
      </trkpt>
      <trkpt lat="43.46073" lon="1.84757">
        <ele>261.3</ele>
        <time>2015-05-06T09:32:45.000Z</time>
      </trkpt>
      <trkpt lat="43.46065" lon="1.84764">
        <ele>261.5</ele>
        <time>2015-05-06T09:32:53.000Z</time>
      </trkpt>
      <trkpt lat="43.46058" lon="1.84772">
        <ele>261.7</ele>
        <time>2015-05-06T09:33:1.000Z</time>
      </trkpt>
      <trkpt lat="43.4605" lon="1.8478">
        <ele>262.1</ele>
        <time>2015-05-06T09:33:10.000Z</time>
      </trkpt>
      <trkpt lat="43.46042" lon="1.84788">
        <ele>262.5</ele>
        <time>2015-05-06T09:33:18.000Z</time>
      </trkpt>
      <trkpt lat="43.46034" lon="1.84797">
        <ele>262.9</ele>
        <time>2015-05-06T09:33:26.000Z</time>
      </trkpt>
      <trkpt lat="43.46027" lon="1.84804">
        <ele>263.2</ele>
        <time>2015-05-06T09:33:35.000Z</time>
      </trkpt>
      <trkpt lat="43.46018" lon="1.84812">
        <ele>263.5</ele>
        <time>2015-05-06T09:33:44.000Z</time>
      </trkpt>
      <trkpt lat="43.46011" lon="1.84819">
        <ele>263.9</ele>
        <time>2015-05-06T09:33:57.000Z</time>
      </trkpt>
      <trkpt lat="43.46007" lon="1.84832">
        <ele>264.4</ele>
        <time>2015-05-06T09:34:9.000Z</time>
      </trkpt>
      <trkpt lat="43.46004" lon="1.84843">
        <ele>264.8</ele>
        <time>2015-05-06T09:34:17.000Z</time>
      </trkpt>
      <trkpt lat="43.46" lon="1.84856">
        <ele>265.3</ele>
        <time>2015-05-06T09:34:26.000Z</time>
      </trkpt>
      <trkpt lat="43.45996" lon="1.84867">
        <ele>265.5</ele>
        <time>2015-05-06T09:34:36.000Z</time>
      </trkpt>
      <trkpt lat="43.45994" lon="1.84881">
        <ele>265.6</ele>
        <time>2015-05-06T09:34:45.000Z</time>
      </trkpt>
      <trkpt lat="43.45992" lon="1.84894">
        <ele>265.7</ele>
        <time>2015-05-06T09:34:53.000Z</time>
      </trkpt>
      <trkpt lat="43.4599" lon="1.84907">
        <ele>265.8</ele>
        <time>2015-05-06T09:35:34.000Z</time>
      </trkpt>
      <trkpt lat="43.45983" lon="1.84915">
        <ele>266</ele>
        <time>2015-05-06T09:35:43.000Z</time>
      </trkpt>
      <trkpt lat="43.4598" lon="1.84927">
        <ele>266.2</ele>
        <time>2015-05-06T09:35:51.000Z</time>
      </trkpt>
      <trkpt lat="43.45978" lon="1.84941">
        <ele>266.2</ele>
        <time>2015-05-06T09:36:1.000Z</time>
      </trkpt>
      <trkpt lat="43.45974" lon="1.84952">
        <ele>266.2</ele>
        <time>2015-05-06T09:36:10.000Z</time>
      </trkpt>
      <trkpt lat="43.45968" lon="1.84963">
        <ele>266.3</ele>
        <time>2015-05-06T09:36:25.000Z</time>
      </trkpt>
      <trkpt lat="43.45962" lon="1.84972">
        <ele>266.2</ele>
        <time>2015-05-06T09:36:34.000Z</time>
      </trkpt>
      <trkpt lat="43.45955" lon="1.84983">
        <ele>266.5</ele>
        <time>2015-05-06T09:36:42.000Z</time>
      </trkpt>
      <trkpt lat="43.45949" lon="1.84994">
        <ele>266.8</ele>
        <time>2015-05-06T09:36:51.000Z</time>
      </trkpt>
      <trkpt lat="43.45942" lon="1.85003">
        <ele>267</ele>
        <time>2015-05-06T09:36:59.000Z</time>
      </trkpt>
      <trkpt lat="43.45936" lon="1.85013">
        <ele>267.1</ele>
        <time>2015-05-06T09:37:6.000Z</time>
      </trkpt>
      <trkpt lat="43.45929" lon="1.85024">
        <ele>267.1</ele>
        <time>2015-05-06T09:37:15.000Z</time>
      </trkpt>
      <trkpt lat="43.45923" lon="1.85033">
        <ele>267</ele>
        <time>2015-05-06T09:37:23.000Z</time>
      </trkpt>
      <trkpt lat="43.45917" lon="1.85042">
        <ele>266.8</ele>
        <time>2015-05-06T09:37:31.000Z</time>
      </trkpt>
      <trkpt lat="43.4591" lon="1.85052">
        <ele>266.5</ele>
        <time>2015-05-06T09:37:39.000Z</time>
      </trkpt>
      <trkpt lat="43.45904" lon="1.85063">
        <ele>266.2</ele>
        <time>2015-05-06T09:37:48.000Z</time>
      </trkpt>
      <trkpt lat="43.459" lon="1.85075">
        <ele>265.6</ele>
        <time>2015-05-06T09:37:56.000Z</time>
      </trkpt>
      <trkpt lat="43.45896" lon="1.85086">
        <ele>265.1</ele>
        <time>2015-05-06T09:38:3.000Z</time>
      </trkpt>
      <trkpt lat="43.45893" lon="1.85098">
        <ele>264.8</ele>
        <time>2015-05-06T09:38:11.000Z</time>
      </trkpt>
      <trkpt lat="43.4589" lon="1.8511">
        <ele>264.7</ele>
        <time>2015-05-06T09:38:18.000Z</time>
      </trkpt>
      <trkpt lat="43.45888" lon="1.85123">
        <ele>264.7</ele>
        <time>2015-05-06T09:38:25.000Z</time>
      </trkpt>
      <trkpt lat="43.45887" lon="1.85136">
        <ele>264.6</ele>
        <time>2015-05-06T09:38:33.000Z</time>
      </trkpt>
      <trkpt lat="43.45885" lon="1.85148">
        <ele>264.6</ele>
        <time>2015-05-06T09:38:41.000Z</time>
      </trkpt>
      <trkpt lat="43.45883" lon="1.85161">
        <ele>264.6</ele>
        <time>2015-05-06T09:38:50.000Z</time>
      </trkpt>
      <trkpt lat="43.45881" lon="1.85174">
        <ele>264.9</ele>
        <time>2015-05-06T09:38:59.000Z</time>
      </trkpt>
      <trkpt lat="43.45879" lon="1.85186">
        <ele>265.2</ele>
        <time>2015-05-06T09:39:7.000Z</time>
      </trkpt>
      <trkpt lat="43.45877" lon="1.85199">
        <ele>265.5</ele>
        <time>2015-05-06T09:39:16.000Z</time>
      </trkpt>
      <trkpt lat="43.45875" lon="1.85212">
        <ele>265.7</ele>
        <time>2015-05-06T09:39:23.000Z</time>
      </trkpt>
      <trkpt lat="43.45872" lon="1.85225">
        <ele>265.9</ele>
        <time>2015-05-06T09:39:31.000Z</time>
      </trkpt>
      <trkpt lat="43.4587" lon="1.85237">
        <ele>266.1</ele>
        <time>2015-05-06T09:39:38.000Z</time>
      </trkpt>
      <trkpt lat="43.45865" lon="1.85249">
        <ele>266.1</ele>
        <time>2015-05-06T09:39:46.000Z</time>
      </trkpt>
      <trkpt lat="43.45859" lon="1.85259">
        <ele>265.9</ele>
        <time>2015-05-06T09:39:54.000Z</time>
      </trkpt>
      <trkpt lat="43.45854" lon="1.85269">
        <ele>265.7</ele>
        <time>2015-05-06T09:40:1.000Z</time>
      </trkpt>
      <trkpt lat="43.45847" lon="1.8528">
        <ele>265.6</ele>
        <time>2015-05-06T09:40:10.000Z</time>
      </trkpt>
      <trkpt lat="43.4584" lon="1.8529">
        <ele>265.5</ele>
        <time>2015-05-06T09:40:18.000Z</time>
      </trkpt>
      <trkpt lat="43.45834" lon="1.85299">
        <ele>265.4</ele>
        <time>2015-05-06T09:40:26.000Z</time>
      </trkpt>
      <trkpt lat="43.45828" lon="1.85309">
        <ele>265.2</ele>
        <time>2015-05-06T09:40:33.000Z</time>
      </trkpt>
      <trkpt lat="43.45822" lon="1.85319">
        <ele>265.1</ele>
        <time>2015-05-06T09:40:41.000Z</time>
      </trkpt>
      <trkpt lat="43.45818" lon="1.85331">
        <ele>265.2</ele>
        <time>2015-05-06T09:40:50.000Z</time>
      </trkpt>
      <trkpt lat="43.45814" lon="1.85343">
        <ele>265.4</ele>
        <time>2015-05-06T09:40:59.000Z</time>
      </trkpt>
      <trkpt lat="43.45812" lon="1.85356">
        <ele>265.6</ele>
        <time>2015-05-06T09:41:8.000Z</time>
      </trkpt>
      <trkpt lat="43.45808" lon="1.85369">
        <ele>266.2</ele>
        <time>2015-05-06T09:41:17.000Z</time>
      </trkpt>
      <trkpt lat="43.45806" lon="1.85382">
        <ele>267</ele>
        <time>2015-05-06T09:41:27.000Z</time>
      </trkpt>
      <trkpt lat="43.45802" lon="1.85394">
        <ele>267.7</ele>
        <time>2015-05-06T09:41:36.000Z</time>
      </trkpt>
      <trkpt lat="43.458" lon="1.85406">
        <ele>268.6</ele>
        <time>2015-05-06T09:41:45.000Z</time>
      </trkpt>
      <trkpt lat="43.45798" lon="1.85418">
        <ele>270</ele>
        <time>2015-05-06T09:41:56.000Z</time>
      </trkpt>
      <trkpt lat="43.45795" lon="1.85431">
        <ele>271</ele>
        <time>2015-05-06T09:42:5.000Z</time>
      </trkpt>
      <trkpt lat="43.45794" lon="1.85444">
        <ele>272</ele>
        <time>2015-05-06T09:42:16.000Z</time>
      </trkpt>
      <trkpt lat="43.4579" lon="1.85456">
        <ele>272.9</ele>
        <time>2015-05-06T09:42:25.000Z</time>
      </trkpt>
      <trkpt lat="43.45789" lon="1.8547">
        <ele>273.6</ele>
        <time>2015-05-06T09:42:36.000Z</time>
      </trkpt>
      <trkpt lat="43.45786" lon="1.85482">
        <ele>273.9</ele>
        <time>2015-05-06T09:42:45.000Z</time>
      </trkpt>
      <trkpt lat="43.45782" lon="1.85494">
        <ele>274</ele>
        <time>2015-05-06T09:42:53.000Z</time>
      </trkpt>
      <trkpt lat="43.45777" lon="1.85506">
        <ele>274.1</ele>
        <time>2015-05-06T09:43:2.000Z</time>
      </trkpt>
      <trkpt lat="43.45773" lon="1.85517">
        <ele>274.3</ele>
        <time>2015-05-06T09:43:10.000Z</time>
      </trkpt>
      <trkpt lat="43.45768" lon="1.85527">
        <ele>274.4</ele>
        <time>2015-05-06T09:43:18.000Z</time>
      </trkpt>
      <trkpt lat="43.45762" lon="1.85537">
        <ele>274.5</ele>
        <time>2015-05-06T09:43:26.000Z</time>
      </trkpt>
      <trkpt lat="43.45757" lon="1.85549">
        <ele>274.4</ele>
        <time>2015-05-06T09:43:35.000Z</time>
      </trkpt>
      <trkpt lat="43.45751" lon="1.85559">
        <ele>274.3</ele>
        <time>2015-05-06T09:43:43.000Z</time>
      </trkpt>
      <trkpt lat="43.45745" lon="1.85569">
        <ele>274.3</ele>
        <time>2015-05-06T09:43:52.000Z</time>
      </trkpt>
      <trkpt lat="43.45739" lon="1.85579">
        <ele>274.3</ele>
        <time>2015-05-06T09:44:0.000Z</time>
      </trkpt>
      <trkpt lat="43.45733" lon="1.85589">
        <ele>274.1</ele>
        <time>2015-05-06T09:44:9.000Z</time>
      </trkpt>
      <trkpt lat="43.45726" lon="1.85598">
        <ele>273.7</ele>
        <time>2015-05-06T09:44:18.000Z</time>
      </trkpt>
      <trkpt lat="43.45719" lon="1.85606">
        <ele>273.6</ele>
        <time>2015-05-06T09:44:26.000Z</time>
      </trkpt>
      <trkpt lat="43.45713" lon="1.85616">
        <ele>273.2</ele>
        <time>2015-05-06T09:44:35.000Z</time>
      </trkpt>
      <trkpt lat="43.45707" lon="1.85626">
        <ele>272.8</ele>
        <time>2015-05-06T09:44:42.000Z</time>
      </trkpt>
      <trkpt lat="43.45702" lon="1.85637">
        <ele>272.3</ele>
        <time>2015-05-06T09:44:50.000Z</time>
      </trkpt>
      <trkpt lat="43.45697" lon="1.85648">
        <ele>272</ele>
        <time>2015-05-06T09:44:57.000Z</time>
      </trkpt>
      <trkpt lat="43.45694" lon="1.85661">
        <ele>271.4</ele>
        <time>2015-05-06T09:45:7.000Z</time>
      </trkpt>
      <trkpt lat="43.45689" lon="1.85671">
        <ele>271</ele>
        <time>2015-05-06T09:45:14.000Z</time>
      </trkpt>
      <trkpt lat="43.45685" lon="1.85683">
        <ele>270.4</ele>
        <time>2015-05-06T09:45:24.000Z</time>
      </trkpt>
      <trkpt lat="43.4568" lon="1.85694">
        <ele>269.8</ele>
        <time>2015-05-06T09:45:33.000Z</time>
      </trkpt>
      <trkpt lat="43.45675" lon="1.85705">
        <ele>269.4</ele>
        <time>2015-05-06T09:45:41.000Z</time>
      </trkpt>
      <trkpt lat="43.45672" lon="1.85717">
        <ele>268.7</ele>
        <time>2015-05-06T09:45:49.000Z</time>
      </trkpt>
      <trkpt lat="43.4567" lon="1.8573">
        <ele>267.8</ele>
        <time>2015-05-06T09:45:58.000Z</time>
      </trkpt>
      <trkpt lat="43.45668" lon="1.85742">
        <ele>267.1</ele>
        <time>2015-05-06T09:46:7.000Z</time>
      </trkpt>
      <trkpt lat="43.45664" lon="1.85755">
        <ele>266.2</ele>
        <time>2015-05-06T09:46:16.000Z</time>
      </trkpt>
      <trkpt lat="43.45662" lon="1.85768">
        <ele>265.4</ele>
        <time>2015-05-06T09:46:25.000Z</time>
      </trkpt>
      <trkpt lat="43.4566" lon="1.85781">
        <ele>264.7</ele>
        <time>2015-05-06T09:46:33.000Z</time>
      </trkpt>
      <trkpt lat="43.45658" lon="1.85793">
        <ele>263.9</ele>
        <time>2015-05-06T09:46:41.000Z</time>
      </trkpt>
      <trkpt lat="43.45655" lon="1.85806">
        <ele>262.9</ele>
        <time>2015-05-06T09:46:51.000Z</time>
      </trkpt>
      <trkpt lat="43.45652" lon="1.85819">
        <ele>262</ele>
        <time>2015-05-06T09:46:59.000Z</time>
      </trkpt>
      <trkpt lat="43.4565" lon="1.85831">
        <ele>261</ele>
        <time>2015-05-06T09:47:9.000Z</time>
      </trkpt>
      <trkpt lat="43.45649" lon="1.85843">
        <ele>260.1</ele>
        <time>2015-05-06T09:47:18.000Z</time>
      </trkpt>
      <trkpt lat="43.45647" lon="1.85857">
        <ele>258.9</ele>
        <time>2015-05-06T09:47:29.000Z</time>
      </trkpt>
      <trkpt lat="43.45645" lon="1.85869">
        <ele>258</ele>
        <time>2015-05-06T09:47:36.000Z</time>
      </trkpt>
      <trkpt lat="43.45642" lon="1.85882">
        <ele>257</ele>
        <time>2015-05-06T09:47:44.000Z</time>
      </trkpt>
      <trkpt lat="43.4564" lon="1.85895">
        <ele>255.6</ele>
        <time>2015-05-06T09:47:55.000Z</time>
      </trkpt>
      <trkpt lat="43.45637" lon="1.85909">
        <ele>254.4</ele>
        <time>2015-05-06T09:48:3.000Z</time>
      </trkpt>
      <trkpt lat="43.45633" lon="1.85921">
        <ele>253.4</ele>
        <time>2015-05-06T09:48:11.000Z</time>
      </trkpt>
      <trkpt lat="43.45629" lon="1.85932">
        <ele>252.1</ele>
        <time>2015-05-06T09:48:20.000Z</time>
      </trkpt>
      <trkpt lat="43.45626" lon="1.85944">
        <ele>250.9</ele>
        <time>2015-05-06T09:48:29.000Z</time>
      </trkpt>
      <trkpt lat="43.45623" lon="1.85956">
        <ele>249.5</ele>
        <time>2015-05-06T09:48:39.000Z</time>
      </trkpt>
      <trkpt lat="43.45619" lon="1.85968">
        <ele>248.2</ele>
        <time>2015-05-06T09:48:48.000Z</time>
      </trkpt>
      <trkpt lat="43.45614" lon="1.85979">
        <ele>246.8</ele>
        <time>2015-05-06T09:48:58.000Z</time>
      </trkpt>
      <trkpt lat="43.45609" lon="1.85991">
        <ele>245.6</ele>
        <time>2015-05-06T09:49:7.000Z</time>
      </trkpt>
      <trkpt lat="43.45603" lon="1.86001">
        <ele>244.8</ele>
        <time>2015-05-06T09:49:15.000Z</time>
      </trkpt>
      <trkpt lat="43.45598" lon="1.86011">
        <ele>244.1</ele>
        <time>2015-05-06T09:49:25.000Z</time>
      </trkpt>
      <trkpt lat="43.45592" lon="1.86021">
        <ele>243.3</ele>
        <time>2015-05-06T09:49:35.000Z</time>
      </trkpt>
      <trkpt lat="43.45586" lon="1.8603">
        <ele>242.5</ele>
        <time>2015-05-06T09:49:48.000Z</time>
      </trkpt>
      <trkpt lat="43.4558" lon="1.86041">
        <ele>242</ele>
        <time>2015-05-06T09:49:55.000Z</time>
      </trkpt>
      <trkpt lat="43.45573" lon="1.86051">
        <ele>241.7</ele>
        <time>2015-05-06T09:50:2.000Z</time>
      </trkpt>
      <trkpt lat="43.45567" lon="1.86061">
        <ele>241.3</ele>
        <time>2015-05-06T09:50:9.000Z</time>
      </trkpt>
      <trkpt lat="43.45561" lon="1.86071">
        <ele>240.7</ele>
        <time>2015-05-06T09:50:17.000Z</time>
      </trkpt>
      <trkpt lat="43.45555" lon="1.86083">
        <ele>240.2</ele>
        <time>2015-05-06T09:50:25.000Z</time>
      </trkpt>
      <trkpt lat="43.45549" lon="1.86094">
        <ele>239.8</ele>
        <time>2015-05-06T09:50:33.000Z</time>
      </trkpt>
      <trkpt lat="43.45544" lon="1.86106">
        <ele>239.5</ele>
        <time>2015-05-06T09:50:41.000Z</time>
      </trkpt>
      <trkpt lat="43.45539" lon="1.86117">
        <ele>239.3</ele>
        <time>2015-05-06T09:50:48.000Z</time>
      </trkpt>
      <trkpt lat="43.45534" lon="1.86128">
        <ele>239.4</ele>
        <time>2015-05-06T09:50:57.000Z</time>
      </trkpt>
      <trkpt lat="43.45528" lon="1.8614">
        <ele>239.5</ele>
        <time>2015-05-06T09:51:6.000Z</time>
      </trkpt>
      <trkpt lat="43.45523" lon="1.86151">
        <ele>239.6</ele>
        <time>2015-05-06T09:51:13.000Z</time>
      </trkpt>
      <trkpt lat="43.45518" lon="1.86162">
        <ele>239.8</ele>
        <time>2015-05-06T09:51:22.000Z</time>
      </trkpt>
      <trkpt lat="43.45514" lon="1.86176">
        <ele>240</ele>
        <time>2015-05-06T09:51:30.000Z</time>
      </trkpt>
      <trkpt lat="43.45511" lon="1.86189">
        <ele>240.3</ele>
        <time>2015-05-06T09:51:38.000Z</time>
      </trkpt>
      <trkpt lat="43.45508" lon="1.86201">
        <ele>240.6</ele>
        <time>2015-05-06T09:51:46.000Z</time>
      </trkpt>
      <trkpt lat="43.45506" lon="1.86215">
        <ele>240.8</ele>
        <time>2015-05-06T09:51:55.000Z</time>
      </trkpt>
      <trkpt lat="43.45504" lon="1.86227">
        <ele>240.9</ele>
        <time>2015-05-06T09:52:2.000Z</time>
      </trkpt>
      <trkpt lat="43.45502" lon="1.8624">
        <ele>240.9</ele>
        <time>2015-05-06T09:52:10.000Z</time>
      </trkpt>
      <trkpt lat="43.45499" lon="1.86253">
        <ele>240.8</ele>
        <time>2015-05-06T09:52:19.000Z</time>
      </trkpt>
      <trkpt lat="43.45495" lon="1.86265">
        <ele>240.7</ele>
        <time>2015-05-06T09:52:27.000Z</time>
      </trkpt>
      <trkpt lat="43.4549" lon="1.86276">
        <ele>240.5</ele>
        <time>2015-05-06T09:52:34.000Z</time>
      </trkpt>
      <trkpt lat="43.45485" lon="1.86287">
        <ele>240.3</ele>
        <time>2015-05-06T09:52:43.000Z</time>
      </trkpt>
      <trkpt lat="43.4548" lon="1.86299">
        <ele>240.2</ele>
        <time>2015-05-06T09:52:51.000Z</time>
      </trkpt>
      <trkpt lat="43.45474" lon="1.86308">
        <ele>240</ele>
        <time>2015-05-06T09:52:59.000Z</time>
      </trkpt>
      <trkpt lat="43.45468" lon="1.86319">
        <ele>240.2</ele>
        <time>2015-05-06T09:53:7.000Z</time>
      </trkpt>
      <trkpt lat="43.45463" lon="1.8633">
        <ele>240.4</ele>
        <time>2015-05-06T09:53:15.000Z</time>
      </trkpt>
      <trkpt lat="43.45457" lon="1.8634">
        <ele>240.6</ele>
        <time>2015-05-06T09:53:23.000Z</time>
      </trkpt>
      <trkpt lat="43.45452" lon="1.86351">
        <ele>240.8</ele>
        <time>2015-05-06T09:53:31.000Z</time>
      </trkpt>
      <trkpt lat="43.45448" lon="1.86362">
        <ele>241.1</ele>
        <time>2015-05-06T09:53:39.000Z</time>
      </trkpt>
      <trkpt lat="43.45443" lon="1.86373">
        <ele>241.3</ele>
        <time>2015-05-06T09:53:47.000Z</time>
      </trkpt>
      <trkpt lat="43.45439" lon="1.86385">
        <ele>241.6</ele>
        <time>2015-05-06T09:53:55.000Z</time>
      </trkpt>
      <trkpt lat="43.45436" lon="1.86397">
        <ele>241.8</ele>
        <time>2015-05-06T09:54:3.000Z</time>
      </trkpt>
      <trkpt lat="43.45432" lon="1.86409">
        <ele>241.9</ele>
        <time>2015-05-06T09:54:12.000Z</time>
      </trkpt>
      <trkpt lat="43.45427" lon="1.86422">
        <ele>242.1</ele>
        <time>2015-05-06T09:54:20.000Z</time>
      </trkpt>
      <trkpt lat="43.45422" lon="1.86433">
        <ele>242.2</ele>
        <time>2015-05-06T09:54:29.000Z</time>
      </trkpt>
      <trkpt lat="43.45418" lon="1.86445">
        <ele>242.3</ele>
        <time>2015-05-06T09:54:37.000Z</time>
      </trkpt>
      <trkpt lat="43.45414" lon="1.86456">
        <ele>242.4</ele>
        <time>2015-05-06T09:54:45.000Z</time>
      </trkpt>
      <trkpt lat="43.4541" lon="1.86467">
        <ele>242.7</ele>
        <time>2015-05-06T09:54:53.000Z</time>
      </trkpt>
      <trkpt lat="43.45406" lon="1.86479">
        <ele>242.9</ele>
        <time>2015-05-06T09:55:1.000Z</time>
      </trkpt>
      <trkpt lat="43.45402" lon="1.86492">
        <ele>243.1</ele>
        <time>2015-05-06T09:55:9.000Z</time>
      </trkpt>
      <trkpt lat="43.454" lon="1.86504">
        <ele>243.2</ele>
        <time>2015-05-06T09:55:17.000Z</time>
      </trkpt>
      <trkpt lat="43.45396" lon="1.86516">
        <ele>243.3</ele>
        <time>2015-05-06T09:55:25.000Z</time>
      </trkpt>
      <trkpt lat="43.45392" lon="1.86528">
        <ele>243.4</ele>
        <time>2015-05-06T09:55:33.000Z</time>
      </trkpt>
      <trkpt lat="43.45387" lon="1.86539">
        <ele>243.5</ele>
        <time>2015-05-06T09:55:41.000Z</time>
      </trkpt>
      <trkpt lat="43.45382" lon="1.8655">
        <ele>243.9</ele>
        <time>2015-05-06T09:55:49.000Z</time>
      </trkpt>
      <trkpt lat="43.45376" lon="1.8656">
        <ele>244</ele>
        <time>2015-05-06T09:55:57.000Z</time>
      </trkpt>
      <trkpt lat="43.45371" lon="1.86572">
        <ele>244.2</ele>
        <time>2015-05-06T09:56:5.000Z</time>
      </trkpt>
      <trkpt lat="43.45365" lon="1.86582">
        <ele>244.3</ele>
        <time>2015-05-06T09:56:13.000Z</time>
      </trkpt>
      <trkpt lat="43.4536" lon="1.86593">
        <ele>244.5</ele>
        <time>2015-05-06T09:56:22.000Z</time>
      </trkpt>
      <trkpt lat="43.45354" lon="1.86604">
        <ele>244.9</ele>
        <time>2015-05-06T09:56:30.000Z</time>
      </trkpt>
      <trkpt lat="43.45349" lon="1.86615">
        <ele>245.2</ele>
        <time>2015-05-06T09:56:39.000Z</time>
      </trkpt>
      <trkpt lat="43.45344" lon="1.86626">
        <ele>245.6</ele>
        <time>2015-05-06T09:56:47.000Z</time>
      </trkpt>
      <trkpt lat="43.4534" lon="1.86638">
        <ele>246</ele>
        <time>2015-05-06T09:56:55.000Z</time>
      </trkpt>
      <trkpt lat="43.45337" lon="1.86649">
        <ele>246.2</ele>
        <time>2015-05-06T09:57:3.000Z</time>
      </trkpt>
      <trkpt lat="43.45332" lon="1.86662">
        <ele>246.5</ele>
        <time>2015-05-06T09:57:12.000Z</time>
      </trkpt>
      <trkpt lat="43.45328" lon="1.86674">
        <ele>247.1</ele>
        <time>2015-05-06T09:57:21.000Z</time>
      </trkpt>
      <trkpt lat="43.45324" lon="1.86686">
        <ele>247.6</ele>
        <time>2015-05-06T09:57:31.000Z</time>
      </trkpt>
      <trkpt lat="43.45321" lon="1.86699">
        <ele>248.3</ele>
        <time>2015-05-06T09:57:41.000Z</time>
      </trkpt>
      <trkpt lat="43.45317" lon="1.86712">
        <ele>249.2</ele>
        <time>2015-05-06T09:57:50.000Z</time>
      </trkpt>
      <trkpt lat="43.45314" lon="1.86724">
        <ele>249.8</ele>
        <time>2015-05-06T09:57:58.000Z</time>
      </trkpt>
      <trkpt lat="43.45311" lon="1.86736">
        <ele>250.5</ele>
        <time>2015-05-06T09:58:6.000Z</time>
      </trkpt>
      <trkpt lat="43.45307" lon="1.86748">
        <ele>250.9</ele>
        <time>2015-05-06T09:58:14.000Z</time>
      </trkpt>
      <trkpt lat="43.45303" lon="1.86759">
        <ele>251.3</ele>
        <time>2015-05-06T09:58:22.000Z</time>
      </trkpt>
      <trkpt lat="43.453" lon="1.86772">
        <ele>251.5</ele>
        <time>2015-05-06T09:58:31.000Z</time>
      </trkpt>
      <trkpt lat="43.45296" lon="1.86784">
        <ele>251.8</ele>
        <time>2015-05-06T09:58:40.000Z</time>
      </trkpt>
      <trkpt lat="43.45292" lon="1.86797">
        <ele>252.2</ele>
        <time>2015-05-06T09:58:49.000Z</time>
      </trkpt>
      <trkpt lat="43.45288" lon="1.86808">
        <ele>252.3</ele>
        <time>2015-05-06T09:58:57.000Z</time>
      </trkpt>
      <trkpt lat="43.45285" lon="1.8682">
        <ele>252.4</ele>
        <time>2015-05-06T09:59:5.000Z</time>
      </trkpt>
      <trkpt lat="43.45281" lon="1.86832">
        <ele>252.5</ele>
        <time>2015-05-06T09:59:13.000Z</time>
      </trkpt>
      <trkpt lat="43.45277" lon="1.86844">
        <ele>252.6</ele>
        <time>2015-05-06T09:59:21.000Z</time>
      </trkpt>
      <trkpt lat="43.45274" lon="1.86855">
        <ele>252.5</ele>
        <time>2015-05-06T09:59:29.000Z</time>
      </trkpt>
      <trkpt lat="43.45269" lon="1.86868">
        <ele>252.4</ele>
        <time>2015-05-06T09:59:38.000Z</time>
      </trkpt>
      <trkpt lat="43.45266" lon="1.86881">
        <ele>252.1</ele>
        <time>2015-05-06T09:59:47.000Z</time>
      </trkpt>
      <trkpt lat="43.45262" lon="1.86894">
        <ele>251.9</ele>
        <time>2015-05-06T09:59:56.000Z</time>
      </trkpt>
      <trkpt lat="43.45259" lon="1.86905">
        <ele>251.7</ele>
        <time>2015-05-06T10:00:4.000Z</time>
      </trkpt>
      <trkpt lat="43.45255" lon="1.86917">
        <ele>251.5</ele>
        <time>2015-05-06T10:00:12.000Z</time>
      </trkpt>
      <trkpt lat="43.45247" lon="1.86925">
        <ele>251</ele>
        <time>2015-05-06T10:00:25.000Z</time>
      </trkpt>
      <trkpt lat="43.45248" lon="1.86938">
        <ele>250.6</ele>
        <time>2015-05-06T10:01:56.000Z</time>
      </trkpt>
      <trkpt lat="43.45249" lon="1.8695">
        <ele>250.6</ele>
        <time>2015-05-06T10:02:4.000Z</time>
      </trkpt>
      <trkpt lat="43.45247" lon="1.86963">
        <ele>250.7</ele>
        <time>2015-05-06T10:02:12.000Z</time>
      </trkpt>
      <trkpt lat="43.45245" lon="1.86976">
        <ele>250.7</ele>
        <time>2015-05-06T10:02:20.000Z</time>
      </trkpt>
      <trkpt lat="43.45243" lon="1.86989">
        <ele>250.8</ele>
        <time>2015-05-06T10:02:28.000Z</time>
      </trkpt>
      <trkpt lat="43.4524" lon="1.87001">
        <ele>251.1</ele>
        <time>2015-05-06T10:02:36.000Z</time>
      </trkpt>
      <trkpt lat="43.45238" lon="1.87013">
        <ele>251.3</ele>
        <time>2015-05-06T10:02:44.000Z</time>
      </trkpt>
      <trkpt lat="43.45235" lon="1.87025">
        <ele>251.5</ele>
        <time>2015-05-06T10:02:52.000Z</time>
      </trkpt>
      <trkpt lat="43.45232" lon="1.87037">
        <ele>251.6</ele>
        <time>2015-05-06T10:03:0.000Z</time>
      </trkpt>
      <trkpt lat="43.4523" lon="1.8705">
        <ele>251.8</ele>
        <time>2015-05-06T10:03:8.000Z</time>
      </trkpt>
      <trkpt lat="43.45226" lon="1.87062">
        <ele>252.2</ele>
        <time>2015-05-06T10:03:16.000Z</time>
      </trkpt>
      <trkpt lat="43.45224" lon="1.87074">
        <ele>252.5</ele>
        <time>2015-05-06T10:03:24.000Z</time>
      </trkpt>
      <trkpt lat="43.45221" lon="1.87087">
        <ele>252.6</ele>
        <time>2015-05-06T10:03:32.000Z</time>
      </trkpt>
      <trkpt lat="43.45218" lon="1.87099">
        <ele>252.8</ele>
        <time>2015-05-06T10:03:40.000Z</time>
      </trkpt>
      <trkpt lat="43.45215" lon="1.87111">
        <ele>252.9</ele>
        <time>2015-05-06T10:03:48.000Z</time>
      </trkpt>
      <trkpt lat="43.45213" lon="1.87124">
        <ele>253.1</ele>
        <time>2015-05-06T10:03:56.000Z</time>
      </trkpt>
      <trkpt lat="43.45209" lon="1.87136">
        <ele>253.4</ele>
        <time>2015-05-06T10:04:4.000Z</time>
      </trkpt>
      <trkpt lat="43.45207" lon="1.87148">
        <ele>253.6</ele>
        <time>2015-05-06T10:04:12.000Z</time>
      </trkpt>
      <trkpt lat="43.45204" lon="1.8716">
        <ele>253.8</ele>
        <time>2015-05-06T10:04:20.000Z</time>
      </trkpt>
      <trkpt lat="43.45201" lon="1.87173">
        <ele>253.9</ele>
        <time>2015-05-06T10:04:28.000Z</time>
      </trkpt>
      <trkpt lat="43.45198" lon="1.87186">
        <ele>254</ele>
        <time>2015-05-06T10:04:36.000Z</time>
      </trkpt>
      <trkpt lat="43.45195" lon="1.87198">
        <ele>254.1</ele>
        <time>2015-05-06T10:04:44.000Z</time>
      </trkpt>
      <trkpt lat="43.45192" lon="1.87211">
        <ele>254.2</ele>
        <time>2015-05-06T10:04:52.000Z</time>
      </trkpt>
      <trkpt lat="43.45189" lon="1.87223">
        <ele>254.5</ele>
        <time>2015-05-06T10:05:0.000Z</time>
      </trkpt>
      <trkpt lat="43.45186" lon="1.87236">
        <ele>254.5</ele>
        <time>2015-05-06T10:05:9.000Z</time>
      </trkpt>
      <trkpt lat="43.45183" lon="1.87249">
        <ele>254.5</ele>
        <time>2015-05-06T10:05:17.000Z</time>
      </trkpt>
      <trkpt lat="43.4518" lon="1.87261">
        <ele>254.6</ele>
        <time>2015-05-06T10:05:25.000Z</time>
      </trkpt>
      <trkpt lat="43.45177" lon="1.87274">
        <ele>254.7</ele>
        <time>2015-05-06T10:05:33.000Z</time>
      </trkpt>
      <trkpt lat="43.45174" lon="1.87287">
        <ele>255.2</ele>
        <time>2015-05-06T10:05:41.000Z</time>
      </trkpt>
      <trkpt lat="43.4517" lon="1.87299">
        <ele>255.2</ele>
        <time>2015-05-06T10:05:49.000Z</time>
      </trkpt>
      <trkpt lat="43.45167" lon="1.87311">
        <ele>255.3</ele>
        <time>2015-05-06T10:05:57.000Z</time>
      </trkpt>
      <trkpt lat="43.45164" lon="1.87323">
        <ele>255.4</ele>
        <time>2015-05-06T10:06:5.000Z</time>
      </trkpt>
      <trkpt lat="43.45161" lon="1.87337">
        <ele>255.5</ele>
        <time>2015-05-06T10:06:13.000Z</time>
      </trkpt>
      <trkpt lat="43.45157" lon="1.8735">
        <ele>255.5</ele>
        <time>2015-05-06T10:06:21.000Z</time>
      </trkpt>
      <trkpt lat="43.45154" lon="1.87362">
        <ele>255.7</ele>
        <time>2015-05-06T10:06:29.000Z</time>
      </trkpt>
      <trkpt lat="43.4515" lon="1.87374">
        <ele>256</ele>
        <time>2015-05-06T10:06:37.000Z</time>
      </trkpt>
      <trkpt lat="43.45147" lon="1.87386">
        <ele>256.2</ele>
        <time>2015-05-06T10:06:45.000Z</time>
      </trkpt>
      <trkpt lat="43.45143" lon="1.87399">
        <ele>256.4</ele>
        <time>2015-05-06T10:06:53.000Z</time>
      </trkpt>
      <trkpt lat="43.4514" lon="1.87411">
        <ele>256.5</ele>
        <time>2015-05-06T10:07:0.000Z</time>
      </trkpt>
      <trkpt lat="43.45135" lon="1.87424">
        <ele>256.8</ele>
        <time>2015-05-06T10:07:7.000Z</time>
      </trkpt>
      <trkpt lat="43.45131" lon="1.87435">
        <ele>257.1</ele>
        <time>2015-05-06T10:07:13.000Z</time>
      </trkpt>
      <trkpt lat="43.45127" lon="1.87447">
        <ele>257.2</ele>
        <time>2015-05-06T10:07:20.000Z</time>
      </trkpt>
      <trkpt lat="43.45121" lon="1.87458">
        <ele>257.3</ele>
        <time>2015-05-06T10:07:28.000Z</time>
      </trkpt>
      <trkpt lat="43.45116" lon="1.87468">
        <ele>257.5</ele>
        <time>2015-05-06T10:07:34.000Z</time>
      </trkpt>
      <trkpt lat="43.4511" lon="1.87479">
        <ele>257.6</ele>
        <time>2015-05-06T10:07:41.000Z</time>
      </trkpt>
      <trkpt lat="43.45104" lon="1.87489">
        <ele>257.7</ele>
        <time>2015-05-06T10:07:48.000Z</time>
      </trkpt>
      <trkpt lat="43.45097" lon="1.875">
        <ele>257.9</ele>
        <time>2015-05-06T10:07:55.000Z</time>
      </trkpt>
      <trkpt lat="43.45091" lon="1.87509">
        <ele>258.1</ele>
        <time>2015-05-06T10:08:1.000Z</time>
      </trkpt>
      <trkpt lat="43.45085" lon="1.8752">
        <ele>258.4</ele>
        <time>2015-05-06T10:08:8.000Z</time>
      </trkpt>
      <trkpt lat="43.45079" lon="1.87529">
        <ele>258.6</ele>
        <time>2015-05-06T10:08:15.000Z</time>
      </trkpt>
      <trkpt lat="43.45073" lon="1.8754">
        <ele>258.8</ele>
        <time>2015-05-06T10:08:22.000Z</time>
      </trkpt>
      <trkpt lat="43.45066" lon="1.87551">
        <ele>259.1</ele>
        <time>2015-05-06T10:08:29.000Z</time>
      </trkpt>
      <trkpt lat="43.4506" lon="1.87562">
        <ele>259.5</ele>
        <time>2015-05-06T10:08:36.000Z</time>
      </trkpt>
      <trkpt lat="43.45055" lon="1.87573">
        <ele>259.8</ele>
        <time>2015-05-06T10:08:43.000Z</time>
      </trkpt>
      <trkpt lat="43.4505" lon="1.87584">
        <ele>260</ele>
        <time>2015-05-06T10:08:51.000Z</time>
      </trkpt>
      <trkpt lat="43.45045" lon="1.87597">
        <ele>260.2</ele>
        <time>2015-05-06T10:08:59.000Z</time>
      </trkpt>
      <trkpt lat="43.4504" lon="1.87608">
        <ele>260.3</ele>
        <time>2015-05-06T10:09:6.000Z</time>
      </trkpt>
      <trkpt lat="43.45036" lon="1.87619">
        <ele>260.4</ele>
        <time>2015-05-06T10:09:13.000Z</time>
      </trkpt>
      <trkpt lat="43.45031" lon="1.87631">
        <ele>260.5</ele>
        <time>2015-05-06T10:09:20.000Z</time>
      </trkpt>
      <trkpt lat="43.45027" lon="1.87642">
        <ele>260.7</ele>
        <time>2015-05-06T10:09:29.000Z</time>
      </trkpt>
      <trkpt lat="43.45027" lon="1.87655">
        <ele>260.9</ele>
        <time>2015-05-06T10:10:10.000Z</time>
      </trkpt>
      <trkpt lat="43.45026" lon="1.87668">
        <ele>260.9</ele>
        <time>2015-05-06T10:10:23.000Z</time>
      </trkpt>
      <trkpt lat="43.45026" lon="1.87682">
        <ele>261.2</ele>
        <time>2015-05-06T10:10:32.000Z</time>
      </trkpt>
      <trkpt lat="43.45027" lon="1.87695">
        <ele>261.5</ele>
        <time>2015-05-06T10:10:40.000Z</time>
      </trkpt>
      <trkpt lat="43.45028" lon="1.87707">
        <ele>261.7</ele>
        <time>2015-05-06T10:10:48.000Z</time>
      </trkpt>
      <trkpt lat="43.4503" lon="1.87721">
        <ele>262</ele>
        <time>2015-05-06T10:10:57.000Z</time>
      </trkpt>
      <trkpt lat="43.45031" lon="1.87733">
        <ele>262.2</ele>
        <time>2015-05-06T10:11:5.000Z</time>
      </trkpt>
      <trkpt lat="43.45032" lon="1.87746">
        <ele>262.5</ele>
        <time>2015-05-06T10:11:12.000Z</time>
      </trkpt>
      <trkpt lat="43.45034" lon="1.87759">
        <ele>263.2</ele>
        <time>2015-05-06T10:11:21.000Z</time>
      </trkpt>
      <trkpt lat="43.45035" lon="1.87772">
        <ele>263.9</ele>
        <time>2015-05-06T10:11:30.000Z</time>
      </trkpt>
      <trkpt lat="43.45036" lon="1.87785">
        <ele>264.3</ele>
        <time>2015-05-06T10:11:39.000Z</time>
      </trkpt>
      <trkpt lat="43.45038" lon="1.87797">
        <ele>265.2</ele>
        <time>2015-05-06T10:11:48.000Z</time>
      </trkpt>
      <trkpt lat="43.45039" lon="1.8781">
        <ele>266.2</ele>
        <time>2015-05-06T10:11:58.000Z</time>
      </trkpt>
      <trkpt lat="43.45042" lon="1.87823">
        <ele>267.3</ele>
        <time>2015-05-06T10:12:8.000Z</time>
      </trkpt>
      <trkpt lat="43.45044" lon="1.87836">
        <ele>268.6</ele>
        <time>2015-05-06T10:12:19.000Z</time>
      </trkpt>
      <trkpt lat="43.45046" lon="1.87849">
        <ele>269.9</ele>
        <time>2015-05-06T10:12:28.000Z</time>
      </trkpt>
      <trkpt lat="43.45048" lon="1.87862">
        <ele>271.1</ele>
        <time>2015-05-06T10:12:37.000Z</time>
      </trkpt>
      <trkpt lat="43.4505" lon="1.87875">
        <ele>272.2</ele>
        <time>2015-05-06T10:12:47.000Z</time>
      </trkpt>
      <trkpt lat="43.4505" lon="1.87888">
        <ele>273.4</ele>
        <time>2015-05-06T10:12:58.000Z</time>
      </trkpt>
      <trkpt lat="43.45048" lon="1.87901">
        <ele>274.4</ele>
        <time>2015-05-06T10:13:8.000Z</time>
      </trkpt>
      <trkpt lat="43.45045" lon="1.87912">
        <ele>275.8</ele>
        <time>2015-05-06T10:13:18.000Z</time>
      </trkpt>
      <trkpt lat="43.45043" lon="1.87925">
        <ele>276.9</ele>
        <time>2015-05-06T10:13:27.000Z</time>
      </trkpt>
      <trkpt lat="43.45042" lon="1.87938">
        <ele>278.2</ele>
        <time>2015-05-06T10:13:36.000Z</time>
      </trkpt>
      <trkpt lat="43.4504" lon="1.87952">
        <ele>279.8</ele>
        <time>2015-05-06T10:13:46.000Z</time>
      </trkpt>
      <trkpt lat="43.45038" lon="1.87965">
        <ele>281.4</ele>
        <time>2015-05-06T10:13:55.000Z</time>
      </trkpt>
      <trkpt lat="43.45036" lon="1.87977">
        <ele>282.8</ele>
        <time>2015-05-06T10:14:3.000Z</time>
      </trkpt>
      <trkpt lat="43.45035" lon="1.8799">
        <ele>284.4</ele>
        <time>2015-05-06T10:14:11.000Z</time>
      </trkpt>
      <trkpt lat="43.45034" lon="1.88002">
        <ele>285.7</ele>
        <time>2015-05-06T10:14:18.000Z</time>
      </trkpt>
      <trkpt lat="43.45033" lon="1.88015">
        <ele>287.2</ele>
        <time>2015-05-06T10:14:26.000Z</time>
      </trkpt>
      <trkpt lat="43.45031" lon="1.88029">
        <ele>288.5</ele>
        <time>2015-05-06T10:14:34.000Z</time>
      </trkpt>
      <trkpt lat="43.45029" lon="1.88042">
        <ele>289.8</ele>
        <time>2015-05-06T10:14:42.000Z</time>
      </trkpt>
      <trkpt lat="43.45027" lon="1.88056">
        <ele>291.1</ele>
        <time>2015-05-06T10:14:50.000Z</time>
      </trkpt>
      <trkpt lat="43.45026" lon="1.88068">
        <ele>292.1</ele>
        <time>2015-05-06T10:14:57.000Z</time>
      </trkpt>
      <trkpt lat="43.45026" lon="1.88082">
        <ele>293.4</ele>
        <time>2015-05-06T10:15:5.000Z</time>
      </trkpt>
      <trkpt lat="43.45025" lon="1.88097">
        <ele>294.3</ele>
        <time>2015-05-06T10:15:12.000Z</time>
      </trkpt>
      <trkpt lat="43.45023" lon="1.8811">
        <ele>295.3</ele>
        <time>2015-05-06T10:15:19.000Z</time>
      </trkpt>
      <trkpt lat="43.4502" lon="1.88124">
        <ele>296.6</ele>
        <time>2015-05-06T10:15:25.000Z</time>
      </trkpt>
      <trkpt lat="43.45016" lon="1.88136">
        <ele>297.9</ele>
        <time>2015-05-06T10:15:31.000Z</time>
      </trkpt>
      <trkpt lat="43.45015" lon="1.88149">
        <ele>298.8</ele>
        <time>2015-05-06T10:15:38.000Z</time>
      </trkpt>
      <trkpt lat="43.45015" lon="1.88163">
        <ele>299.7</ele>
        <time>2015-05-06T10:15:45.000Z</time>
      </trkpt>
      <trkpt lat="43.45013" lon="1.88175">
        <ele>300.9</ele>
        <time>2015-05-06T10:15:51.000Z</time>
      </trkpt>
      <trkpt lat="43.4501" lon="1.88188">
        <ele>302.1</ele>
        <time>2015-05-06T10:15:57.000Z</time>
      </trkpt>
      <trkpt lat="43.45007" lon="1.882">
        <ele>302.8</ele>
        <time>2015-05-06T10:16:3.000Z</time>
      </trkpt>
      <trkpt lat="43.45004" lon="1.88212">
        <ele>303.7</ele>
        <time>2015-05-06T10:16:9.000Z</time>
      </trkpt>
      <trkpt lat="43.45001" lon="1.88225">
        <ele>304.8</ele>
        <time>2015-05-06T10:16:15.000Z</time>
      </trkpt>
      <trkpt lat="43.44996" lon="1.88237">
        <ele>305.9</ele>
        <time>2015-05-06T10:16:21.000Z</time>
      </trkpt>
      <trkpt lat="43.44992" lon="1.88249">
        <ele>306.6</ele>
        <time>2015-05-06T10:16:26.000Z</time>
      </trkpt>
      <trkpt lat="43.44989" lon="1.8826">
        <ele>307.3</ele>
        <time>2015-05-06T10:16:32.000Z</time>
      </trkpt>
      <trkpt lat="43.44985" lon="1.88272">
        <ele>307.9</ele>
        <time>2015-05-06T10:16:38.000Z</time>
      </trkpt>
      <trkpt lat="43.44983" lon="1.88286">
        <ele>308.6</ele>
        <time>2015-05-06T10:16:45.000Z</time>
      </trkpt>
      <trkpt lat="43.44983" lon="1.88298">
        <ele>309.7</ele>
        <time>2015-05-06T10:16:51.000Z</time>
      </trkpt>
      <trkpt lat="43.44984" lon="1.88312">
        <ele>310.6</ele>
        <time>2015-05-06T10:16:58.000Z</time>
      </trkpt>
      <trkpt lat="43.44988" lon="1.88323">
        <ele>311.3</ele>
        <time>2015-05-06T10:17:4.000Z</time>
      </trkpt>
      <trkpt lat="43.4499" lon="1.88337">
        <ele>312.3</ele>
        <time>2015-05-06T10:17:12.000Z</time>
      </trkpt>
      <trkpt lat="43.44984" lon="1.88348">
        <ele>313.3</ele>
        <time>2015-05-06T10:17:21.000Z</time>
      </trkpt>
      <trkpt lat="43.44982" lon="1.8836">
        <ele>314.3</ele>
        <time>2015-05-06T10:17:30.000Z</time>
      </trkpt>
      <trkpt lat="43.44979" lon="1.88373">
        <ele>315</ele>
        <time>2015-05-06T10:17:37.000Z</time>
      </trkpt>
      <trkpt lat="43.44975" lon="1.88385">
        <ele>315.4</ele>
        <time>2015-05-06T10:17:45.000Z</time>
      </trkpt>
      <trkpt lat="43.44972" lon="1.88397">
        <ele>315.7</ele>
        <time>2015-05-06T10:17:51.000Z</time>
      </trkpt>
      <trkpt lat="43.44969" lon="1.8841">
        <ele>316.5</ele>
        <time>2015-05-06T10:18:0.000Z</time>
      </trkpt>
      <trkpt lat="43.44966" lon="1.88423">
        <ele>316.9</ele>
        <time>2015-05-06T10:18:8.000Z</time>
      </trkpt>
      <trkpt lat="43.44961" lon="1.88435">
        <ele>317.5</ele>
        <time>2015-05-06T10:18:16.000Z</time>
      </trkpt>
      <trkpt lat="43.44956" lon="1.88445">
        <ele>318</ele>
        <time>2015-05-06T10:18:24.000Z</time>
      </trkpt>
      <trkpt lat="43.44951" lon="1.88455">
        <ele>318.4</ele>
        <time>2015-05-06T10:18:34.000Z</time>
      </trkpt>
      <trkpt lat="43.44946" lon="1.88466">
        <ele>318.7</ele>
        <time>2015-05-06T10:18:43.000Z</time>
      </trkpt>
      <trkpt lat="43.44941" lon="1.88477">
        <ele>318.7</ele>
        <time>2015-05-06T10:18:51.000Z</time>
      </trkpt>
      <trkpt lat="43.44938" lon="1.88489">
        <ele>318.7</ele>
        <time>2015-05-06T10:19:0.000Z</time>
      </trkpt>
      <trkpt lat="43.44944" lon="1.88499">
        <ele>319.1</ele>
        <time>2015-05-06T10:19:10.000Z</time>
      </trkpt>
      <trkpt lat="43.44941" lon="1.88511">
        <ele>320.4</ele>
        <time>2015-05-06T10:19:21.000Z</time>
      </trkpt>
      <trkpt lat="43.44935" lon="1.8852">
        <ele>322.8</ele>
        <time>2015-05-06T10:19:51.000Z</time>
      </trkpt>
      <trkpt lat="43.44944" lon="1.88523">
        <ele>323.6</ele>
        <time>2015-05-06T10:23:30.000Z</time>
      </trkpt>
      <trkpt lat="43.44953" lon="1.88522">
        <ele>323.6</ele>
        <time>2015-05-06T10:23:36.000Z</time>
      </trkpt>
      <trkpt lat="43.44949" lon="1.88534">
        <ele>323.9</ele>
        <time>2015-05-06T10:23:47.000Z</time>
      </trkpt>
      <trkpt lat="43.44944" lon="1.88544">
        <ele>324.6</ele>
        <time>2015-05-06T10:23:59.000Z</time>
      </trkpt>
      <trkpt lat="43.4494" lon="1.88557">
        <ele>325.3</ele>
        <time>2015-05-06T10:24:14.000Z</time>
      </trkpt>
      <trkpt lat="43.44937" lon="1.88569">
        <ele>326</ele>
        <time>2015-05-06T10:24:25.000Z</time>
      </trkpt>
      <trkpt lat="43.44933" lon="1.88581">
        <ele>326.5</ele>
        <time>2015-05-06T10:24:35.000Z</time>
      </trkpt>
      <trkpt lat="43.44929" lon="1.88592">
        <ele>327</ele>
        <time>2015-05-06T10:24:44.000Z</time>
      </trkpt>
      <trkpt lat="43.44926" lon="1.88604">
        <ele>327.5</ele>
        <time>2015-05-06T10:24:56.000Z</time>
      </trkpt>
      <trkpt lat="43.44922" lon="1.88617">
        <ele>327.8</ele>
        <time>2015-05-06T10:25:6.000Z</time>
      </trkpt>
      <trkpt lat="43.44925" lon="1.88629">
        <ele>328.2</ele>
        <time>2015-05-06T10:25:17.000Z</time>
      </trkpt>
      <trkpt lat="43.44922" lon="1.88641">
        <ele>328.3</ele>
        <time>2015-05-06T10:25:26.000Z</time>
      </trkpt>
      <trkpt lat="43.44922" lon="1.88654">
        <ele>328.4</ele>
        <time>2015-05-06T10:25:33.000Z</time>
      </trkpt>
      <trkpt lat="43.44914" lon="1.88662">
        <ele>328.4</ele>
        <time>2015-05-06T10:25:42.000Z</time>
      </trkpt>
      <trkpt lat="43.44909" lon="1.88671">
        <ele>328.6</ele>
        <time>2015-05-06T10:25:49.000Z</time>
      </trkpt>
      <trkpt lat="43.44905" lon="1.88683">
        <ele>329</ele>
        <time>2015-05-06T10:25:58.000Z</time>
      </trkpt>
      <trkpt lat="43.44906" lon="1.88698">
        <ele>329.4</ele>
        <time>2015-05-06T10:26:8.000Z</time>
      </trkpt>
      <trkpt lat="43.449" lon="1.88709">
        <ele>329.6</ele>
        <time>2015-05-06T10:26:17.000Z</time>
      </trkpt>
      <trkpt lat="43.44897" lon="1.88722">
        <ele>329.8</ele>
        <time>2015-05-06T10:26:29.000Z</time>
      </trkpt>
      <trkpt lat="43.44895" lon="1.88734">
        <ele>330.1</ele>
        <time>2015-05-06T10:26:38.000Z</time>
      </trkpt>
      <trkpt lat="43.44893" lon="1.88748">
        <ele>330.4</ele>
        <time>2015-05-06T10:26:45.000Z</time>
      </trkpt>
      <trkpt lat="43.44895" lon="1.88761">
        <ele>330.8</ele>
        <time>2015-05-06T10:26:55.000Z</time>
      </trkpt>
      <trkpt lat="43.44893" lon="1.88775">
        <ele>331.6</ele>
        <time>2015-05-06T10:27:13.000Z</time>
      </trkpt>
      <trkpt lat="43.44894" lon="1.88788">
        <ele>331.9</ele>
        <time>2015-05-06T10:27:26.000Z</time>
      </trkpt>
      <trkpt lat="43.44898" lon="1.88775">
        <ele>332.7</ele>
        <time>2015-05-06T10:27:59.000Z</time>
      </trkpt>
      <trkpt lat="43.4489" lon="1.88784">
        <ele>330.8</ele>
        <time>2015-05-06T10:28:52.000Z</time>
      </trkpt>
      <trkpt lat="43.44881" lon="1.88789">
        <ele>330.5</ele>
        <time>2015-05-06T10:28:56.000Z</time>
      </trkpt>
      <trkpt lat="43.44876" lon="1.88803">
        <ele>330.3</ele>
        <time>2015-05-06T10:29:1.000Z</time>
      </trkpt>
      <trkpt lat="43.44873" lon="1.88816">
        <ele>330.1</ele>
        <time>2015-05-06T10:29:5.000Z</time>
      </trkpt>
      <trkpt lat="43.44868" lon="1.88827">
        <ele>330</ele>
        <time>2015-05-06T10:29:10.000Z</time>
      </trkpt>
      <trkpt lat="43.44873" lon="1.88819">
        <ele>378.5</ele>
        <time>2015-05-06T11:10:3.000Z</time>
      </trkpt>
      <trkpt lat="43.44864" lon="1.88822">
        <ele>378.9</ele>
        <time>2015-05-06T11:10:13.000Z</time>
      </trkpt>
      <trkpt lat="43.44859" lon="1.88832">
        <ele>379.4</ele>
        <time>2015-05-06T11:10:24.000Z</time>
      </trkpt>
      <trkpt lat="43.44853" lon="1.88841">
        <ele>379.8</ele>
        <time>2015-05-06T11:10:36.000Z</time>
      </trkpt>
      <trkpt lat="43.44845" lon="1.8885">
        <ele>380.4</ele>
        <time>2015-05-06T11:10:48.000Z</time>
      </trkpt>
      <trkpt lat="43.44837" lon="1.88856">
        <ele>381</ele>
        <time>2015-05-06T11:11:0.000Z</time>
      </trkpt>
      <trkpt lat="43.44832" lon="1.88867">
        <ele>381.4</ele>
        <time>2015-05-06T11:11:10.000Z</time>
      </trkpt>
      <trkpt lat="43.44827" lon="1.88878">
        <ele>381.8</ele>
        <time>2015-05-06T11:11:20.000Z</time>
      </trkpt>
      <trkpt lat="43.44825" lon="1.8889">
        <ele>382.1</ele>
        <time>2015-05-06T11:11:28.000Z</time>
      </trkpt>
      <trkpt lat="43.4482" lon="1.88901">
        <ele>382.5</ele>
        <time>2015-05-06T11:11:38.000Z</time>
      </trkpt>
      <trkpt lat="43.4482" lon="1.88914">
        <ele>383.1</ele>
        <time>2015-05-06T11:11:59.000Z</time>
      </trkpt>
      <trkpt lat="43.44812" lon="1.88919">
        <ele>383.6</ele>
        <time>2015-05-06T11:12:13.000Z</time>
      </trkpt>
      <trkpt lat="43.44803" lon="1.88922">
        <ele>383.9</ele>
        <time>2015-05-06T11:12:26.000Z</time>
      </trkpt>
      <trkpt lat="43.44794" lon="1.88919">
        <ele>384.3</ele>
        <time>2015-05-06T11:12:39.000Z</time>
      </trkpt>
      <trkpt lat="43.44788" lon="1.8891">
        <ele>385.2</ele>
        <time>2015-05-06T11:12:59.000Z</time>
      </trkpt>
      <trkpt lat="43.44795" lon="1.88918">
        <ele>387.8</ele>
        <time>2015-05-06T11:17:44.000Z</time>
      </trkpt>
      <trkpt lat="43.44805" lon="1.8892">
        <ele>386.8</ele>
        <time>2015-05-06T11:17:57.000Z</time>
      </trkpt>
      <trkpt lat="43.44814" lon="1.88918">
        <ele>386.1</ele>
        <time>2015-05-06T11:18:10.000Z</time>
      </trkpt>
      <trkpt lat="43.44812" lon="1.88905">
        <ele>385.5</ele>
        <time>2015-05-06T11:18:27.000Z</time>
      </trkpt>
      <trkpt lat="43.44804" lon="1.88899">
        <ele>385.2</ele>
        <time>2015-05-06T11:18:36.000Z</time>
      </trkpt>
      <trkpt lat="43.44795" lon="1.88894">
        <ele>384.5</ele>
        <time>2015-05-06T11:18:49.000Z</time>
      </trkpt>
      <trkpt lat="43.44788" lon="1.88885">
        <ele>383.4</ele>
        <time>2015-05-06T11:19:8.000Z</time>
      </trkpt>
      <trkpt lat="43.44781" lon="1.88878">
        <ele>382.5</ele>
        <time>2015-05-06T11:19:21.000Z</time>
      </trkpt>
      <trkpt lat="43.44773" lon="1.88872">
        <ele>381.4</ele>
        <time>2015-05-06T11:19:33.000Z</time>
      </trkpt>
      <trkpt lat="43.44771" lon="1.88859">
        <ele>379.7</ele>
        <time>2015-05-06T11:19:46.000Z</time>
      </trkpt>
      <trkpt lat="43.44777" lon="1.88849">
        <ele>378.5</ele>
        <time>2015-05-06T11:19:56.000Z</time>
      </trkpt>
      <trkpt lat="43.44784" lon="1.8884">
        <ele>377.3</ele>
        <time>2015-05-06T11:20:6.000Z</time>
      </trkpt>
      <trkpt lat="43.44789" lon="1.8883">
        <ele>376.2</ele>
        <time>2015-05-06T11:20:17.000Z</time>
      </trkpt>
      <trkpt lat="43.44795" lon="1.8882">
        <ele>375.2</ele>
        <time>2015-05-06T11:20:28.000Z</time>
      </trkpt>
      <trkpt lat="43.448" lon="1.88809">
        <ele>374.2</ele>
        <time>2015-05-06T11:20:38.000Z</time>
      </trkpt>
      <trkpt lat="43.44805" lon="1.88798">
        <ele>373.3</ele>
        <time>2015-05-06T11:20:47.000Z</time>
      </trkpt>
      <trkpt lat="43.44811" lon="1.88787">
        <ele>372.6</ele>
        <time>2015-05-06T11:20:56.000Z</time>
      </trkpt>
      <trkpt lat="43.44816" lon="1.88775">
        <ele>372.2</ele>
        <time>2015-05-06T11:21:4.000Z</time>
      </trkpt>
      <trkpt lat="43.4482" lon="1.88763">
        <ele>371.4</ele>
        <time>2015-05-06T11:21:14.000Z</time>
      </trkpt>
      <trkpt lat="43.44824" lon="1.88751">
        <ele>370.5</ele>
        <time>2015-05-06T11:21:23.000Z</time>
      </trkpt>
      <trkpt lat="43.44825" lon="1.88739">
        <ele>369.3</ele>
        <time>2015-05-06T11:21:35.000Z</time>
      </trkpt>
      <trkpt lat="43.44823" lon="1.88726">
        <ele>368.4</ele>
        <time>2015-05-06T11:21:43.000Z</time>
      </trkpt>
      <trkpt lat="43.44824" lon="1.88714">
        <ele>367.3</ele>
        <time>2015-05-06T11:21:52.000Z</time>
      </trkpt>
      <trkpt lat="43.44827" lon="1.88701">
        <ele>366.6</ele>
        <time>2015-05-06T11:22:1.000Z</time>
      </trkpt>
      <trkpt lat="43.44829" lon="1.88688">
        <ele>365.8</ele>
        <time>2015-05-06T11:22:10.000Z</time>
      </trkpt>
      <trkpt lat="43.44829" lon="1.88675">
        <ele>364.6</ele>
        <time>2015-05-06T11:22:20.000Z</time>
      </trkpt>
      <trkpt lat="43.44829" lon="1.88661">
        <ele>363.5</ele>
        <time>2015-05-06T11:22:29.000Z</time>
      </trkpt>
      <trkpt lat="43.44827" lon="1.88648">
        <ele>362.3</ele>
        <time>2015-05-06T11:22:38.000Z</time>
      </trkpt>
      <trkpt lat="43.44825" lon="1.88635">
        <ele>360.9</ele>
        <time>2015-05-06T11:22:47.000Z</time>
      </trkpt>
      <trkpt lat="43.44824" lon="1.88622">
        <ele>359.6</ele>
        <time>2015-05-06T11:22:56.000Z</time>
      </trkpt>
      <trkpt lat="43.44825" lon="1.88609">
        <ele>357.8</ele>
        <time>2015-05-06T11:23:6.000Z</time>
      </trkpt>
      <trkpt lat="43.44826" lon="1.88596">
        <ele>356.2</ele>
        <time>2015-05-06T11:23:15.000Z</time>
      </trkpt>
      <trkpt lat="43.44827" lon="1.88583">
        <ele>354.5</ele>
        <time>2015-05-06T11:23:24.000Z</time>
      </trkpt>
      <trkpt lat="43.44827" lon="1.8857">
        <ele>352.9</ele>
        <time>2015-05-06T11:23:33.000Z</time>
      </trkpt>
      <trkpt lat="43.44828" lon="1.88558">
        <ele>351.3</ele>
        <time>2015-05-06T11:23:43.000Z</time>
      </trkpt>
      <trkpt lat="43.44827" lon="1.88544">
        <ele>349.7</ele>
        <time>2015-05-06T11:23:52.000Z</time>
      </trkpt>
      <trkpt lat="43.44826" lon="1.88532">
        <ele>348</ele>
        <time>2015-05-06T11:24:1.000Z</time>
      </trkpt>
      <trkpt lat="43.44825" lon="1.88518">
        <ele>346.3</ele>
        <time>2015-05-06T11:24:11.000Z</time>
      </trkpt>
      <trkpt lat="43.44826" lon="1.88505">
        <ele>344.9</ele>
        <time>2015-05-06T11:24:19.000Z</time>
      </trkpt>
      <trkpt lat="43.44825" lon="1.88492">
        <ele>343.5</ele>
        <time>2015-05-06T11:24:27.000Z</time>
      </trkpt>
      <trkpt lat="43.44826" lon="1.88479">
        <ele>342</ele>
        <time>2015-05-06T11:24:36.000Z</time>
      </trkpt>
      <trkpt lat="43.44827" lon="1.88466">
        <ele>340.5</ele>
        <time>2015-05-06T11:24:46.000Z</time>
      </trkpt>
      <trkpt lat="43.44828" lon="1.88454">
        <ele>339.2</ele>
        <time>2015-05-06T11:24:55.000Z</time>
      </trkpt>
      <trkpt lat="43.44829" lon="1.88441">
        <ele>338</ele>
        <time>2015-05-06T11:25:4.000Z</time>
      </trkpt>
      <trkpt lat="43.44826" lon="1.88429">
        <ele>336.9</ele>
        <time>2015-05-06T11:25:12.000Z</time>
      </trkpt>
      <trkpt lat="43.4482" lon="1.88419">
        <ele>336.1</ele>
        <time>2015-05-06T11:25:19.000Z</time>
      </trkpt>
      <trkpt lat="43.44812" lon="1.88412">
        <ele>335</ele>
        <time>2015-05-06T11:25:27.000Z</time>
      </trkpt>
      <trkpt lat="43.44804" lon="1.88404">
        <ele>333.7</ele>
        <time>2015-05-06T11:25:35.000Z</time>
      </trkpt>
      <trkpt lat="43.44797" lon="1.88394">
        <ele>332.3</ele>
        <time>2015-05-06T11:25:44.000Z</time>
      </trkpt>
      <trkpt lat="43.44796" lon="1.88382">
        <ele>331.1</ele>
        <time>2015-05-06T11:25:52.000Z</time>
      </trkpt>
      <trkpt lat="43.44795" lon="1.8837">
        <ele>330</ele>
        <time>2015-05-06T11:26:1.000Z</time>
      </trkpt>
      <trkpt lat="43.44793" lon="1.88357">
        <ele>329.1</ele>
        <time>2015-05-06T11:26:10.000Z</time>
      </trkpt>
      <trkpt lat="43.44793" lon="1.88344">
        <ele>328.1</ele>
        <time>2015-05-06T11:26:20.000Z</time>
      </trkpt>
      <trkpt lat="43.4479" lon="1.88332">
        <ele>327.3</ele>
        <time>2015-05-06T11:26:30.000Z</time>
      </trkpt>
      <trkpt lat="43.44785" lon="1.8832">
        <ele>326.7</ele>
        <time>2015-05-06T11:26:39.000Z</time>
      </trkpt>
      <trkpt lat="43.44777" lon="1.88314">
        <ele>326.2</ele>
        <time>2015-05-06T11:26:48.000Z</time>
      </trkpt>
      <trkpt lat="43.44769" lon="1.88306">
        <ele>325.7</ele>
        <time>2015-05-06T11:26:58.000Z</time>
      </trkpt>
      <trkpt lat="43.44761" lon="1.883">
        <ele>325.4</ele>
        <time>2015-05-06T11:27:7.000Z</time>
      </trkpt>
      <trkpt lat="43.44752" lon="1.88296">
        <ele>324.9</ele>
        <time>2015-05-06T11:27:16.000Z</time>
      </trkpt>
      <trkpt lat="43.44743" lon="1.88291">
        <ele>324.6</ele>
        <time>2015-05-06T11:27:24.000Z</time>
      </trkpt>
      <trkpt lat="43.44736" lon="1.88282">
        <ele>323.9</ele>
        <time>2015-05-06T11:27:33.000Z</time>
      </trkpt>
      <trkpt lat="43.44729" lon="1.88273">
        <ele>323</ele>
        <time>2015-05-06T11:27:42.000Z</time>
      </trkpt>
      <trkpt lat="43.44723" lon="1.88263">
        <ele>322.1</ele>
        <time>2015-05-06T11:27:50.000Z</time>
      </trkpt>
      <trkpt lat="43.44716" lon="1.88254">
        <ele>320.9</ele>
        <time>2015-05-06T11:28:0.000Z</time>
      </trkpt>
      <trkpt lat="43.44709" lon="1.88244">
        <ele>320.2</ele>
        <time>2015-05-06T11:28:8.000Z</time>
      </trkpt>
      <trkpt lat="43.44703" lon="1.88235">
        <ele>319.6</ele>
        <time>2015-05-06T11:28:16.000Z</time>
      </trkpt>
      <trkpt lat="43.44695" lon="1.88227">
        <ele>319</ele>
        <time>2015-05-06T11:28:25.000Z</time>
      </trkpt>
      <trkpt lat="43.44687" lon="1.8822">
        <ele>318.5</ele>
        <time>2015-05-06T11:28:35.000Z</time>
      </trkpt>
      <trkpt lat="43.44678" lon="1.88213">
        <ele>318.1</ele>
        <time>2015-05-06T11:28:45.000Z</time>
      </trkpt>
      <trkpt lat="43.4467" lon="1.88206">
        <ele>317.7</ele>
        <time>2015-05-06T11:28:55.000Z</time>
      </trkpt>
      <trkpt lat="43.44661" lon="1.88202">
        <ele>317.4</ele>
        <time>2015-05-06T11:29:5.000Z</time>
      </trkpt>
      <trkpt lat="43.44652" lon="1.88196">
        <ele>317.1</ele>
        <time>2015-05-06T11:29:15.000Z</time>
      </trkpt>
      <trkpt lat="43.44643" lon="1.8819">
        <ele>317</ele>
        <time>2015-05-06T11:29:24.000Z</time>
      </trkpt>
      <trkpt lat="43.44634" lon="1.88185">
        <ele>317</ele>
        <time>2015-05-06T11:29:33.000Z</time>
      </trkpt>
      <trkpt lat="43.44626" lon="1.8818">
        <ele>316.9</ele>
        <time>2015-05-06T11:29:43.000Z</time>
      </trkpt>
      <trkpt lat="43.44616" lon="1.88176">
        <ele>317.1</ele>
        <time>2015-05-06T11:29:52.000Z</time>
      </trkpt>
      <trkpt lat="43.44608" lon="1.88171">
        <ele>317.3</ele>
        <time>2015-05-06T11:30:0.000Z</time>
      </trkpt>
      <trkpt lat="43.44599" lon="1.88168">
        <ele>317.4</ele>
        <time>2015-05-06T11:30:10.000Z</time>
      </trkpt>
      <trkpt lat="43.44589" lon="1.88166">
        <ele>317.6</ele>
        <time>2015-05-06T11:30:19.000Z</time>
      </trkpt>
      <trkpt lat="43.4458" lon="1.88162">
        <ele>318</ele>
        <time>2015-05-06T11:30:32.000Z</time>
      </trkpt>
      <trkpt lat="43.44571" lon="1.88159">
        <ele>318.6</ele>
        <time>2015-05-06T11:30:42.000Z</time>
      </trkpt>
      <trkpt lat="43.44562" lon="1.88158">
        <ele>319.1</ele>
        <time>2015-05-06T11:30:51.000Z</time>
      </trkpt>
      <trkpt lat="43.44553" lon="1.88158">
        <ele>319.7</ele>
        <time>2015-05-06T11:31:0.000Z</time>
      </trkpt>
      <trkpt lat="43.44544" lon="1.88157">
        <ele>320.5</ele>
        <time>2015-05-06T11:31:10.000Z</time>
      </trkpt>
      <trkpt lat="43.44534" lon="1.88155">
        <ele>321.5</ele>
        <time>2015-05-06T11:31:21.000Z</time>
      </trkpt>
      <trkpt lat="43.44525" lon="1.88152">
        <ele>322.3</ele>
        <time>2015-05-06T11:31:31.000Z</time>
      </trkpt>
      <trkpt lat="43.44516" lon="1.88149">
        <ele>322.9</ele>
        <time>2015-05-06T11:31:43.000Z</time>
      </trkpt>
      <trkpt lat="43.44508" lon="1.88144">
        <ele>323.8</ele>
        <time>2015-05-06T11:31:56.000Z</time>
      </trkpt>
      <trkpt lat="43.44498" lon="1.88143">
        <ele>324.7</ele>
        <time>2015-05-06T11:32:7.000Z</time>
      </trkpt>
      <trkpt lat="43.44488" lon="1.88139">
        <ele>326</ele>
        <time>2015-05-06T11:32:17.000Z</time>
      </trkpt>
      <trkpt lat="43.44479" lon="1.88136">
        <ele>326.6</ele>
        <time>2015-05-06T11:32:28.000Z</time>
      </trkpt>
      <trkpt lat="43.4447" lon="1.88133">
        <ele>327.3</ele>
        <time>2015-05-06T11:32:40.000Z</time>
      </trkpt>
      <trkpt lat="43.44461" lon="1.88132">
        <ele>327.8</ele>
        <time>2015-05-06T11:32:50.000Z</time>
      </trkpt>
      <trkpt lat="43.44452" lon="1.88127">
        <ele>328.1</ele>
        <time>2015-05-06T11:33:1.000Z</time>
      </trkpt>
      <trkpt lat="43.44442" lon="1.88125">
        <ele>328.3</ele>
        <time>2015-05-06T11:33:9.000Z</time>
      </trkpt>
      <trkpt lat="43.44433" lon="1.88123">
        <ele>328.7</ele>
        <time>2015-05-06T11:33:18.000Z</time>
      </trkpt>
      <trkpt lat="43.44424" lon="1.88119">
        <ele>328.8</ele>
        <time>2015-05-06T11:33:27.000Z</time>
      </trkpt>
      <trkpt lat="43.44415" lon="1.88114">
        <ele>329.1</ele>
        <time>2015-05-06T11:33:36.000Z</time>
      </trkpt>
      <trkpt lat="43.44406" lon="1.88113">
        <ele>329.2</ele>
        <time>2015-05-06T11:33:45.000Z</time>
      </trkpt>
      <trkpt lat="43.44397" lon="1.88113">
        <ele>329.3</ele>
        <time>2015-05-06T11:33:54.000Z</time>
      </trkpt>
      <trkpt lat="43.44388" lon="1.88118">
        <ele>329.5</ele>
        <time>2015-05-06T11:34:4.000Z</time>
      </trkpt>
      <trkpt lat="43.44379" lon="1.88123">
        <ele>329.7</ele>
        <time>2015-05-06T11:34:14.000Z</time>
      </trkpt>
      <trkpt lat="43.44371" lon="1.88128">
        <ele>330.1</ele>
        <time>2015-05-06T11:34:24.000Z</time>
      </trkpt>
      <trkpt lat="43.44362" lon="1.88131">
        <ele>330.5</ele>
        <time>2015-05-06T11:34:33.000Z</time>
      </trkpt>
      <trkpt lat="43.44353" lon="1.88135">
        <ele>330.7</ele>
        <time>2015-05-06T11:34:43.000Z</time>
      </trkpt>
      <trkpt lat="43.44344" lon="1.88141">
        <ele>331</ele>
        <time>2015-05-06T11:34:53.000Z</time>
      </trkpt>
      <trkpt lat="43.44336" lon="1.88147">
        <ele>331.5</ele>
        <time>2015-05-06T11:35:3.000Z</time>
      </trkpt>
      <trkpt lat="43.44329" lon="1.88156">
        <ele>331.7</ele>
        <time>2015-05-06T11:35:14.000Z</time>
      </trkpt>
      <trkpt lat="43.44321" lon="1.88164">
        <ele>332.2</ele>
        <time>2015-05-06T11:35:26.000Z</time>
      </trkpt>
      <trkpt lat="43.44314" lon="1.88172">
        <ele>332.6</ele>
        <time>2015-05-06T11:35:36.000Z</time>
      </trkpt>
      <trkpt lat="43.44307" lon="1.8818">
        <ele>332.9</ele>
        <time>2015-05-06T11:35:47.000Z</time>
      </trkpt>
      <trkpt lat="43.44299" lon="1.88188">
        <ele>333</ele>
        <time>2015-05-06T11:35:56.000Z</time>
      </trkpt>
      <trkpt lat="43.44292" lon="1.88197">
        <ele>333.6</ele>
        <time>2015-05-06T11:36:7.000Z</time>
      </trkpt>
      <trkpt lat="43.44286" lon="1.88205">
        <ele>334.1</ele>
        <time>2015-05-06T11:36:17.000Z</time>
      </trkpt>
      <trkpt lat="43.44278" lon="1.88211">
        <ele>334.9</ele>
        <time>2015-05-06T11:36:28.000Z</time>
      </trkpt>
      <trkpt lat="43.4427" lon="1.88205">
        <ele>335.7</ele>
        <time>2015-05-06T11:36:39.000Z</time>
      </trkpt>
      <trkpt lat="43.44265" lon="1.88194">
        <ele>336.4</ele>
        <time>2015-05-06T11:36:48.000Z</time>
      </trkpt>
      <trkpt lat="43.4426" lon="1.88183">
        <ele>336.7</ele>
        <time>2015-05-06T11:36:57.000Z</time>
      </trkpt>
      <trkpt lat="43.44256" lon="1.88171">
        <ele>337</ele>
        <time>2015-05-06T11:37:8.000Z</time>
      </trkpt>
      <trkpt lat="43.44252" lon="1.88159">
        <ele>337.7</ele>
        <time>2015-05-06T11:37:18.000Z</time>
      </trkpt>
      <trkpt lat="43.44248" lon="1.88148">
        <ele>338.6</ele>
        <time>2015-05-06T11:37:26.000Z</time>
      </trkpt>
      <trkpt lat="43.44247" lon="1.88135">
        <ele>339.5</ele>
        <time>2015-05-06T11:37:36.000Z</time>
      </trkpt>
      <trkpt lat="43.44251" lon="1.88123">
        <ele>340.4</ele>
        <time>2015-05-06T11:37:44.000Z</time>
      </trkpt>
      <trkpt lat="43.44252" lon="1.88111">
        <ele>343.6</ele>
        <time>2015-05-06T11:38:33.000Z</time>
      </trkpt>
      <trkpt lat="43.4425" lon="1.88098">
        <ele>343.9</ele>
        <time>2015-05-06T11:38:52.000Z</time>
      </trkpt>
      <trkpt lat="43.44246" lon="1.88087">
        <ele>344.2</ele>
        <time>2015-05-06T11:39:3.000Z</time>
      </trkpt>
      <trkpt lat="43.44243" lon="1.88074">
        <ele>344.7</ele>
        <time>2015-05-06T11:39:14.000Z</time>
      </trkpt>
      <trkpt lat="43.4424" lon="1.88062">
        <ele>345.5</ele>
        <time>2015-05-06T11:39:26.000Z</time>
      </trkpt>
      <trkpt lat="43.44238" lon="1.88049">
        <ele>346.3</ele>
        <time>2015-05-06T11:39:38.000Z</time>
      </trkpt>
      <trkpt lat="43.44239" lon="1.88036">
        <ele>347.3</ele>
        <time>2015-05-06T11:39:48.000Z</time>
      </trkpt>
      <trkpt lat="43.44241" lon="1.88023">
        <ele>348</ele>
        <time>2015-05-06T11:39:58.000Z</time>
      </trkpt>
      <trkpt lat="43.44245" lon="1.88011">
        <ele>347.9</ele>
        <time>2015-05-06T11:41:30.000Z</time>
      </trkpt>
      <trkpt lat="43.4425" lon="1.88001">
        <ele>347.7</ele>
        <time>2015-05-06T11:41:40.000Z</time>
      </trkpt>
      <trkpt lat="43.44256" lon="1.87991">
        <ele>347.6</ele>
        <time>2015-05-06T11:41:50.000Z</time>
      </trkpt>
      <trkpt lat="43.44262" lon="1.8798">
        <ele>347</ele>
        <time>2015-05-06T11:42:10.000Z</time>
      </trkpt>
      <trkpt lat="43.44267" lon="1.87971">
        <ele>346.7</ele>
        <time>2015-05-06T11:42:20.000Z</time>
      </trkpt>
      <trkpt lat="43.44273" lon="1.8796">
        <ele>346.5</ele>
        <time>2015-05-06T11:42:29.000Z</time>
      </trkpt>
      <trkpt lat="43.4428" lon="1.87952">
        <ele>346.2</ele>
        <time>2015-05-06T11:42:38.000Z</time>
      </trkpt>
      <trkpt lat="43.44287" lon="1.87943">
        <ele>345.9</ele>
        <time>2015-05-06T11:42:48.000Z</time>
      </trkpt>
      <trkpt lat="43.44294" lon="1.87934">
        <ele>345.5</ele>
        <time>2015-05-06T11:42:58.000Z</time>
      </trkpt>
      <trkpt lat="43.44295" lon="1.87921">
        <ele>343.6</ele>
        <time>2015-05-06T11:43:49.000Z</time>
      </trkpt>
      <trkpt lat="43.44289" lon="1.87912">
        <ele>343.3</ele>
        <time>2015-05-06T11:44:0.000Z</time>
      </trkpt>
      <trkpt lat="43.44282" lon="1.87904">
        <ele>342.8</ele>
        <time>2015-05-06T11:44:10.000Z</time>
      </trkpt>
      <trkpt lat="43.44274" lon="1.87895">
        <ele>342.1</ele>
        <time>2015-05-06T11:44:21.000Z</time>
      </trkpt>
      <trkpt lat="43.44267" lon="1.87886">
        <ele>340.6</ele>
        <time>2015-05-06T11:44:31.000Z</time>
      </trkpt>
      <trkpt lat="43.4426" lon="1.87877">
        <ele>340</ele>
        <time>2015-05-06T11:44:40.000Z</time>
      </trkpt>
      <trkpt lat="43.44254" lon="1.87868">
        <ele>339.5</ele>
        <time>2015-05-06T11:44:49.000Z</time>
      </trkpt>
      <trkpt lat="43.44247" lon="1.87859">
        <ele>338.7</ele>
        <time>2015-05-06T11:44:59.000Z</time>
      </trkpt>
      <trkpt lat="43.4424" lon="1.8785">
        <ele>337.8</ele>
        <time>2015-05-06T11:45:9.000Z</time>
      </trkpt>
      <trkpt lat="43.44232" lon="1.87841">
        <ele>336.6</ele>
        <time>2015-05-06T11:45:19.000Z</time>
      </trkpt>
      <trkpt lat="43.44224" lon="1.87833">
        <ele>335.2</ele>
        <time>2015-05-06T11:45:29.000Z</time>
      </trkpt>
      <trkpt lat="43.44216" lon="1.87825">
        <ele>333.8</ele>
        <time>2015-05-06T11:45:39.000Z</time>
      </trkpt>
      <trkpt lat="43.44209" lon="1.87817">
        <ele>332</ele>
        <time>2015-05-06T11:45:50.000Z</time>
      </trkpt>
      <trkpt lat="43.44202" lon="1.8781">
        <ele>330.3</ele>
        <time>2015-05-06T11:46:0.000Z</time>
      </trkpt>
      <trkpt lat="43.44196" lon="1.878">
        <ele>328.6</ele>
        <time>2015-05-06T11:46:10.000Z</time>
      </trkpt>
      <trkpt lat="43.44192" lon="1.87788">
        <ele>326.8</ele>
        <time>2015-05-06T11:46:19.000Z</time>
      </trkpt>
      <trkpt lat="43.4419" lon="1.87776">
        <ele>325.1</ele>
        <time>2015-05-06T11:46:28.000Z</time>
      </trkpt>
      <trkpt lat="43.44189" lon="1.87763">
        <ele>323.3</ele>
        <time>2015-05-06T11:46:37.000Z</time>
      </trkpt>
      <trkpt lat="43.4419" lon="1.87751">
        <ele>321.7</ele>
        <time>2015-05-06T11:46:45.000Z</time>
      </trkpt>
      <trkpt lat="43.44186" lon="1.87739">
        <ele>320</ele>
        <time>2015-05-06T11:46:54.000Z</time>
      </trkpt>
      <trkpt lat="43.44186" lon="1.87725">
        <ele>318.3</ele>
        <time>2015-05-06T11:47:3.000Z</time>
      </trkpt>
      <trkpt lat="43.44184" lon="1.87712">
        <ele>316.5</ele>
        <time>2015-05-06T11:47:13.000Z</time>
      </trkpt>
      <trkpt lat="43.4418" lon="1.87699">
        <ele>315.2</ele>
        <time>2015-05-06T11:47:22.000Z</time>
      </trkpt>
      <trkpt lat="43.44178" lon="1.87686">
        <ele>313.9</ele>
        <time>2015-05-06T11:47:30.000Z</time>
      </trkpt>
      <trkpt lat="43.44175" lon="1.87674">
        <ele>312.7</ele>
        <time>2015-05-06T11:47:38.000Z</time>
      </trkpt>
      <trkpt lat="43.44168" lon="1.87664">
        <ele>311.5</ele>
        <time>2015-05-06T11:47:47.000Z</time>
      </trkpt>
      <trkpt lat="43.44161" lon="1.87655">
        <ele>310.9</ele>
        <time>2015-05-06T11:47:54.000Z</time>
      </trkpt>
      <trkpt lat="43.44157" lon="1.87644">
        <ele>310</ele>
        <time>2015-05-06T11:48:3.000Z</time>
      </trkpt>
      <trkpt lat="43.4415" lon="1.87635">
        <ele>309.4</ele>
        <time>2015-05-06T11:48:12.000Z</time>
      </trkpt>
      <trkpt lat="43.44143" lon="1.87626">
        <ele>309</ele>
        <time>2015-05-06T11:48:21.000Z</time>
      </trkpt>
      <trkpt lat="43.44136" lon="1.87618">
        <ele>308.7</ele>
        <time>2015-05-06T11:48:29.000Z</time>
      </trkpt>
      <trkpt lat="43.44131" lon="1.87607">
        <ele>308.7</ele>
        <time>2015-05-06T11:48:37.000Z</time>
      </trkpt>
      <trkpt lat="43.44127" lon="1.87596">
        <ele>308.6</ele>
        <time>2015-05-06T11:48:45.000Z</time>
      </trkpt>
      <trkpt lat="43.44125" lon="1.87583">
        <ele>308.6</ele>
        <time>2015-05-06T11:48:53.000Z</time>
      </trkpt>
      <trkpt lat="43.44124" lon="1.8757">
        <ele>308.6</ele>
        <time>2015-05-06T11:49:2.000Z</time>
      </trkpt>
      <trkpt lat="43.44122" lon="1.87557">
        <ele>308.6</ele>
        <time>2015-05-06T11:49:11.000Z</time>
      </trkpt>
      <trkpt lat="43.4412" lon="1.87543">
        <ele>308.6</ele>
        <time>2015-05-06T11:49:20.000Z</time>
      </trkpt>
      <trkpt lat="43.44118" lon="1.87531">
        <ele>308.7</ele>
        <time>2015-05-06T11:49:29.000Z</time>
      </trkpt>
      <trkpt lat="43.44117" lon="1.87517">
        <ele>308.9</ele>
        <time>2015-05-06T11:49:38.000Z</time>
      </trkpt>
      <trkpt lat="43.44117" lon="1.87503">
        <ele>309.1</ele>
        <time>2015-05-06T11:49:47.000Z</time>
      </trkpt>
      <trkpt lat="43.44119" lon="1.8749">
        <ele>309</ele>
        <time>2015-05-06T11:49:56.000Z</time>
      </trkpt>
      <trkpt lat="43.44119" lon="1.87476">
        <ele>309.1</ele>
        <time>2015-05-06T11:50:4.000Z</time>
      </trkpt>
      <trkpt lat="43.44119" lon="1.87463">
        <ele>309</ele>
        <time>2015-05-06T11:50:12.000Z</time>
      </trkpt>
      <trkpt lat="43.4412" lon="1.8745">
        <ele>308.9</ele>
        <time>2015-05-06T11:50:21.000Z</time>
      </trkpt>
      <trkpt lat="43.44121" lon="1.87437">
        <ele>308.7</ele>
        <time>2015-05-06T11:50:30.000Z</time>
      </trkpt>
      <trkpt lat="43.44121" lon="1.87424">
        <ele>308.5</ele>
        <time>2015-05-06T11:50:39.000Z</time>
      </trkpt>
      <trkpt lat="43.44122" lon="1.87411">
        <ele>308.6</ele>
        <time>2015-05-06T11:50:48.000Z</time>
      </trkpt>
      <trkpt lat="43.44123" lon="1.87398">
        <ele>309.3</ele>
        <time>2015-05-06T11:50:57.000Z</time>
      </trkpt>
      <trkpt lat="43.44124" lon="1.87385">
        <ele>309.6</ele>
        <time>2015-05-06T11:51:6.000Z</time>
      </trkpt>
      <trkpt lat="43.44125" lon="1.87372">
        <ele>309.9</ele>
        <time>2015-05-06T11:51:15.000Z</time>
      </trkpt>
      <trkpt lat="43.44125" lon="1.87359">
        <ele>310.2</ele>
        <time>2015-05-06T11:51:24.000Z</time>
      </trkpt>
      <trkpt lat="43.44125" lon="1.87345">
        <ele>310.3</ele>
        <time>2015-05-06T11:51:33.000Z</time>
      </trkpt>
      <trkpt lat="43.44128" lon="1.87331">
        <ele>310.4</ele>
        <time>2015-05-06T11:51:42.000Z</time>
      </trkpt>
      <trkpt lat="43.44129" lon="1.87318">
        <ele>310.6</ele>
        <time>2015-05-06T11:51:51.000Z</time>
      </trkpt>
      <trkpt lat="43.4413" lon="1.87304">
        <ele>310.6</ele>
        <time>2015-05-06T11:52:0.000Z</time>
      </trkpt>
      <trkpt lat="43.44132" lon="1.87291">
        <ele>310.6</ele>
        <time>2015-05-06T11:52:10.000Z</time>
      </trkpt>
      <trkpt lat="43.44134" lon="1.87278">
        <ele>311</ele>
        <time>2015-05-06T11:52:19.000Z</time>
      </trkpt>
      <trkpt lat="43.44137" lon="1.87265">
        <ele>311.7</ele>
        <time>2015-05-06T11:52:29.000Z</time>
      </trkpt>
      <trkpt lat="43.44137" lon="1.87251">
        <ele>312.1</ele>
        <time>2015-05-06T11:52:38.000Z</time>
      </trkpt>
      <trkpt lat="43.44138" lon="1.87238">
        <ele>312.5</ele>
        <time>2015-05-06T11:52:47.000Z</time>
      </trkpt>
      <trkpt lat="43.44136" lon="1.87225">
        <ele>312.8</ele>
        <time>2015-05-06T11:52:56.000Z</time>
      </trkpt>
      <trkpt lat="43.44133" lon="1.87213">
        <ele>313.1</ele>
        <time>2015-05-06T11:53:5.000Z</time>
      </trkpt>
      <trkpt lat="43.44129" lon="1.87201">
        <ele>313.6</ele>
        <time>2015-05-06T11:53:13.000Z</time>
      </trkpt>
      <trkpt lat="43.44125" lon="1.8719">
        <ele>314.3</ele>
        <time>2015-05-06T11:53:21.000Z</time>
      </trkpt>
      <trkpt lat="43.44121" lon="1.87178">
        <ele>314.6</ele>
        <time>2015-05-06T11:53:30.000Z</time>
      </trkpt>
      <trkpt lat="43.44117" lon="1.87166">
        <ele>314.7</ele>
        <time>2015-05-06T11:53:38.000Z</time>
      </trkpt>
      <trkpt lat="43.44113" lon="1.87154">
        <ele>314.6</ele>
        <time>2015-05-06T11:53:47.000Z</time>
      </trkpt>
      <trkpt lat="43.44111" lon="1.87142">
        <ele>314.5</ele>
        <time>2015-05-06T11:53:55.000Z</time>
      </trkpt>
      <trkpt lat="43.44109" lon="1.8713">
        <ele>314.3</ele>
        <time>2015-05-06T11:54:3.000Z</time>
      </trkpt>
      <trkpt lat="43.44108" lon="1.87116">
        <ele>314.2</ele>
        <time>2015-05-06T11:54:12.000Z</time>
      </trkpt>
      <trkpt lat="43.44107" lon="1.87104">
        <ele>314.2</ele>
        <time>2015-05-06T11:54:20.000Z</time>
      </trkpt>
      <trkpt lat="43.44108" lon="1.8709">
        <ele>314.2</ele>
        <time>2015-05-06T11:54:29.000Z</time>
      </trkpt>
      <trkpt lat="43.4411" lon="1.87077">
        <ele>314.2</ele>
        <time>2015-05-06T11:54:38.000Z</time>
      </trkpt>
      <trkpt lat="43.44114" lon="1.87064">
        <ele>314.2</ele>
        <time>2015-05-06T11:54:47.000Z</time>
      </trkpt>
      <trkpt lat="43.44117" lon="1.87051">
        <ele>314.2</ele>
        <time>2015-05-06T11:54:56.000Z</time>
      </trkpt>
      <trkpt lat="43.44121" lon="1.87039">
        <ele>314.2</ele>
        <time>2015-05-06T11:55:4.000Z</time>
      </trkpt>
      <trkpt lat="43.44123" lon="1.87026">
        <ele>314.2</ele>
        <time>2015-05-06T11:55:12.000Z</time>
      </trkpt>
      <trkpt lat="43.44126" lon="1.87014">
        <ele>314.2</ele>
        <time>2015-05-06T11:55:20.000Z</time>
      </trkpt>
      <trkpt lat="43.44128" lon="1.87001">
        <ele>314.2</ele>
        <time>2015-05-06T11:55:28.000Z</time>
      </trkpt>
      <trkpt lat="43.44131" lon="1.86988">
        <ele>313.9</ele>
        <time>2015-05-06T11:55:36.000Z</time>
      </trkpt>
      <trkpt lat="43.44135" lon="1.86976">
        <ele>313.7</ele>
        <time>2015-05-06T11:55:44.000Z</time>
      </trkpt>
      <trkpt lat="43.44138" lon="1.86965">
        <ele>313.6</ele>
        <time>2015-05-06T11:55:52.000Z</time>
      </trkpt>
      <trkpt lat="43.44141" lon="1.86952">
        <ele>313.4</ele>
        <time>2015-05-06T11:56:1.000Z</time>
      </trkpt>
      <trkpt lat="43.44145" lon="1.8694">
        <ele>313.4</ele>
        <time>2015-05-06T11:56:9.000Z</time>
      </trkpt>
      <trkpt lat="43.44148" lon="1.86928">
        <ele>313.4</ele>
        <time>2015-05-06T11:56:17.000Z</time>
      </trkpt>
      <trkpt lat="43.4415" lon="1.86915">
        <ele>313.5</ele>
        <time>2015-05-06T11:56:26.000Z</time>
      </trkpt>
      <trkpt lat="43.44153" lon="1.86901">
        <ele>313.5</ele>
        <time>2015-05-06T11:56:35.000Z</time>
      </trkpt>
      <trkpt lat="43.44156" lon="1.86889">
        <ele>313.5</ele>
        <time>2015-05-06T11:56:43.000Z</time>
      </trkpt>
      <trkpt lat="43.44159" lon="1.86877">
        <ele>313.5</ele>
        <time>2015-05-06T11:56:52.000Z</time>
      </trkpt>
      <trkpt lat="43.44162" lon="1.86864">
        <ele>313.5</ele>
        <time>2015-05-06T11:57:0.000Z</time>
      </trkpt>
      <trkpt lat="43.44165" lon="1.86852">
        <ele>313.5</ele>
        <time>2015-05-06T11:57:8.000Z</time>
      </trkpt>
      <trkpt lat="43.44169" lon="1.8684">
        <ele>313.4</ele>
        <time>2015-05-06T11:57:16.000Z</time>
      </trkpt>
      <trkpt lat="43.44172" lon="1.86828">
        <ele>313.4</ele>
        <time>2015-05-06T11:57:24.000Z</time>
      </trkpt>
      <trkpt lat="43.44176" lon="1.86816">
        <ele>313.4</ele>
        <time>2015-05-06T11:57:32.000Z</time>
      </trkpt>
      <trkpt lat="43.44181" lon="1.86805">
        <ele>313.4</ele>
        <time>2015-05-06T11:57:40.000Z</time>
      </trkpt>
      <trkpt lat="43.44186" lon="1.86794">
        <ele>313.4</ele>
        <time>2015-05-06T11:57:48.000Z</time>
      </trkpt>
      <trkpt lat="43.44191" lon="1.86784">
        <ele>313.4</ele>
        <time>2015-05-06T11:57:56.000Z</time>
      </trkpt>
      <trkpt lat="43.44198" lon="1.86774">
        <ele>313.3</ele>
        <time>2015-05-06T11:58:4.000Z</time>
      </trkpt>
      <trkpt lat="43.44206" lon="1.86765">
        <ele>313.3</ele>
        <time>2015-05-06T11:58:12.000Z</time>
      </trkpt>
      <trkpt lat="43.44212" lon="1.86756">
        <ele>313.3</ele>
        <time>2015-05-06T11:58:19.000Z</time>
      </trkpt>
      <trkpt lat="43.44219" lon="1.86746">
        <ele>313.3</ele>
        <time>2015-05-06T11:58:27.000Z</time>
      </trkpt>
      <trkpt lat="43.44227" lon="1.86736">
        <ele>313.3</ele>
        <time>2015-05-06T11:58:35.000Z</time>
      </trkpt>
      <trkpt lat="43.44233" lon="1.86727">
        <ele>313.2</ele>
        <time>2015-05-06T11:58:42.000Z</time>
      </trkpt>
      <trkpt lat="43.44239" lon="1.86717">
        <ele>313</ele>
        <time>2015-05-06T11:58:50.000Z</time>
      </trkpt>
      <trkpt lat="43.44245" lon="1.86707">
        <ele>312.8</ele>
        <time>2015-05-06T11:58:58.000Z</time>
      </trkpt>
      <trkpt lat="43.44252" lon="1.86697">
        <ele>312.6</ele>
        <time>2015-05-06T11:59:6.000Z</time>
      </trkpt>
      <trkpt lat="43.44259" lon="1.86686">
        <ele>312.4</ele>
        <time>2015-05-06T11:59:14.000Z</time>
      </trkpt>
      <trkpt lat="43.44265" lon="1.86676">
        <ele>312.2</ele>
        <time>2015-05-06T11:59:22.000Z</time>
      </trkpt>
      <trkpt lat="43.44271" lon="1.86666">
        <ele>311.7</ele>
        <time>2015-05-06T11:59:31.000Z</time>
      </trkpt>
      <trkpt lat="43.44278" lon="1.86657">
        <ele>311.5</ele>
        <time>2015-05-06T11:59:39.000Z</time>
      </trkpt>
      <trkpt lat="43.44284" lon="1.86647">
        <ele>311</ele>
        <time>2015-05-06T11:59:47.000Z</time>
      </trkpt>
      <trkpt lat="43.44292" lon="1.86638">
        <ele>310.3</ele>
        <time>2015-05-06T11:59:55.000Z</time>
      </trkpt>
      <trkpt lat="43.443" lon="1.86628">
        <ele>309.6</ele>
        <time>2015-05-06T12:00:3.000Z</time>
      </trkpt>
      <trkpt lat="43.44308" lon="1.86619">
        <ele>309.1</ele>
        <time>2015-05-06T12:00:11.000Z</time>
      </trkpt>
      <trkpt lat="43.44315" lon="1.86611">
        <ele>308.8</ele>
        <time>2015-05-06T12:00:18.000Z</time>
      </trkpt>
      <trkpt lat="43.44321" lon="1.86602">
        <ele>308.4</ele>
        <time>2015-05-06T12:00:26.000Z</time>
      </trkpt>
      <trkpt lat="43.44329" lon="1.86594">
        <ele>308.1</ele>
        <time>2015-05-06T12:00:34.000Z</time>
      </trkpt>
      <trkpt lat="43.44336" lon="1.86585">
        <ele>307.6</ele>
        <time>2015-05-06T12:00:42.000Z</time>
      </trkpt>
      <trkpt lat="43.44343" lon="1.86575">
        <ele>307.2</ele>
        <time>2015-05-06T12:00:51.000Z</time>
      </trkpt>
      <trkpt lat="43.44351" lon="1.86566">
        <ele>306.7</ele>
        <time>2015-05-06T12:00:59.000Z</time>
      </trkpt>
      <trkpt lat="43.44358" lon="1.86557">
        <ele>306.3</ele>
        <time>2015-05-06T12:01:7.000Z</time>
      </trkpt>
      <trkpt lat="43.44366" lon="1.86547">
        <ele>305.8</ele>
        <time>2015-05-06T12:01:16.000Z</time>
      </trkpt>
      <trkpt lat="43.44372" lon="1.86538">
        <ele>305.3</ele>
        <time>2015-05-06T12:01:24.000Z</time>
      </trkpt>
      <trkpt lat="43.44379" lon="1.86529">
        <ele>304.9</ele>
        <time>2015-05-06T12:01:31.000Z</time>
      </trkpt>
      <trkpt lat="43.44387" lon="1.8652">
        <ele>304.5</ele>
        <time>2015-05-06T12:01:39.000Z</time>
      </trkpt>
      <trkpt lat="43.44394" lon="1.86512">
        <ele>303.9</ele>
        <time>2015-05-06T12:01:47.000Z</time>
      </trkpt>
      <trkpt lat="43.444" lon="1.86503">
        <ele>303.5</ele>
        <time>2015-05-06T12:01:55.000Z</time>
      </trkpt>
      <trkpt lat="43.44408" lon="1.86493">
        <ele>303.5</ele>
        <time>2015-05-06T12:02:3.000Z</time>
      </trkpt>
      <trkpt lat="43.44415" lon="1.86485">
        <ele>303.3</ele>
        <time>2015-05-06T12:02:11.000Z</time>
      </trkpt>
      <trkpt lat="43.44422" lon="1.86477">
        <ele>303.3</ele>
        <time>2015-05-06T12:02:19.000Z</time>
      </trkpt>
      <trkpt lat="43.44429" lon="1.86469">
        <ele>303.4</ele>
        <time>2015-05-06T12:02:26.000Z</time>
      </trkpt>
      <trkpt lat="43.44435" lon="1.86459">
        <ele>303.4</ele>
        <time>2015-05-06T12:02:34.000Z</time>
      </trkpt>
      <trkpt lat="43.44443" lon="1.8645">
        <ele>303.5</ele>
        <time>2015-05-06T12:02:42.000Z</time>
      </trkpt>
      <trkpt lat="43.4445" lon="1.8644">
        <ele>303.5</ele>
        <time>2015-05-06T12:02:50.000Z</time>
      </trkpt>
      <trkpt lat="43.44457" lon="1.86431">
        <ele>303.5</ele>
        <time>2015-05-06T12:02:58.000Z</time>
      </trkpt>
      <trkpt lat="43.44464" lon="1.86422">
        <ele>303.6</ele>
        <time>2015-05-06T12:03:6.000Z</time>
      </trkpt>
      <trkpt lat="43.44471" lon="1.86413">
        <ele>303.5</ele>
        <time>2015-05-06T12:03:14.000Z</time>
      </trkpt>
      <trkpt lat="43.44478" lon="1.86403">
        <ele>303.4</ele>
        <time>2015-05-06T12:03:22.000Z</time>
      </trkpt>
      <trkpt lat="43.44486" lon="1.86394">
        <ele>303.3</ele>
        <time>2015-05-06T12:03:30.000Z</time>
      </trkpt>
      <trkpt lat="43.44493" lon="1.86385">
        <ele>303.1</ele>
        <time>2015-05-06T12:03:38.000Z</time>
      </trkpt>
      <trkpt lat="43.44501" lon="1.86376">
        <ele>303</ele>
        <time>2015-05-06T12:03:46.000Z</time>
      </trkpt>
      <trkpt lat="43.44508" lon="1.86367">
        <ele>303</ele>
        <time>2015-05-06T12:03:54.000Z</time>
      </trkpt>
      <trkpt lat="43.44516" lon="1.86357">
        <ele>302.9</ele>
        <time>2015-05-06T12:04:2.000Z</time>
      </trkpt>
      <trkpt lat="43.44523" lon="1.86348">
        <ele>302.9</ele>
        <time>2015-05-06T12:04:10.000Z</time>
      </trkpt>
      <trkpt lat="43.4453" lon="1.86339">
        <ele>302.9</ele>
        <time>2015-05-06T12:04:18.000Z</time>
      </trkpt>
      <trkpt lat="43.44538" lon="1.86331">
        <ele>302.8</ele>
        <time>2015-05-06T12:04:26.000Z</time>
      </trkpt>
      <trkpt lat="43.44545" lon="1.86322">
        <ele>302.8</ele>
        <time>2015-05-06T12:04:34.000Z</time>
      </trkpt>
      <trkpt lat="43.44551" lon="1.86314">
        <ele>302.7</ele>
        <time>2015-05-06T12:04:41.000Z</time>
      </trkpt>
      <trkpt lat="43.44559" lon="1.86305">
        <ele>302.7</ele>
        <time>2015-05-06T12:04:49.000Z</time>
      </trkpt>
      <trkpt lat="43.44565" lon="1.86296">
        <ele>302.7</ele>
        <time>2015-05-06T12:04:56.000Z</time>
      </trkpt>
      <trkpt lat="43.44573" lon="1.86288">
        <ele>302.5</ele>
        <time>2015-05-06T12:05:4.000Z</time>
      </trkpt>
      <trkpt lat="43.44581" lon="1.86278">
        <ele>302.5</ele>
        <time>2015-05-06T12:05:12.000Z</time>
      </trkpt>
      <trkpt lat="43.44588" lon="1.86269">
        <ele>302.4</ele>
        <time>2015-05-06T12:05:20.000Z</time>
      </trkpt>
      <trkpt lat="43.44595" lon="1.8626">
        <ele>302.4</ele>
        <time>2015-05-06T12:05:28.000Z</time>
      </trkpt>
      <trkpt lat="43.44602" lon="1.86251">
        <ele>302.4</ele>
        <time>2015-05-06T12:05:36.000Z</time>
      </trkpt>
      <trkpt lat="43.4461" lon="1.86242">
        <ele>302.3</ele>
        <time>2015-05-06T12:05:44.000Z</time>
      </trkpt>
      <trkpt lat="43.44618" lon="1.86234">
        <ele>302.3</ele>
        <time>2015-05-06T12:05:52.000Z</time>
      </trkpt>
      <trkpt lat="43.44625" lon="1.86225">
        <ele>302.3</ele>
        <time>2015-05-06T12:06:0.000Z</time>
      </trkpt>
      <trkpt lat="43.44632" lon="1.86216">
        <ele>302.3</ele>
        <time>2015-05-06T12:06:8.000Z</time>
      </trkpt>
      <trkpt lat="43.44639" lon="1.86206">
        <ele>302.3</ele>
        <time>2015-05-06T12:06:16.000Z</time>
      </trkpt>
      <trkpt lat="43.44646" lon="1.86197">
        <ele>302.3</ele>
        <time>2015-05-06T12:06:24.000Z</time>
      </trkpt>
      <trkpt lat="43.44653" lon="1.86187">
        <ele>302.3</ele>
        <time>2015-05-06T12:06:32.000Z</time>
      </trkpt>
      <trkpt lat="43.44661" lon="1.86179">
        <ele>302.3</ele>
        <time>2015-05-06T12:06:40.000Z</time>
      </trkpt>
      <trkpt lat="43.44669" lon="1.8617">
        <ele>302.3</ele>
        <time>2015-05-06T12:06:48.000Z</time>
      </trkpt>
      <trkpt lat="43.44676" lon="1.86161">
        <ele>302.3</ele>
        <time>2015-05-06T12:06:56.000Z</time>
      </trkpt>
      <trkpt lat="43.44683" lon="1.86153">
        <ele>302.4</ele>
        <time>2015-05-06T12:07:4.000Z</time>
      </trkpt>
      <trkpt lat="43.4469" lon="1.86144">
        <ele>302.6</ele>
        <time>2015-05-06T12:07:12.000Z</time>
      </trkpt>
      <trkpt lat="43.44697" lon="1.86135">
        <ele>303</ele>
        <time>2015-05-06T12:07:20.000Z</time>
      </trkpt>
      <trkpt lat="43.44704" lon="1.86127">
        <ele>303.5</ele>
        <time>2015-05-06T12:07:28.000Z</time>
      </trkpt>
      <trkpt lat="43.44711" lon="1.86117">
        <ele>303.7</ele>
        <time>2015-05-06T12:07:37.000Z</time>
      </trkpt>
      <trkpt lat="43.44718" lon="1.86108">
        <ele>303.8</ele>
        <time>2015-05-06T12:07:45.000Z</time>
      </trkpt>
      <trkpt lat="43.44725" lon="1.861">
        <ele>304.2</ele>
        <time>2015-05-06T12:07:53.000Z</time>
      </trkpt>
      <trkpt lat="43.44733" lon="1.86091">
        <ele>304.4</ele>
        <time>2015-05-06T12:08:1.000Z</time>
      </trkpt>
      <trkpt lat="43.4474" lon="1.86082">
        <ele>304.7</ele>
        <time>2015-05-06T12:08:9.000Z</time>
      </trkpt>
      <trkpt lat="43.44747" lon="1.86074">
        <ele>304.8</ele>
        <time>2015-05-06T12:08:17.000Z</time>
      </trkpt>
      <trkpt lat="43.44754" lon="1.86066">
        <ele>305</ele>
        <time>2015-05-06T12:08:25.000Z</time>
      </trkpt>
      <trkpt lat="43.44761" lon="1.86057">
        <ele>305.2</ele>
        <time>2015-05-06T12:08:34.000Z</time>
      </trkpt>
      <trkpt lat="43.44768" lon="1.86049">
        <ele>305.5</ele>
        <time>2015-05-06T12:08:42.000Z</time>
      </trkpt>
      <trkpt lat="43.44775" lon="1.8604">
        <ele>306</ele>
        <time>2015-05-06T12:08:50.000Z</time>
      </trkpt>
      <trkpt lat="43.44782" lon="1.86031">
        <ele>306.3</ele>
        <time>2015-05-06T12:08:58.000Z</time>
      </trkpt>
      <trkpt lat="43.4479" lon="1.86023">
        <ele>306.5</ele>
        <time>2015-05-06T12:09:6.000Z</time>
      </trkpt>
      <trkpt lat="43.44797" lon="1.86014">
        <ele>306.8</ele>
        <time>2015-05-06T12:09:14.000Z</time>
      </trkpt>
      <trkpt lat="43.44803" lon="1.86005">
        <ele>307.2</ele>
        <time>2015-05-06T12:09:22.000Z</time>
      </trkpt>
      <trkpt lat="43.4481" lon="1.85996">
        <ele>307.6</ele>
        <time>2015-05-06T12:09:30.000Z</time>
      </trkpt>
      <trkpt lat="43.44818" lon="1.85987">
        <ele>307.7</ele>
        <time>2015-05-06T12:09:38.000Z</time>
      </trkpt>
      <trkpt lat="43.44825" lon="1.85978">
        <ele>307.8</ele>
        <time>2015-05-06T12:09:46.000Z</time>
      </trkpt>
      <trkpt lat="43.44832" lon="1.85968">
        <ele>307.8</ele>
        <time>2015-05-06T12:09:54.000Z</time>
      </trkpt>
      <trkpt lat="43.44839" lon="1.8596">
        <ele>307.8</ele>
        <time>2015-05-06T12:10:1.000Z</time>
      </trkpt>
      <trkpt lat="43.44845" lon="1.8595">
        <ele>307.8</ele>
        <time>2015-05-06T12:10:9.000Z</time>
      </trkpt>
      <trkpt lat="43.44853" lon="1.85941">
        <ele>307.7</ele>
        <time>2015-05-06T12:10:17.000Z</time>
      </trkpt>
      <trkpt lat="43.4486" lon="1.85932">
        <ele>307.3</ele>
        <time>2015-05-06T12:10:25.000Z</time>
      </trkpt>
      <trkpt lat="43.44868" lon="1.85923">
        <ele>306.6</ele>
        <time>2015-05-06T12:10:33.000Z</time>
      </trkpt>
      <trkpt lat="43.44875" lon="1.85915">
        <ele>306.1</ele>
        <time>2015-05-06T12:10:40.000Z</time>
      </trkpt>
      <trkpt lat="43.44882" lon="1.85906">
        <ele>305.5</ele>
        <time>2015-05-06T12:10:47.000Z</time>
      </trkpt>
      <trkpt lat="43.44889" lon="1.85897">
        <ele>305</ele>
        <time>2015-05-06T12:10:55.000Z</time>
      </trkpt>
      <trkpt lat="43.44896" lon="1.85889">
        <ele>304.4</ele>
        <time>2015-05-06T12:11:2.000Z</time>
      </trkpt>
      <trkpt lat="43.44904" lon="1.85879">
        <ele>303.6</ele>
        <time>2015-05-06T12:11:11.000Z</time>
      </trkpt>
      <trkpt lat="43.44911" lon="1.85869">
        <ele>303.1</ele>
        <time>2015-05-06T12:11:19.000Z</time>
      </trkpt>
      <trkpt lat="43.44918" lon="1.8586">
        <ele>302.3</ele>
        <time>2015-05-06T12:11:27.000Z</time>
      </trkpt>
      <trkpt lat="43.44927" lon="1.85852">
        <ele>301.6</ele>
        <time>2015-05-06T12:11:35.000Z</time>
      </trkpt>
      <trkpt lat="43.44935" lon="1.85844">
        <ele>301.2</ele>
        <time>2015-05-06T12:11:43.000Z</time>
      </trkpt>
      <trkpt lat="43.44943" lon="1.85838">
        <ele>300.6</ele>
        <time>2015-05-06T12:11:51.000Z</time>
      </trkpt>
      <trkpt lat="43.44951" lon="1.85831">
        <ele>300</ele>
        <time>2015-05-06T12:11:58.000Z</time>
      </trkpt>
      <trkpt lat="43.44959" lon="1.85824">
        <ele>299.5</ele>
        <time>2015-05-06T12:12:6.000Z</time>
      </trkpt>
      <trkpt lat="43.44967" lon="1.85817">
        <ele>299</ele>
        <time>2015-05-06T12:12:13.000Z</time>
      </trkpt>
      <trkpt lat="43.44975" lon="1.8581">
        <ele>298.5</ele>
        <time>2015-05-06T12:12:20.000Z</time>
      </trkpt>
      <trkpt lat="43.44983" lon="1.85803">
        <ele>298</ele>
        <time>2015-05-06T12:12:28.000Z</time>
      </trkpt>
      <trkpt lat="43.44992" lon="1.85797">
        <ele>297.4</ele>
        <time>2015-05-06T12:12:36.000Z</time>
      </trkpt>
      <trkpt lat="43.45001" lon="1.85791">
        <ele>297</ele>
        <time>2015-05-06T12:12:44.000Z</time>
      </trkpt>
      <trkpt lat="43.4501" lon="1.85784">
        <ele>296.7</ele>
        <time>2015-05-06T12:12:52.000Z</time>
      </trkpt>
      <trkpt lat="43.45019" lon="1.85777">
        <ele>296.5</ele>
        <time>2015-05-06T12:13:0.000Z</time>
      </trkpt>
      <trkpt lat="43.45027" lon="1.85769">
        <ele>296.1</ele>
        <time>2015-05-06T12:13:8.000Z</time>
      </trkpt>
      <trkpt lat="43.45036" lon="1.85763">
        <ele>295.7</ele>
        <time>2015-05-06T12:13:16.000Z</time>
      </trkpt>
      <trkpt lat="43.45044" lon="1.85757">
        <ele>295.4</ele>
        <time>2015-05-06T12:13:23.000Z</time>
      </trkpt>
      <trkpt lat="43.45053" lon="1.85749">
        <ele>295.1</ele>
        <time>2015-05-06T12:13:31.000Z</time>
      </trkpt>
      <trkpt lat="43.45062" lon="1.85742">
        <ele>294.8</ele>
        <time>2015-05-06T12:13:39.000Z</time>
      </trkpt>
      <trkpt lat="43.4507" lon="1.85735">
        <ele>294.5</ele>
        <time>2015-05-06T12:13:47.000Z</time>
      </trkpt>
      <trkpt lat="43.45079" lon="1.85728">
        <ele>294.3</ele>
        <time>2015-05-06T12:13:55.000Z</time>
      </trkpt>
      <trkpt lat="43.45087" lon="1.85721">
        <ele>294.2</ele>
        <time>2015-05-06T12:14:3.000Z</time>
      </trkpt>
      <trkpt lat="43.45094" lon="1.85714">
        <ele>293.9</ele>
        <time>2015-05-06T12:14:11.000Z</time>
      </trkpt>
      <trkpt lat="43.45103" lon="1.85707">
        <ele>293.7</ele>
        <time>2015-05-06T12:14:19.000Z</time>
      </trkpt>
      <trkpt lat="43.4511" lon="1.85701">
        <ele>293.5</ele>
        <time>2015-05-06T12:14:26.000Z</time>
      </trkpt>
      <trkpt lat="43.45118" lon="1.85694">
        <ele>293.3</ele>
        <time>2015-05-06T12:14:33.000Z</time>
      </trkpt>
      <trkpt lat="43.45126" lon="1.85687">
        <ele>293.1</ele>
        <time>2015-05-06T12:14:41.000Z</time>
      </trkpt>
      <trkpt lat="43.45134" lon="1.8568">
        <ele>292.8</ele>
        <time>2015-05-06T12:14:49.000Z</time>
      </trkpt>
      <trkpt lat="43.45142" lon="1.85673">
        <ele>292.5</ele>
        <time>2015-05-06T12:14:57.000Z</time>
      </trkpt>
      <trkpt lat="43.45151" lon="1.85667">
        <ele>292.3</ele>
        <time>2015-05-06T12:15:5.000Z</time>
      </trkpt>
      <trkpt lat="43.45159" lon="1.8566">
        <ele>292</ele>
        <time>2015-05-06T12:15:13.000Z</time>
      </trkpt>
      <trkpt lat="43.45167" lon="1.85654">
        <ele>291.8</ele>
        <time>2015-05-06T12:15:20.000Z</time>
      </trkpt>
      <trkpt lat="43.45176" lon="1.85647">
        <ele>291.7</ele>
        <time>2015-05-06T12:15:28.000Z</time>
      </trkpt>
      <trkpt lat="43.45184" lon="1.85641">
        <ele>291.5</ele>
        <time>2015-05-06T12:15:35.000Z</time>
      </trkpt>
      <trkpt lat="43.45192" lon="1.85635">
        <ele>291.4</ele>
        <time>2015-05-06T12:15:42.000Z</time>
      </trkpt>
      <trkpt lat="43.452" lon="1.85628">
        <ele>291.2</ele>
        <time>2015-05-06T12:15:49.000Z</time>
      </trkpt>
      <trkpt lat="43.45208" lon="1.8562">
        <ele>291.1</ele>
        <time>2015-05-06T12:15:57.000Z</time>
      </trkpt>
      <trkpt lat="43.45216" lon="1.85614">
        <ele>291</ele>
        <time>2015-05-06T12:16:5.000Z</time>
      </trkpt>
      <trkpt lat="43.45225" lon="1.85607">
        <ele>290.9</ele>
        <time>2015-05-06T12:16:13.000Z</time>
      </trkpt>
      <trkpt lat="43.45233" lon="1.856">
        <ele>290.7</ele>
        <time>2015-05-06T12:16:21.000Z</time>
      </trkpt>
      <trkpt lat="43.45241" lon="1.85592">
        <ele>290.6</ele>
        <time>2015-05-06T12:16:29.000Z</time>
      </trkpt>
      <trkpt lat="43.45249" lon="1.85585">
        <ele>290.4</ele>
        <time>2015-05-06T12:16:37.000Z</time>
      </trkpt>
      <trkpt lat="43.45257" lon="1.85578">
        <ele>290.2</ele>
        <time>2015-05-06T12:16:45.000Z</time>
      </trkpt>
      <trkpt lat="43.45265" lon="1.85572">
        <ele>290.1</ele>
        <time>2015-05-06T12:16:53.000Z</time>
      </trkpt>
      <trkpt lat="43.45274" lon="1.85565">
        <ele>290</ele>
        <time>2015-05-06T12:17:1.000Z</time>
      </trkpt>
      <trkpt lat="43.45283" lon="1.85558">
        <ele>289.8</ele>
        <time>2015-05-06T12:17:9.000Z</time>
      </trkpt>
      <trkpt lat="43.45291" lon="1.85551">
        <ele>289.7</ele>
        <time>2015-05-06T12:17:16.000Z</time>
      </trkpt>
      <trkpt lat="43.45299" lon="1.85544">
        <ele>289.6</ele>
        <time>2015-05-06T12:17:24.000Z</time>
      </trkpt>
      <trkpt lat="43.45307" lon="1.85537">
        <ele>289.4</ele>
        <time>2015-05-06T12:17:32.000Z</time>
      </trkpt>
      <trkpt lat="43.45315" lon="1.85531">
        <ele>289.2</ele>
        <time>2015-05-06T12:17:40.000Z</time>
      </trkpt>
      <trkpt lat="43.45323" lon="1.85524">
        <ele>289.1</ele>
        <time>2015-05-06T12:17:48.000Z</time>
      </trkpt>
      <trkpt lat="43.45332" lon="1.85518">
        <ele>288.9</ele>
        <time>2015-05-06T12:17:57.000Z</time>
      </trkpt>
      <trkpt lat="43.45341" lon="1.85512">
        <ele>288.4</ele>
        <time>2015-05-06T12:18:6.000Z</time>
      </trkpt>
      <trkpt lat="43.4535" lon="1.85506">
        <ele>285.6</ele>
        <time>2015-05-06T12:20:9.000Z</time>
      </trkpt>
      <trkpt lat="43.45358" lon="1.855">
        <ele>284.8</ele>
        <time>2015-05-06T12:22:56.000Z</time>
      </trkpt>
      <trkpt lat="43.45368" lon="1.85497">
        <ele>284.7</ele>
        <time>2015-05-06T12:23:7.000Z</time>
      </trkpt>
      <trkpt lat="43.45377" lon="1.85494">
        <ele>284.5</ele>
        <time>2015-05-06T12:23:15.000Z</time>
      </trkpt>
      <trkpt lat="43.45387" lon="1.8549">
        <ele>284.2</ele>
        <time>2015-05-06T12:23:24.000Z</time>
      </trkpt>
      <trkpt lat="43.45397" lon="1.85487">
        <ele>283.9</ele>
        <time>2015-05-06T12:23:33.000Z</time>
      </trkpt>
      <trkpt lat="43.45406" lon="1.85485">
        <ele>283.6</ele>
        <time>2015-05-06T12:23:42.000Z</time>
      </trkpt>
      <trkpt lat="43.45415" lon="1.85482">
        <ele>283.1</ele>
        <time>2015-05-06T12:23:50.000Z</time>
      </trkpt>
      <trkpt lat="43.45424" lon="1.85478">
        <ele>282.7</ele>
        <time>2015-05-06T12:23:57.000Z</time>
      </trkpt>
      <trkpt lat="43.45432" lon="1.85474">
        <ele>282.2</ele>
        <time>2015-05-06T12:24:4.000Z</time>
      </trkpt>
      <trkpt lat="43.45442" lon="1.85471">
        <ele>281.8</ele>
        <time>2015-05-06T12:24:12.000Z</time>
      </trkpt>
      <trkpt lat="43.45451" lon="1.85468">
        <ele>281.5</ele>
        <time>2015-05-06T12:24:19.000Z</time>
      </trkpt>
      <trkpt lat="43.4546" lon="1.85464">
        <ele>281.4</ele>
        <time>2015-05-06T12:24:26.000Z</time>
      </trkpt>
      <trkpt lat="43.45469" lon="1.8546">
        <ele>280.8</ele>
        <time>2015-05-06T12:24:34.000Z</time>
      </trkpt>
      <trkpt lat="43.45478" lon="1.85457">
        <ele>280.5</ele>
        <time>2015-05-06T12:24:41.000Z</time>
      </trkpt>
      <trkpt lat="43.45487" lon="1.85454">
        <ele>280.2</ele>
        <time>2015-05-06T12:24:48.000Z</time>
      </trkpt>
      <trkpt lat="43.45497" lon="1.8545">
        <ele>279.7</ele>
        <time>2015-05-06T12:24:56.000Z</time>
      </trkpt>
      <trkpt lat="43.45506" lon="1.85446">
        <ele>279.2</ele>
        <time>2015-05-06T12:25:4.000Z</time>
      </trkpt>
      <trkpt lat="43.45516" lon="1.85443">
        <ele>278.8</ele>
        <time>2015-05-06T12:25:11.000Z</time>
      </trkpt>
      <trkpt lat="43.45525" lon="1.85439">
        <ele>278.3</ele>
        <time>2015-05-06T12:25:19.000Z</time>
      </trkpt>
      <trkpt lat="43.45535" lon="1.85435">
        <ele>277.8</ele>
        <time>2015-05-06T12:25:27.000Z</time>
      </trkpt>
      <trkpt lat="43.45545" lon="1.85432">
        <ele>277.4</ele>
        <time>2015-05-06T12:25:34.000Z</time>
      </trkpt>
      <trkpt lat="43.45554" lon="1.85429">
        <ele>276.9</ele>
        <time>2015-05-06T12:25:41.000Z</time>
      </trkpt>
      <trkpt lat="43.45564" lon="1.85426">
        <ele>276.3</ele>
        <time>2015-05-06T12:25:49.000Z</time>
      </trkpt>
      <trkpt lat="43.45573" lon="1.85422">
        <ele>275.6</ele>
        <time>2015-05-06T12:25:57.000Z</time>
      </trkpt>
      <trkpt lat="43.45582" lon="1.85419">
        <ele>274.5</ele>
        <time>2015-05-06T12:26:7.000Z</time>
      </trkpt>
      <trkpt lat="43.45588" lon="1.85408">
        <ele>273.7</ele>
        <time>2015-05-06T12:26:17.000Z</time>
      </trkpt>
      <trkpt lat="43.45578" lon="1.85399">
        <ele>271.9</ele>
        <time>2015-05-06T12:26:55.000Z</time>
      </trkpt>
      <trkpt lat="43.4557" lon="1.85393">
        <ele>271.7</ele>
        <time>2015-05-06T12:27:9.000Z</time>
      </trkpt>
      <trkpt lat="43.45561" lon="1.85387">
        <ele>271.6</ele>
        <time>2015-05-06T12:27:20.000Z</time>
      </trkpt>
      <trkpt lat="43.45553" lon="1.85381">
        <ele>271.6</ele>
        <time>2015-05-06T12:27:30.000Z</time>
      </trkpt>
      <trkpt lat="43.45545" lon="1.85374">
        <ele>271.7</ele>
        <time>2015-05-06T12:27:40.000Z</time>
      </trkpt>
      <trkpt lat="43.45536" lon="1.85368">
        <ele>272</ele>
        <time>2015-05-06T12:27:50.000Z</time>
      </trkpt>
      <trkpt lat="43.45528" lon="1.85361">
        <ele>272.5</ele>
        <time>2015-05-06T12:27:59.000Z</time>
      </trkpt>
      <trkpt lat="43.45519" lon="1.85354">
        <ele>273.1</ele>
        <time>2015-05-06T12:28:8.000Z</time>
      </trkpt>
      <trkpt lat="43.45511" lon="1.85347">
        <ele>273.5</ele>
        <time>2015-05-06T12:28:17.000Z</time>
      </trkpt>
      <trkpt lat="43.45503" lon="1.8534">
        <ele>273.7</ele>
        <time>2015-05-06T12:28:26.000Z</time>
      </trkpt>
      <trkpt lat="43.45495" lon="1.85333">
        <ele>273.9</ele>
        <time>2015-05-06T12:28:34.000Z</time>
      </trkpt>
      <trkpt lat="43.45487" lon="1.85327">
        <ele>274.1</ele>
        <time>2015-05-06T12:28:42.000Z</time>
      </trkpt>
      <trkpt lat="43.45479" lon="1.8532">
        <ele>274.3</ele>
        <time>2015-05-06T12:28:51.000Z</time>
      </trkpt>
      <trkpt lat="43.45471" lon="1.85314">
        <ele>274.6</ele>
        <time>2015-05-06T12:29:0.000Z</time>
      </trkpt>
      <trkpt lat="43.45462" lon="1.85307">
        <ele>274.7</ele>
        <time>2015-05-06T12:29:9.000Z</time>
      </trkpt>
      <trkpt lat="43.45454" lon="1.853">
        <ele>275.1</ele>
        <time>2015-05-06T12:29:17.000Z</time>
      </trkpt>
      <trkpt lat="43.45446" lon="1.85293">
        <ele>275.4</ele>
        <time>2015-05-06T12:29:26.000Z</time>
      </trkpt>
      <trkpt lat="43.45438" lon="1.85285">
        <ele>275.5</ele>
        <time>2015-05-06T12:29:34.000Z</time>
      </trkpt>
      <trkpt lat="43.45431" lon="1.85277">
        <ele>275.8</ele>
        <time>2015-05-06T12:29:42.000Z</time>
      </trkpt>
      <trkpt lat="43.45422" lon="1.85277">
        <ele>276.2</ele>
        <time>2015-05-06T12:30:17.000Z</time>
      </trkpt>
      <trkpt lat="43.45414" lon="1.85286">
        <ele>276.2</ele>
        <time>2015-05-06T12:30:27.000Z</time>
      </trkpt>
      <trkpt lat="43.45409" lon="1.85296">
        <ele>276.2</ele>
        <time>2015-05-06T12:30:37.000Z</time>
      </trkpt>
      <trkpt lat="43.45403" lon="1.85307">
        <ele>276.1</ele>
        <time>2015-05-06T12:30:48.000Z</time>
      </trkpt>
      <trkpt lat="43.45398" lon="1.85317">
        <ele>276.1</ele>
        <time>2015-05-06T12:30:57.000Z</time>
      </trkpt>
      <trkpt lat="43.45391" lon="1.85327">
        <ele>276</ele>
        <time>2015-05-06T12:31:7.000Z</time>
      </trkpt>
      <trkpt lat="43.45383" lon="1.85332">
        <ele>276</ele>
        <time>2015-05-06T12:31:17.000Z</time>
      </trkpt>
      <trkpt lat="43.45376" lon="1.85322">
        <ele>276.3</ele>
        <time>2015-05-06T12:31:26.000Z</time>
      </trkpt>
      <trkpt lat="43.4537" lon="1.85312">
        <ele>276.4</ele>
        <time>2015-05-06T12:31:34.000Z</time>
      </trkpt>
      <trkpt lat="43.45363" lon="1.85302">
        <ele>276.3</ele>
        <time>2015-05-06T12:31:42.000Z</time>
      </trkpt>
      <trkpt lat="43.45357" lon="1.85293">
        <ele>276.2</ele>
        <time>2015-05-06T12:31:50.000Z</time>
      </trkpt>
      <trkpt lat="43.4535" lon="1.85284">
        <ele>275.5</ele>
        <time>2015-05-06T12:31:58.000Z</time>
      </trkpt>
      <trkpt lat="43.45344" lon="1.85275">
        <ele>274.8</ele>
        <time>2015-05-06T12:32:6.000Z</time>
      </trkpt>
      <trkpt lat="43.45338" lon="1.85265">
        <ele>274.2</ele>
        <time>2015-05-06T12:32:14.000Z</time>
      </trkpt>
      <trkpt lat="43.4533" lon="1.85257">
        <ele>273.7</ele>
        <time>2015-05-06T12:32:22.000Z</time>
      </trkpt>
      <trkpt lat="43.45324" lon="1.85248">
        <ele>272.9</ele>
        <time>2015-05-06T12:32:30.000Z</time>
      </trkpt>
      <trkpt lat="43.45317" lon="1.8524">
        <ele>272.4</ele>
        <time>2015-05-06T12:32:38.000Z</time>
      </trkpt>
      <trkpt lat="43.4531" lon="1.85231">
        <ele>271.8</ele>
        <time>2015-05-06T12:32:47.000Z</time>
      </trkpt>
      <trkpt lat="43.45303" lon="1.85221">
        <ele>271.1</ele>
        <time>2015-05-06T12:32:55.000Z</time>
      </trkpt>
      <trkpt lat="43.45297" lon="1.85213">
        <ele>270.4</ele>
        <time>2015-05-06T12:33:3.000Z</time>
      </trkpt>
      <trkpt lat="43.4529" lon="1.85203">
        <ele>269.7</ele>
        <time>2015-05-06T12:33:11.000Z</time>
      </trkpt>
      <trkpt lat="43.45283" lon="1.85193">
        <ele>268.7</ele>
        <time>2015-05-06T12:33:20.000Z</time>
      </trkpt>
      <trkpt lat="43.45277" lon="1.85184">
        <ele>267.8</ele>
        <time>2015-05-06T12:33:29.000Z</time>
      </trkpt>
      <trkpt lat="43.45275" lon="1.85171">
        <ele>266.5</ele>
        <time>2015-05-06T12:33:40.000Z</time>
      </trkpt>
      <trkpt lat="43.45283" lon="1.85161">
        <ele>265.7</ele>
        <time>2015-05-06T12:33:49.000Z</time>
      </trkpt>
      <trkpt lat="43.45286" lon="1.85149">
        <ele>265</ele>
        <time>2015-05-06T12:33:58.000Z</time>
      </trkpt>
      <trkpt lat="43.45279" lon="1.85141">
        <ele>264.5</ele>
        <time>2015-05-06T12:34:7.000Z</time>
      </trkpt>
      <trkpt lat="43.45271" lon="1.85133">
        <ele>264</ele>
        <time>2015-05-06T12:34:16.000Z</time>
      </trkpt>
      <trkpt lat="43.45264" lon="1.85125">
        <ele>264</ele>
        <time>2015-05-06T12:34:26.000Z</time>
      </trkpt>
      <trkpt lat="43.45256" lon="1.85117">
        <ele>264.4</ele>
        <time>2015-05-06T12:34:35.000Z</time>
      </trkpt>
      <trkpt lat="43.45248" lon="1.85109">
        <ele>264.8</ele>
        <time>2015-05-06T12:34:44.000Z</time>
      </trkpt>
      <trkpt lat="43.45241" lon="1.85102">
        <ele>265.9</ele>
        <time>2015-05-06T12:34:53.000Z</time>
      </trkpt>
      <trkpt lat="43.45233" lon="1.85094">
        <ele>266.5</ele>
        <time>2015-05-06T12:35:1.000Z</time>
      </trkpt>
      <trkpt lat="43.45226" lon="1.85087">
        <ele>267.3</ele>
        <time>2015-05-06T12:35:10.000Z</time>
      </trkpt>
      <trkpt lat="43.45219" lon="1.85079">
        <ele>268.1</ele>
        <time>2015-05-06T12:35:19.000Z</time>
      </trkpt>
      <trkpt lat="43.45211" lon="1.85071">
        <ele>269</ele>
        <time>2015-05-06T12:35:28.000Z</time>
      </trkpt>
      <trkpt lat="43.45204" lon="1.85064">
        <ele>269.5</ele>
        <time>2015-05-06T12:35:36.000Z</time>
      </trkpt>
      <trkpt lat="43.45195" lon="1.85057">
        <ele>270.5</ele>
        <time>2015-05-06T12:35:46.000Z</time>
      </trkpt>
      <trkpt lat="43.45187" lon="1.85051">
        <ele>270.9</ele>
        <time>2015-05-06T12:35:55.000Z</time>
      </trkpt>
      <trkpt lat="43.45179" lon="1.85044">
        <ele>271.2</ele>
        <time>2015-05-06T12:36:4.000Z</time>
      </trkpt>
      <trkpt lat="43.45172" lon="1.85037">
        <ele>271.4</ele>
        <time>2015-05-06T12:36:13.000Z</time>
      </trkpt>
      <trkpt lat="43.45164" lon="1.8503">
        <ele>271.7</ele>
        <time>2015-05-06T12:36:21.000Z</time>
      </trkpt>
      <trkpt lat="43.45156" lon="1.85023">
        <ele>272</ele>
        <time>2015-05-06T12:36:29.000Z</time>
      </trkpt>
      <trkpt lat="43.45148" lon="1.85016">
        <ele>272.3</ele>
        <time>2015-05-06T12:36:37.000Z</time>
      </trkpt>
      <trkpt lat="43.4514" lon="1.8501">
        <ele>272.5</ele>
        <time>2015-05-06T12:36:44.000Z</time>
      </trkpt>
      <trkpt lat="43.45132" lon="1.85002">
        <ele>272.7</ele>
        <time>2015-05-06T12:36:52.000Z</time>
      </trkpt>
      <trkpt lat="43.45125" lon="1.84995">
        <ele>272.7</ele>
        <time>2015-05-06T12:37:0.000Z</time>
      </trkpt>
      <trkpt lat="43.45117" lon="1.84987">
        <ele>272.7</ele>
        <time>2015-05-06T12:37:9.000Z</time>
      </trkpt>
      <trkpt lat="43.4511" lon="1.84978">
        <ele>272.7</ele>
        <time>2015-05-06T12:37:19.000Z</time>
      </trkpt>
      <trkpt lat="43.45104" lon="1.8497">
        <ele>272.7</ele>
        <time>2015-05-06T12:37:27.000Z</time>
      </trkpt>
      <trkpt lat="43.45095" lon="1.84963">
        <ele>272.6</ele>
        <time>2015-05-06T12:37:36.000Z</time>
      </trkpt>
      <trkpt lat="43.45086" lon="1.84963">
        <ele>272.4</ele>
        <time>2015-05-06T12:37:46.000Z</time>
      </trkpt>
      <trkpt lat="43.45077" lon="1.84965">
        <ele>271.7</ele>
        <time>2015-05-06T12:37:57.000Z</time>
      </trkpt>
      <trkpt lat="43.45068" lon="1.84968">
        <ele>270.4</ele>
        <time>2015-05-06T12:38:11.000Z</time>
      </trkpt>
      <trkpt lat="43.45059" lon="1.8497">
        <ele>268.6</ele>
        <time>2015-05-06T12:38:25.000Z</time>
      </trkpt>
      <trkpt lat="43.4505" lon="1.84974">
        <ele>267.2</ele>
        <time>2015-05-06T12:38:36.000Z</time>
      </trkpt>
      <trkpt lat="43.45041" lon="1.84976">
        <ele>265.3</ele>
        <time>2015-05-06T12:38:48.000Z</time>
      </trkpt>
      <trkpt lat="43.45032" lon="1.84978">
        <ele>263</ele>
        <time>2015-05-06T12:39:0.000Z</time>
      </trkpt>
      <trkpt lat="43.45023" lon="1.84981">
        <ele>260.6</ele>
        <time>2015-05-06T12:39:11.000Z</time>
      </trkpt>
      <trkpt lat="43.45014" lon="1.84985">
        <ele>258.3</ele>
        <time>2015-05-06T12:39:20.000Z</time>
      </trkpt>
      <trkpt lat="43.45006" lon="1.8499">
        <ele>256</ele>
        <time>2015-05-06T12:39:30.000Z</time>
      </trkpt>
      <trkpt lat="43.44996" lon="1.84994">
        <ele>254.2</ele>
        <time>2015-05-06T12:39:38.000Z</time>
      </trkpt>
      <trkpt lat="43.44987" lon="1.84999">
        <ele>252.2</ele>
        <time>2015-05-06T12:39:48.000Z</time>
      </trkpt>
      <trkpt lat="43.44979" lon="1.85005">
        <ele>250.5</ele>
        <time>2015-05-06T12:39:58.000Z</time>
      </trkpt>
      <trkpt lat="43.4497" lon="1.8501">
        <ele>247.5</ele>
        <time>2015-05-06T12:40:50.000Z</time>
      </trkpt>
      <trkpt lat="43.44963" lon="1.85018">
        <ele>247.2</ele>
        <time>2015-05-06T12:41:25.000Z</time>
      </trkpt>
      <trkpt lat="43.44958" lon="1.85029">
        <ele>247.1</ele>
        <time>2015-05-06T12:41:38.000Z</time>
      </trkpt>
      <trkpt lat="43.44949" lon="1.85037">
        <ele>247.2</ele>
        <time>2015-05-06T12:41:47.000Z</time>
      </trkpt>
      <trkpt lat="43.44941" lon="1.85041">
        <ele>247.5</ele>
        <time>2015-05-06T12:41:57.000Z</time>
      </trkpt>
      <trkpt lat="43.44935" lon="1.85051">
        <ele>248.3</ele>
        <time>2015-05-06T12:42:7.000Z</time>
      </trkpt>
      <trkpt lat="43.44931" lon="1.85062">
        <ele>249.5</ele>
        <time>2015-05-06T12:42:18.000Z</time>
      </trkpt>
      <trkpt lat="43.44924" lon="1.85071">
        <ele>250.8</ele>
        <time>2015-05-06T12:42:30.000Z</time>
      </trkpt>
      <trkpt lat="43.44916" lon="1.85077">
        <ele>252</ele>
        <time>2015-05-06T12:42:40.000Z</time>
      </trkpt>
      <trkpt lat="43.44908" lon="1.85083">
        <ele>253</ele>
        <time>2015-05-06T12:42:50.000Z</time>
      </trkpt>
      <trkpt lat="43.44903" lon="1.85094">
        <ele>254</ele>
        <time>2015-05-06T12:43:1.000Z</time>
      </trkpt>
      <trkpt lat="43.44896" lon="1.85102">
        <ele>255.3</ele>
        <time>2015-05-06T12:43:13.000Z</time>
      </trkpt>
      <trkpt lat="43.44887" lon="1.85109">
        <ele>256.6</ele>
        <time>2015-05-06T12:43:25.000Z</time>
      </trkpt>
      <trkpt lat="43.44878" lon="1.85109">
        <ele>257.7</ele>
        <time>2015-05-06T12:43:35.000Z</time>
      </trkpt>
      <trkpt lat="43.44869" lon="1.85105">
        <ele>258.3</ele>
        <time>2015-05-06T12:43:44.000Z</time>
      </trkpt>
      <trkpt lat="43.4486" lon="1.85099">
        <ele>258.7</ele>
        <time>2015-05-06T12:43:54.000Z</time>
      </trkpt>
      <trkpt lat="43.44852" lon="1.85095">
        <ele>258.9</ele>
        <time>2015-05-06T12:44:4.000Z</time>
      </trkpt>
      <trkpt lat="43.44843" lon="1.8509">
        <ele>259.2</ele>
        <time>2015-05-06T12:44:15.000Z</time>
      </trkpt>
      <trkpt lat="43.44834" lon="1.85085">
        <ele>260.1</ele>
        <time>2015-05-06T12:44:27.000Z</time>
      </trkpt>
      <trkpt lat="43.44825" lon="1.8508">
        <ele>261.5</ele>
        <time>2015-05-06T12:44:40.000Z</time>
      </trkpt>
      <trkpt lat="43.44817" lon="1.85076">
        <ele>263.7</ele>
        <time>2015-05-06T12:44:58.000Z</time>
      </trkpt>
      <trkpt lat="43.44808" lon="1.85071">
        <ele>265</ele>
        <time>2015-05-06T12:45:10.000Z</time>
      </trkpt>
      <trkpt lat="43.44799" lon="1.85067">
        <ele>266.5</ele>
        <time>2015-05-06T12:45:23.000Z</time>
      </trkpt>
      <trkpt lat="43.4479" lon="1.85063">
        <ele>267.7</ele>
        <time>2015-05-06T12:45:35.000Z</time>
      </trkpt>
      <trkpt lat="43.44781" lon="1.85059">
        <ele>269.1</ele>
        <time>2015-05-06T12:45:47.000Z</time>
      </trkpt>
      <trkpt lat="43.44772" lon="1.85054">
        <ele>270.2</ele>
        <time>2015-05-06T12:45:59.000Z</time>
      </trkpt>
      <trkpt lat="43.44764" lon="1.85048">
        <ele>271.8</ele>
        <time>2015-05-06T12:46:12.000Z</time>
      </trkpt>
      <trkpt lat="43.44755" lon="1.85044">
        <ele>273.3</ele>
        <time>2015-05-06T12:46:24.000Z</time>
      </trkpt>
      <trkpt lat="43.44746" lon="1.8504">
        <ele>274.5</ele>
        <time>2015-05-06T12:46:36.000Z</time>
      </trkpt>
      <trkpt lat="43.44739" lon="1.85033">
        <ele>275.6</ele>
        <time>2015-05-06T12:46:47.000Z</time>
      </trkpt>
      <trkpt lat="43.44737" lon="1.8502">
        <ele>276.8</ele>
        <time>2015-05-06T12:46:58.000Z</time>
      </trkpt>
      <trkpt lat="43.4474" lon="1.85008">
        <ele>277.3</ele>
        <time>2015-05-06T12:47:7.000Z</time>
      </trkpt>
      <trkpt lat="43.44742" lon="1.84995">
        <ele>277.6</ele>
        <time>2015-05-06T12:47:16.000Z</time>
      </trkpt>
      <trkpt lat="43.44743" lon="1.84982">
        <ele>277.8</ele>
        <time>2015-05-06T12:47:25.000Z</time>
      </trkpt>
      <trkpt lat="43.44745" lon="1.84969">
        <ele>277.8</ele>
        <time>2015-05-06T12:47:34.000Z</time>
      </trkpt>
      <trkpt lat="43.44748" lon="1.84957">
        <ele>277.9</ele>
        <time>2015-05-06T12:47:42.000Z</time>
      </trkpt>
      <trkpt lat="43.44752" lon="1.84945">
        <ele>277.6</ele>
        <time>2015-05-06T12:47:51.000Z</time>
      </trkpt>
      <trkpt lat="43.44756" lon="1.84932">
        <ele>277.1</ele>
        <time>2015-05-06T12:48:1.000Z</time>
      </trkpt>
      <trkpt lat="43.44759" lon="1.84919">
        <ele>276.3</ele>
        <time>2015-05-06T12:48:12.000Z</time>
      </trkpt>
      <trkpt lat="43.44763" lon="1.84908">
        <ele>275.5</ele>
        <time>2015-05-06T12:48:20.000Z</time>
      </trkpt>
      <trkpt lat="43.44767" lon="1.84896">
        <ele>274.7</ele>
        <time>2015-05-06T12:48:29.000Z</time>
      </trkpt>
      <trkpt lat="43.44771" lon="1.84884">
        <ele>273.9</ele>
        <time>2015-05-06T12:48:38.000Z</time>
      </trkpt>
      <trkpt lat="43.44774" lon="1.84871">
        <ele>273.4</ele>
        <time>2015-05-06T12:48:47.000Z</time>
      </trkpt>
      <trkpt lat="43.44778" lon="1.84859">
        <ele>272.9</ele>
        <time>2015-05-06T12:48:55.000Z</time>
      </trkpt>
      <trkpt lat="43.44781" lon="1.84847">
        <ele>272.5</ele>
        <time>2015-05-06T12:49:4.000Z</time>
      </trkpt>
      <trkpt lat="43.44785" lon="1.84835">
        <ele>272.1</ele>
        <time>2015-05-06T12:49:12.000Z</time>
      </trkpt>
      <trkpt lat="43.44788" lon="1.84824">
        <ele>271.8</ele>
        <time>2015-05-06T12:49:20.000Z</time>
      </trkpt>
      <trkpt lat="43.44792" lon="1.84812">
        <ele>271.6</ele>
        <time>2015-05-06T12:49:28.000Z</time>
      </trkpt>
      <trkpt lat="43.44796" lon="1.848">
        <ele>271.5</ele>
        <time>2015-05-06T12:49:38.000Z</time>
      </trkpt>
      <trkpt lat="43.44799" lon="1.84786">
        <ele>271.4</ele>
        <time>2015-05-06T12:49:46.000Z</time>
      </trkpt>
      <trkpt lat="43.44798" lon="1.84774">
        <ele>271.1</ele>
        <time>2015-05-06T12:49:54.000Z</time>
      </trkpt>
      <trkpt lat="43.44796" lon="1.84761">
        <ele>270.5</ele>
        <time>2015-05-06T12:50:3.000Z</time>
      </trkpt>
      <trkpt lat="43.44795" lon="1.84748">
        <ele>269.6</ele>
        <time>2015-05-06T12:50:12.000Z</time>
      </trkpt>
      <trkpt lat="43.44794" lon="1.84736">
        <ele>268.4</ele>
        <time>2015-05-06T12:50:22.000Z</time>
      </trkpt>
      <trkpt lat="43.44791" lon="1.84723">
        <ele>267.1</ele>
        <time>2015-05-06T12:50:32.000Z</time>
      </trkpt>
      <trkpt lat="43.44786" lon="1.84712">
        <ele>265.8</ele>
        <time>2015-05-06T12:50:41.000Z</time>
      </trkpt>
      <trkpt lat="43.44791" lon="1.84702">
        <ele>263.2</ele>
        <time>2015-05-06T12:53:7.000Z</time>
      </trkpt>
      <trkpt lat="43.44792" lon="1.84689">
        <ele>263.6</ele>
        <time>2015-05-06T12:53:14.000Z</time>
      </trkpt>
      <trkpt lat="43.44795" lon="1.84676">
        <ele>263.3</ele>
        <time>2015-05-06T12:53:21.000Z</time>
      </trkpt>
      <trkpt lat="43.44797" lon="1.84663">
        <ele>262.8</ele>
        <time>2015-05-06T12:53:28.000Z</time>
      </trkpt>
      <trkpt lat="43.44799" lon="1.8465">
        <ele>261.9</ele>
        <time>2015-05-06T12:53:35.000Z</time>
      </trkpt>
      <trkpt lat="43.44802" lon="1.84638">
        <ele>260.7</ele>
        <time>2015-05-06T12:53:44.000Z</time>
      </trkpt>
      <trkpt lat="43.44805" lon="1.84625">
        <ele>259.2</ele>
        <time>2015-05-06T12:53:53.000Z</time>
      </trkpt>
      <trkpt lat="43.44809" lon="1.84613">
        <ele>257.7</ele>
        <time>2015-05-06T12:54:1.000Z</time>
      </trkpt>
      <trkpt lat="43.44812" lon="1.846">
        <ele>256.2</ele>
        <time>2015-05-06T12:54:9.000Z</time>
      </trkpt>
      <trkpt lat="43.44813" lon="1.84586">
        <ele>255.2</ele>
        <time>2015-05-06T12:54:16.000Z</time>
      </trkpt>
      <trkpt lat="43.44812" lon="1.84574">
        <ele>254.4</ele>
        <time>2015-05-06T12:54:21.000Z</time>
      </trkpt>
      <trkpt lat="43.44815" lon="1.84561">
        <ele>253.8</ele>
        <time>2015-05-06T12:54:26.000Z</time>
      </trkpt>
      <trkpt lat="43.44816" lon="1.84547">
        <ele>253</ele>
        <time>2015-05-06T12:54:32.000Z</time>
      </trkpt>
      <trkpt lat="43.44816" lon="1.84534">
        <ele>252.2</ele>
        <time>2015-05-06T12:54:38.000Z</time>
      </trkpt>
      <trkpt lat="43.44817" lon="1.84521">
        <ele>251.3</ele>
        <time>2015-05-06T12:54:44.000Z</time>
      </trkpt>
      <trkpt lat="43.44819" lon="1.84507">
        <ele>250.5</ele>
        <time>2015-05-06T12:54:51.000Z</time>
      </trkpt>
      <trkpt lat="43.4482" lon="1.84494">
        <ele>249.6</ele>
        <time>2015-05-06T12:54:58.000Z</time>
      </trkpt>
      <trkpt lat="43.44821" lon="1.8448">
        <ele>248.8</ele>
        <time>2015-05-06T12:55:5.000Z</time>
      </trkpt>
      <trkpt lat="43.44823" lon="1.84467">
        <ele>247.8</ele>
        <time>2015-05-06T12:55:12.000Z</time>
      </trkpt>
      <trkpt lat="43.44824" lon="1.84454">
        <ele>246.7</ele>
        <time>2015-05-06T12:55:21.000Z</time>
      </trkpt>
      <trkpt lat="43.44826" lon="1.84441">
        <ele>245.7</ele>
        <time>2015-05-06T12:55:29.000Z</time>
      </trkpt>
      <trkpt lat="43.44828" lon="1.84427">
        <ele>244.7</ele>
        <time>2015-05-06T12:55:37.000Z</time>
      </trkpt>
      <trkpt lat="43.44831" lon="1.84415">
        <ele>243.9</ele>
        <time>2015-05-06T12:55:44.000Z</time>
      </trkpt>
      <trkpt lat="43.44832" lon="1.84403">
        <ele>243.2</ele>
        <time>2015-05-06T12:55:51.000Z</time>
      </trkpt>
      <trkpt lat="43.44834" lon="1.84389">
        <ele>242.2</ele>
        <time>2015-05-06T12:55:58.000Z</time>
      </trkpt>
      <trkpt lat="43.44835" lon="1.84376">
        <ele>241.6</ele>
        <time>2015-05-06T12:56:3.000Z</time>
      </trkpt>
      <trkpt lat="43.44837" lon="1.84363">
        <ele>241</ele>
        <time>2015-05-06T12:56:8.000Z</time>
      </trkpt>
      <trkpt lat="43.44837" lon="1.8435">
        <ele>240.2</ele>
        <time>2015-05-06T12:56:14.000Z</time>
      </trkpt>
      <trkpt lat="43.44838" lon="1.84337">
        <ele>239.3</ele>
        <time>2015-05-06T12:56:20.000Z</time>
      </trkpt>
      <trkpt lat="43.4484" lon="1.84324">
        <ele>238.1</ele>
        <time>2015-05-06T12:56:27.000Z</time>
      </trkpt>
      <trkpt lat="43.44843" lon="1.84312">
        <ele>237.1</ele>
        <time>2015-05-06T12:56:34.000Z</time>
      </trkpt>
      <trkpt lat="43.44844" lon="1.84299">
        <ele>236.1</ele>
        <time>2015-05-06T12:56:40.000Z</time>
      </trkpt>
      <trkpt lat="43.44846" lon="1.84286">
        <ele>235.2</ele>
        <time>2015-05-06T12:56:46.000Z</time>
      </trkpt>
      <trkpt lat="43.44847" lon="1.84272">
        <ele>234.1</ele>
        <time>2015-05-06T12:56:53.000Z</time>
      </trkpt>
      <trkpt lat="43.44849" lon="1.84259">
        <ele>233.3</ele>
        <time>2015-05-06T12:56:59.000Z</time>
      </trkpt>
      <trkpt lat="43.44849" lon="1.84246">
        <ele>232.8</ele>
        <time>2015-05-06T12:57:5.000Z</time>
      </trkpt>
      <trkpt lat="43.44847" lon="1.84234">
        <ele>231.9</ele>
        <time>2015-05-06T12:57:13.000Z</time>
      </trkpt>
      <trkpt lat="43.44844" lon="1.84221">
        <ele>231.1</ele>
        <time>2015-05-06T12:57:20.000Z</time>
      </trkpt>
      <trkpt lat="43.44842" lon="1.84207">
        <ele>230.2</ele>
        <time>2015-05-06T12:57:27.000Z</time>
      </trkpt>
      <trkpt lat="43.4484" lon="1.84194">
        <ele>229.4</ele>
        <time>2015-05-06T12:57:34.000Z</time>
      </trkpt>
      <trkpt lat="43.44837" lon="1.8418">
        <ele>228.7</ele>
        <time>2015-05-06T12:57:41.000Z</time>
      </trkpt>
      <trkpt lat="43.44838" lon="1.84166">
        <ele>228</ele>
        <time>2015-05-06T12:57:48.000Z</time>
      </trkpt>
      <trkpt lat="43.44841" lon="1.84153">
        <ele>227.5</ele>
        <time>2015-05-06T12:57:55.000Z</time>
      </trkpt>
      <trkpt lat="43.44845" lon="1.84142">
        <ele>227.2</ele>
        <time>2015-05-06T12:58:0.000Z</time>
      </trkpt>
      <trkpt lat="43.4485" lon="1.84129">
        <ele>226.8</ele>
        <time>2015-05-06T12:58:6.000Z</time>
      </trkpt>
      <trkpt lat="43.44853" lon="1.84117">
        <ele>226.4</ele>
        <time>2015-05-06T12:58:12.000Z</time>
      </trkpt>
      <trkpt lat="43.44857" lon="1.84104">
        <ele>226</ele>
        <time>2015-05-06T12:58:19.000Z</time>
      </trkpt>
      <trkpt lat="43.4486" lon="1.84091">
        <ele>225.7</ele>
        <time>2015-05-06T12:58:26.000Z</time>
      </trkpt>
      <trkpt lat="43.44864" lon="1.84077">
        <ele>225.6</ele>
        <time>2015-05-06T12:58:33.000Z</time>
      </trkpt>
      <trkpt lat="43.44868" lon="1.84065">
        <ele>225.6</ele>
        <time>2015-05-06T12:58:40.000Z</time>
      </trkpt>
      <trkpt lat="43.44871" lon="1.84052">
        <ele>225.7</ele>
        <time>2015-05-06T12:58:47.000Z</time>
      </trkpt>
      <trkpt lat="43.44875" lon="1.84041">
        <ele>225.7</ele>
        <time>2015-05-06T12:58:54.000Z</time>
      </trkpt>
      <trkpt lat="43.44878" lon="1.84028">
        <ele>225.6</ele>
        <time>2015-05-06T12:59:1.000Z</time>
      </trkpt>
      <trkpt lat="43.44883" lon="1.84017">
        <ele>225.6</ele>
        <time>2015-05-06T12:59:8.000Z</time>
      </trkpt>
      <trkpt lat="43.44886" lon="1.84004">
        <ele>225.8</ele>
        <time>2015-05-06T12:59:15.000Z</time>
      </trkpt>
      <trkpt lat="43.4489" lon="1.83992">
        <ele>225.8</ele>
        <time>2015-05-06T12:59:22.000Z</time>
      </trkpt>
      <trkpt lat="43.44894" lon="1.83979">
        <ele>225.6</ele>
        <time>2015-05-06T12:59:30.000Z</time>
      </trkpt>
      <trkpt lat="43.44898" lon="1.83967">
        <ele>225.5</ele>
        <time>2015-05-06T12:59:39.000Z</time>
      </trkpt>
      <trkpt lat="43.44902" lon="1.83955">
        <ele>225.5</ele>
        <time>2015-05-06T12:59:47.000Z</time>
      </trkpt>
      <trkpt lat="43.44905" lon="1.83944">
        <ele>225.5</ele>
        <time>2015-05-06T12:59:55.000Z</time>
      </trkpt>
      <trkpt lat="43.44909" lon="1.83931">
        <ele>225.6</ele>
        <time>2015-05-06T13:00:4.000Z</time>
      </trkpt>
      <trkpt lat="43.44913" lon="1.83919">
        <ele>225.6</ele>
        <time>2015-05-06T13:00:13.000Z</time>
      </trkpt>
      <trkpt lat="43.44912" lon="1.83906">
        <ele>225.7</ele>
        <time>2015-05-06T13:00:55.000Z</time>
      </trkpt>
      <trkpt lat="43.44905" lon="1.83897">
        <ele>225.8</ele>
        <time>2015-05-06T13:01:3.000Z</time>
      </trkpt>
      <trkpt lat="43.44898" lon="1.8389">
        <ele>225.7</ele>
        <time>2015-05-06T13:01:11.000Z</time>
      </trkpt>
      <trkpt lat="43.44891" lon="1.83881">
        <ele>225.5</ele>
        <time>2015-05-06T13:01:19.000Z</time>
      </trkpt>
      <trkpt lat="43.44885" lon="1.83872">
        <ele>225.4</ele>
        <time>2015-05-06T13:01:26.000Z</time>
      </trkpt>
      <trkpt lat="43.44877" lon="1.83865">
        <ele>225.3</ele>
        <time>2015-05-06T13:01:33.000Z</time>
      </trkpt>
      <trkpt lat="43.44871" lon="1.83856">
        <ele>225</ele>
        <time>2015-05-06T13:01:40.000Z</time>
      </trkpt>
      <trkpt lat="43.44865" lon="1.83846">
        <ele>224.8</ele>
        <time>2015-05-06T13:01:48.000Z</time>
      </trkpt>
      <trkpt lat="43.44859" lon="1.83834">
        <ele>224.6</ele>
        <time>2015-05-06T13:01:56.000Z</time>
      </trkpt>
      <trkpt lat="43.44857" lon="1.83822">
        <ele>224.6</ele>
        <time>2015-05-06T13:02:4.000Z</time>
      </trkpt>
      <trkpt lat="43.44854" lon="1.8381">
        <ele>224.1</ele>
        <time>2015-05-06T13:02:12.000Z</time>
      </trkpt>
      <trkpt lat="43.4485" lon="1.83798">
        <ele>223.7</ele>
        <time>2015-05-06T13:02:20.000Z</time>
      </trkpt>
      <trkpt lat="43.44845" lon="1.83787">
        <ele>223.2</ele>
        <time>2015-05-06T13:02:28.000Z</time>
      </trkpt>
      <trkpt lat="43.44841" lon="1.83775">
        <ele>223.2</ele>
        <time>2015-05-06T13:02:37.000Z</time>
      </trkpt>
      <trkpt lat="43.44838" lon="1.83762">
        <ele>223.1</ele>
        <time>2015-05-06T13:02:46.000Z</time>
      </trkpt>
      <trkpt lat="43.44835" lon="1.83749">
        <ele>222.9</ele>
        <time>2015-05-06T13:02:54.000Z</time>
      </trkpt>
      <trkpt lat="43.44833" lon="1.83737">
        <ele>222.8</ele>
        <time>2015-05-06T13:03:2.000Z</time>
      </trkpt>
      <trkpt lat="43.4483" lon="1.83723">
        <ele>222.7</ele>
        <time>2015-05-06T13:03:10.000Z</time>
      </trkpt>
      <trkpt lat="43.44829" lon="1.83709">
        <ele>222.7</ele>
        <time>2015-05-06T13:03:17.000Z</time>
      </trkpt>
      <trkpt lat="43.44828" lon="1.83695">
        <ele>222.8</ele>
        <time>2015-05-06T13:03:24.000Z</time>
      </trkpt>
      <trkpt lat="43.44828" lon="1.83682">
        <ele>222.8</ele>
        <time>2015-05-06T13:03:32.000Z</time>
      </trkpt>
      <trkpt lat="43.44828" lon="1.83669">
        <ele>223</ele>
        <time>2015-05-06T13:03:42.000Z</time>
      </trkpt>
      <trkpt lat="43.44827" lon="1.83655">
        <ele>222.9</ele>
        <time>2015-05-06T13:03:51.000Z</time>
      </trkpt>
      <trkpt lat="43.44826" lon="1.83642">
        <ele>222.8</ele>
        <time>2015-05-06T13:04:0.000Z</time>
      </trkpt>
      <trkpt lat="43.44825" lon="1.83628">
        <ele>222.7</ele>
        <time>2015-05-06T13:04:9.000Z</time>
      </trkpt>
      <trkpt lat="43.44825" lon="1.83614">
        <ele>222.6</ele>
        <time>2015-05-06T13:04:19.000Z</time>
      </trkpt>
      <trkpt lat="43.44825" lon="1.83601">
        <ele>222.6</ele>
        <time>2015-05-06T13:04:28.000Z</time>
      </trkpt>
      <trkpt lat="43.44827" lon="1.83588">
        <ele>222.6</ele>
        <time>2015-05-06T13:04:37.000Z</time>
      </trkpt>
      <trkpt lat="43.44829" lon="1.83575">
        <ele>222.7</ele>
        <time>2015-05-06T13:04:47.000Z</time>
      </trkpt>
      <trkpt lat="43.44833" lon="1.83563">
        <ele>222.9</ele>
        <time>2015-05-06T13:04:54.000Z</time>
      </trkpt>
      <trkpt lat="43.44838" lon="1.83552">
        <ele>223</ele>
        <time>2015-05-06T13:05:0.000Z</time>
      </trkpt>
      <trkpt lat="43.44843" lon="1.8354">
        <ele>223.2</ele>
        <time>2015-05-06T13:05:7.000Z</time>
      </trkpt>
      <trkpt lat="43.44845" lon="1.83527">
        <ele>223.3</ele>
        <time>2015-05-06T13:05:15.000Z</time>
      </trkpt>
      <trkpt lat="43.4485" lon="1.83516">
        <ele>223.3</ele>
        <time>2015-05-06T13:05:22.000Z</time>
      </trkpt>
      <trkpt lat="43.44856" lon="1.83506">
        <ele>223.3</ele>
        <time>2015-05-06T13:05:29.000Z</time>
      </trkpt>
      <trkpt lat="43.44864" lon="1.83497">
        <ele>223.3</ele>
        <time>2015-05-06T13:05:36.000Z</time>
      </trkpt>
      <trkpt lat="43.44871" lon="1.83487">
        <ele>223.2</ele>
        <time>2015-05-06T13:05:44.000Z</time>
      </trkpt>
      <trkpt lat="43.44877" lon="1.83477">
        <ele>223.2</ele>
        <time>2015-05-06T13:05:51.000Z</time>
      </trkpt>
      <trkpt lat="43.44882" lon="1.83466">
        <ele>223.2</ele>
        <time>2015-05-06T13:06:2.000Z</time>
      </trkpt>
      <trkpt lat="43.44885" lon="1.83453">
        <ele>223.4</ele>
        <time>2015-05-06T13:06:12.000Z</time>
      </trkpt>
      <trkpt lat="43.44885" lon="1.8344">
        <ele>223.2</ele>
        <time>2015-05-06T13:06:22.000Z</time>
      </trkpt>
      <trkpt lat="43.44883" lon="1.83426">
        <ele>223.1</ele>
        <time>2015-05-06T13:06:31.000Z</time>
      </trkpt>
      <trkpt lat="43.44882" lon="1.83413">
        <ele>223.1</ele>
        <time>2015-05-06T13:06:39.000Z</time>
      </trkpt>
      <trkpt lat="43.44881" lon="1.83401">
        <ele>223.1</ele>
        <time>2015-05-06T13:06:45.000Z</time>
      </trkpt>
      <trkpt lat="43.4488" lon="1.83389">
        <ele>223.1</ele>
        <time>2015-05-06T13:06:53.000Z</time>
      </trkpt>
      <trkpt lat="43.44879" lon="1.83376">
        <ele>223</ele>
        <time>2015-05-06T13:07:0.000Z</time>
      </trkpt>
      <trkpt lat="43.44878" lon="1.83364">
        <ele>222.9</ele>
        <time>2015-05-06T13:07:7.000Z</time>
      </trkpt>
      <trkpt lat="43.44876" lon="1.8335">
        <ele>222.8</ele>
        <time>2015-05-06T13:07:16.000Z</time>
      </trkpt>
      <trkpt lat="43.44874" lon="1.83337">
        <ele>222.8</ele>
        <time>2015-05-06T13:07:24.000Z</time>
      </trkpt>
      <trkpt lat="43.44872" lon="1.83323">
        <ele>222.8</ele>
        <time>2015-05-06T13:07:34.000Z</time>
      </trkpt>
      <trkpt lat="43.4487" lon="1.83311">
        <ele>222.5</ele>
        <time>2015-05-06T13:07:53.000Z</time>
      </trkpt>
      <trkpt lat="43.44868" lon="1.83298">
        <ele>222.3</ele>
        <time>2015-05-06T13:08:2.000Z</time>
      </trkpt>
      <trkpt lat="43.44866" lon="1.83284">
        <ele>222.2</ele>
        <time>2015-05-06T13:08:11.000Z</time>
      </trkpt>
      <trkpt lat="43.44864" lon="1.83271">
        <ele>222.1</ele>
        <time>2015-05-06T13:08:19.000Z</time>
      </trkpt>
      <trkpt lat="43.44863" lon="1.83259">
        <ele>222.1</ele>
        <time>2015-05-06T13:08:26.000Z</time>
      </trkpt>
      <trkpt lat="43.44862" lon="1.83246">
        <ele>222.1</ele>
        <time>2015-05-06T13:08:33.000Z</time>
      </trkpt>
      <trkpt lat="43.44861" lon="1.83232">
        <ele>221.9</ele>
        <time>2015-05-06T13:08:41.000Z</time>
      </trkpt>
      <trkpt lat="43.4486" lon="1.83219">
        <ele>221.8</ele>
        <time>2015-05-06T13:08:49.000Z</time>
      </trkpt>
      <trkpt lat="43.44859" lon="1.83206">
        <ele>221.9</ele>
        <time>2015-05-06T13:08:57.000Z</time>
      </trkpt>
      <trkpt lat="43.44857" lon="1.83193">
        <ele>221.9</ele>
        <time>2015-05-06T13:09:6.000Z</time>
      </trkpt>
      <trkpt lat="43.44855" lon="1.8318">
        <ele>221.9</ele>
        <time>2015-05-06T13:09:15.000Z</time>
      </trkpt>
      <trkpt lat="43.44854" lon="1.83167">
        <ele>221.8</ele>
        <time>2015-05-06T13:09:23.000Z</time>
      </trkpt>
      <trkpt lat="43.44852" lon="1.83154">
        <ele>221.7</ele>
        <time>2015-05-06T13:09:33.000Z</time>
      </trkpt>
      <trkpt lat="43.4485" lon="1.83141">
        <ele>221.6</ele>
        <time>2015-05-06T13:09:42.000Z</time>
      </trkpt>
      <trkpt lat="43.44848" lon="1.83128">
        <ele>221.6</ele>
        <time>2015-05-06T13:09:51.000Z</time>
      </trkpt>
      <trkpt lat="43.44846" lon="1.83115">
        <ele>221.6</ele>
        <time>2015-05-06T13:10:0.000Z</time>
      </trkpt>
      <trkpt lat="43.44845" lon="1.83102">
        <ele>221.6</ele>
        <time>2015-05-06T13:10:9.000Z</time>
      </trkpt>
      <trkpt lat="43.44844" lon="1.83088">
        <ele>221.7</ele>
        <time>2015-05-06T13:10:17.000Z</time>
      </trkpt>
      <trkpt lat="43.44843" lon="1.83075">
        <ele>221.7</ele>
        <time>2015-05-06T13:10:26.000Z</time>
      </trkpt>
      <trkpt lat="43.44842" lon="1.83062">
        <ele>221.8</ele>
        <time>2015-05-06T13:10:34.000Z</time>
      </trkpt>
      <trkpt lat="43.44841" lon="1.83049">
        <ele>221.7</ele>
        <time>2015-05-06T13:10:42.000Z</time>
      </trkpt>
      <trkpt lat="43.4484" lon="1.83036">
        <ele>221.7</ele>
        <time>2015-05-06T13:10:50.000Z</time>
      </trkpt>
      <trkpt lat="43.44837" lon="1.83022">
        <ele>221.7</ele>
        <time>2015-05-06T13:10:59.000Z</time>
      </trkpt>
      <trkpt lat="43.44834" lon="1.8301">
        <ele>221.7</ele>
        <time>2015-05-06T13:11:8.000Z</time>
      </trkpt>
      <trkpt lat="43.44829" lon="1.82997">
        <ele>221.5</ele>
        <time>2015-05-06T13:11:18.000Z</time>
      </trkpt>
      <trkpt lat="43.44829" lon="1.82984">
        <ele>221.3</ele>
        <time>2015-05-06T13:11:27.000Z</time>
      </trkpt>
      <trkpt lat="43.44832" lon="1.82972">
        <ele>221.1</ele>
        <time>2015-05-06T13:11:35.000Z</time>
      </trkpt>
      <trkpt lat="43.44836" lon="1.8296">
        <ele>221.1</ele>
        <time>2015-05-06T13:11:43.000Z</time>
      </trkpt>
      <trkpt lat="43.44838" lon="1.82948">
        <ele>221</ele>
        <time>2015-05-06T13:11:50.000Z</time>
      </trkpt>
      <trkpt lat="43.44841" lon="1.82935">
        <ele>221</ele>
        <time>2015-05-06T13:11:59.000Z</time>
      </trkpt>
      <trkpt lat="43.44842" lon="1.82922">
        <ele>221</ele>
        <time>2015-05-06T13:12:7.000Z</time>
      </trkpt>
      <trkpt lat="43.44844" lon="1.82909">
        <ele>220.9</ele>
        <time>2015-05-06T13:12:15.000Z</time>
      </trkpt>
      <trkpt lat="43.44844" lon="1.82896">
        <ele>220.9</ele>
        <time>2015-05-06T13:12:23.000Z</time>
      </trkpt>
      <trkpt lat="43.44843" lon="1.82884">
        <ele>220.9</ele>
        <time>2015-05-06T13:12:31.000Z</time>
      </trkpt>
      <trkpt lat="43.44842" lon="1.8287">
        <ele>220.8</ele>
        <time>2015-05-06T13:12:39.000Z</time>
      </trkpt>
      <trkpt lat="43.44842" lon="1.82858">
        <ele>220.7</ele>
        <time>2015-05-06T13:12:47.000Z</time>
      </trkpt>
      <trkpt lat="43.4485" lon="1.8285">
        <ele>220.7</ele>
        <time>2015-05-06T13:12:57.000Z</time>
      </trkpt>
      <trkpt lat="43.44859" lon="1.8285">
        <ele>220.8</ele>
        <time>2015-05-06T13:13:7.000Z</time>
      </trkpt>
      <trkpt lat="43.44869" lon="1.82851">
        <ele>220.8</ele>
        <time>2015-05-06T13:13:16.000Z</time>
      </trkpt>
      <trkpt lat="43.44879" lon="1.82851">
        <ele>221</ele>
        <time>2015-05-06T13:13:25.000Z</time>
      </trkpt>
      <trkpt lat="43.44888" lon="1.82847">
        <ele>221.3</ele>
        <time>2015-05-06T13:13:37.000Z</time>
      </trkpt>
      <trkpt lat="43.44894" lon="1.82839">
        <ele>223.6</ele>
        <time>2015-05-06T13:16:40.000Z</time>
      </trkpt>
      <trkpt lat="43.44904" lon="1.82841">
        <ele>223.6</ele>
        <time>2015-05-06T13:16:52.000Z</time>
      </trkpt>
      <trkpt lat="43.44913" lon="1.82842">
        <ele>223.6</ele>
        <time>2015-05-06T13:17:2.000Z</time>
      </trkpt>
      <trkpt lat="43.44922" lon="1.82843">
        <ele>224</ele>
        <time>2015-05-06T13:17:12.000Z</time>
      </trkpt>
      <trkpt lat="43.44932" lon="1.82842">
        <ele>224.2</ele>
        <time>2015-05-06T13:17:20.000Z</time>
      </trkpt>
      <trkpt lat="43.44942" lon="1.82842">
        <ele>224.9</ele>
        <time>2015-05-06T13:17:30.000Z</time>
      </trkpt>
      <trkpt lat="43.44952" lon="1.82842">
        <ele>225.6</ele>
        <time>2015-05-06T13:17:40.000Z</time>
      </trkpt>
      <trkpt lat="43.44961" lon="1.82841">
        <ele>226.2</ele>
        <time>2015-05-06T13:17:49.000Z</time>
      </trkpt>
      <trkpt lat="43.4497" lon="1.8284">
        <ele>226.7</ele>
        <time>2015-05-06T13:17:58.000Z</time>
      </trkpt>
      <trkpt lat="43.4498" lon="1.8284">
        <ele>227.5</ele>
        <time>2015-05-06T13:18:8.000Z</time>
      </trkpt>
      <trkpt lat="43.4499" lon="1.82839">
        <ele>228.2</ele>
        <time>2015-05-06T13:18:17.000Z</time>
      </trkpt>
      <trkpt lat="43.44999" lon="1.8284">
        <ele>228.9</ele>
        <time>2015-05-06T13:18:25.000Z</time>
      </trkpt>
      <trkpt lat="43.45009" lon="1.82841">
        <ele>229.8</ele>
        <time>2015-05-06T13:18:34.000Z</time>
      </trkpt>
      <trkpt lat="43.45018" lon="1.8284">
        <ele>230.5</ele>
        <time>2015-05-06T13:18:43.000Z</time>
      </trkpt>
      <trkpt lat="43.45028" lon="1.82838">
        <ele>231.2</ele>
        <time>2015-05-06T13:18:52.000Z</time>
      </trkpt>
      <trkpt lat="43.45037" lon="1.82835">
        <ele>231.9</ele>
        <time>2015-05-06T13:19:1.000Z</time>
      </trkpt>
      <trkpt lat="43.45047" lon="1.82836">
        <ele>232.8</ele>
        <time>2015-05-06T13:19:10.000Z</time>
      </trkpt>
      <trkpt lat="43.45057" lon="1.82835">
        <ele>233.6</ele>
        <time>2015-05-06T13:19:19.000Z</time>
      </trkpt>
      <trkpt lat="43.45066" lon="1.82832">
        <ele>234.4</ele>
        <time>2015-05-06T13:19:28.000Z</time>
      </trkpt>
      <trkpt lat="43.45075" lon="1.8283">
        <ele>235.2</ele>
        <time>2015-05-06T13:19:37.000Z</time>
      </trkpt>
      <trkpt lat="43.45084" lon="1.82827">
        <ele>236.2</ele>
        <time>2015-05-06T13:19:46.000Z</time>
      </trkpt>
      <trkpt lat="43.45093" lon="1.82826">
        <ele>237.3</ele>
        <time>2015-05-06T13:19:58.000Z</time>
      </trkpt>
      <trkpt lat="43.45103" lon="1.82824">
        <ele>238.5</ele>
        <time>2015-05-06T13:20:17.000Z</time>
      </trkpt>
      <trkpt lat="43.45113" lon="1.8282">
        <ele>239.4</ele>
        <time>2015-05-06T13:20:26.000Z</time>
      </trkpt>
      <trkpt lat="43.45122" lon="1.82817">
        <ele>240.1</ele>
        <time>2015-05-06T13:20:37.000Z</time>
      </trkpt>
      <trkpt lat="43.45132" lon="1.82814">
        <ele>241</ele>
        <time>2015-05-06T13:20:48.000Z</time>
      </trkpt>
      <trkpt lat="43.4514" lon="1.8282">
        <ele>241.8</ele>
        <time>2015-05-06T13:20:59.000Z</time>
      </trkpt>
      <trkpt lat="43.45149" lon="1.82816">
        <ele>244</ele>
        <time>2015-05-06T13:21:40.000Z</time>
      </trkpt>
      <trkpt lat="43.45155" lon="1.82806">
        <ele>244.1</ele>
        <time>2015-05-06T13:21:48.000Z</time>
      </trkpt>
      <trkpt lat="43.45161" lon="1.82797">
        <ele>244.2</ele>
        <time>2015-05-06T13:21:56.000Z</time>
      </trkpt>
      <trkpt lat="43.45166" lon="1.82785">
        <ele>244.3</ele>
        <time>2015-05-06T13:22:5.000Z</time>
      </trkpt>
      <trkpt lat="43.45172" lon="1.82774">
        <ele>244.3</ele>
        <time>2015-05-06T13:22:13.000Z</time>
      </trkpt>
      <trkpt lat="43.45179" lon="1.82764">
        <ele>244.2</ele>
        <time>2015-05-06T13:22:22.000Z</time>
      </trkpt>
      <trkpt lat="43.45185" lon="1.82755">
        <ele>243.9</ele>
        <time>2015-05-06T13:22:31.000Z</time>
      </trkpt>
      <trkpt lat="43.45193" lon="1.82746">
        <ele>243.8</ele>
        <time>2015-05-06T13:22:40.000Z</time>
      </trkpt>
      <trkpt lat="43.45199" lon="1.82737">
        <ele>243.9</ele>
        <time>2015-05-06T13:22:48.000Z</time>
      </trkpt>
      <trkpt lat="43.45208" lon="1.82729">
        <ele>243.9</ele>
        <time>2015-05-06T13:22:56.000Z</time>
      </trkpt>
      <trkpt lat="43.45215" lon="1.82721">
        <ele>244</ele>
        <time>2015-05-06T13:23:4.000Z</time>
      </trkpt>
      <trkpt lat="43.45223" lon="1.82715">
        <ele>244</ele>
        <time>2015-05-06T13:23:12.000Z</time>
      </trkpt>
      <trkpt lat="43.45231" lon="1.82707">
        <ele>244.1</ele>
        <time>2015-05-06T13:23:20.000Z</time>
      </trkpt>
      <trkpt lat="43.45239" lon="1.827">
        <ele>244.1</ele>
        <time>2015-05-06T13:23:28.000Z</time>
      </trkpt>
      <trkpt lat="43.45246" lon="1.82692">
        <ele>244.2</ele>
        <time>2015-05-06T13:23:36.000Z</time>
      </trkpt>
      <trkpt lat="43.45253" lon="1.82682">
        <ele>244.2</ele>
        <time>2015-05-06T13:23:45.000Z</time>
      </trkpt>
      <trkpt lat="43.4526" lon="1.82673">
        <ele>243.8</ele>
        <time>2015-05-06T13:23:56.000Z</time>
      </trkpt>
      <trkpt lat="43.45266" lon="1.82664">
        <ele>243.1</ele>
        <time>2015-05-06T13:24:6.000Z</time>
      </trkpt>
      <trkpt lat="43.45272" lon="1.82653">
        <ele>242.1</ele>
        <time>2015-05-06T13:24:14.000Z</time>
      </trkpt>
      <trkpt lat="43.45277" lon="1.82642">
        <ele>241</ele>
        <time>2015-05-06T13:24:22.000Z</time>
      </trkpt>
      <trkpt lat="43.45282" lon="1.82631">
        <ele>240</ele>
        <time>2015-05-06T13:24:30.000Z</time>
      </trkpt>
      <trkpt lat="43.45287" lon="1.82618">
        <ele>238.7</ele>
        <time>2015-05-06T13:24:39.000Z</time>
      </trkpt>
      <trkpt lat="43.45291" lon="1.82606">
        <ele>237.7</ele>
        <time>2015-05-06T13:24:48.000Z</time>
      </trkpt>
      <trkpt lat="43.45294" lon="1.82595">
        <ele>236.9</ele>
        <time>2015-05-06T13:24:56.000Z</time>
      </trkpt>
      <trkpt lat="43.45297" lon="1.82581">
        <ele>236.1</ele>
        <time>2015-05-06T13:25:5.000Z</time>
      </trkpt>
      <trkpt lat="43.45295" lon="1.82568">
        <ele>235.3</ele>
        <time>2015-05-06T13:25:14.000Z</time>
      </trkpt>
      <trkpt lat="43.45296" lon="1.82556">
        <ele>234.7</ele>
        <time>2015-05-06T13:25:25.000Z</time>
      </trkpt>
      <trkpt lat="43.45299" lon="1.82544">
        <ele>235</ele>
        <time>2015-05-06T13:25:36.000Z</time>
      </trkpt>
      <trkpt lat="43.45305" lon="1.82534">
        <ele>236.1</ele>
        <time>2015-05-06T13:25:50.000Z</time>
      </trkpt>
      <trkpt lat="43.45313" lon="1.82527">
        <ele>237.4</ele>
        <time>2015-05-06T13:26:2.000Z</time>
      </trkpt>
      <trkpt lat="43.4532" lon="1.82519">
        <ele>238.6</ele>
        <time>2015-05-06T13:26:13.000Z</time>
      </trkpt>
      <trkpt lat="43.45324" lon="1.82507">
        <ele>240.1</ele>
        <time>2015-05-06T13:26:25.000Z</time>
      </trkpt>
      <trkpt lat="43.45326" lon="1.82494">
        <ele>241.6</ele>
        <time>2015-05-06T13:26:36.000Z</time>
      </trkpt>
      <trkpt lat="43.45328" lon="1.82481">
        <ele>242.8</ele>
        <time>2015-05-06T13:26:46.000Z</time>
      </trkpt>
      <trkpt lat="43.45331" lon="1.82469">
        <ele>243.8</ele>
        <time>2015-05-06T13:26:57.000Z</time>
      </trkpt>
      <trkpt lat="43.45335" lon="1.82456">
        <ele>244.5</ele>
        <time>2015-05-06T13:27:7.000Z</time>
      </trkpt>
      <trkpt lat="43.45337" lon="1.82444">
        <ele>245.4</ele>
        <time>2015-05-06T13:27:18.000Z</time>
      </trkpt>
      <trkpt lat="43.4534" lon="1.82432">
        <ele>246.4</ele>
        <time>2015-05-06T13:27:29.000Z</time>
      </trkpt>
      <trkpt lat="43.45344" lon="1.8242">
        <ele>247.4</ele>
        <time>2015-05-06T13:27:40.000Z</time>
      </trkpt>
      <trkpt lat="43.45347" lon="1.82408">
        <ele>248.5</ele>
        <time>2015-05-06T13:27:51.000Z</time>
      </trkpt>
      <trkpt lat="43.45351" lon="1.82396">
        <ele>249.2</ele>
        <time>2015-05-06T13:28:1.000Z</time>
      </trkpt>
      <trkpt lat="43.45354" lon="1.82384">
        <ele>250.3</ele>
        <time>2015-05-06T13:28:11.000Z</time>
      </trkpt>
      <trkpt lat="43.45358" lon="1.82373">
        <ele>251.1</ele>
        <time>2015-05-06T13:28:21.000Z</time>
      </trkpt>
      <trkpt lat="43.45362" lon="1.82361">
        <ele>251.9</ele>
        <time>2015-05-06T13:28:32.000Z</time>
      </trkpt>
      <trkpt lat="43.45366" lon="1.8235">
        <ele>253</ele>
        <time>2015-05-06T13:28:42.000Z</time>
      </trkpt>
      <trkpt lat="43.45371" lon="1.82339">
        <ele>253.9</ele>
        <time>2015-05-06T13:28:51.000Z</time>
      </trkpt>
      <trkpt lat="43.45373" lon="1.82326">
        <ele>254.6</ele>
        <time>2015-05-06T13:29:1.000Z</time>
      </trkpt>
      <trkpt lat="43.45377" lon="1.82314">
        <ele>255.2</ele>
        <time>2015-05-06T13:29:11.000Z</time>
      </trkpt>
      <trkpt lat="43.45379" lon="1.82302">
        <ele>255.8</ele>
        <time>2015-05-06T13:29:21.000Z</time>
      </trkpt>
      <trkpt lat="43.45384" lon="1.82291">
        <ele>256.6</ele>
        <time>2015-05-06T13:29:31.000Z</time>
      </trkpt>
      <trkpt lat="43.45389" lon="1.8228">
        <ele>257.4</ele>
        <time>2015-05-06T13:29:40.000Z</time>
      </trkpt>
      <trkpt lat="43.45394" lon="1.82268">
        <ele>258</ele>
        <time>2015-05-06T13:29:49.000Z</time>
      </trkpt>
      <trkpt lat="43.454" lon="1.82258">
        <ele>258.3</ele>
        <time>2015-05-06T13:29:57.000Z</time>
      </trkpt>
      <trkpt lat="43.45407" lon="1.82249">
        <ele>258.5</ele>
        <time>2015-05-06T13:30:6.000Z</time>
      </trkpt>
      <trkpt lat="43.45414" lon="1.8224">
        <ele>258.9</ele>
        <time>2015-05-06T13:30:15.000Z</time>
      </trkpt>
      <trkpt lat="43.45421" lon="1.82232">
        <ele>259.1</ele>
        <time>2015-05-06T13:30:24.000Z</time>
      </trkpt>
      <trkpt lat="43.45428" lon="1.82223">
        <ele>259.5</ele>
        <time>2015-05-06T13:30:33.000Z</time>
      </trkpt>
      <trkpt lat="43.45435" lon="1.82214">
        <ele>259.5</ele>
        <time>2015-05-06T13:30:42.000Z</time>
      </trkpt>
      <trkpt lat="43.45442" lon="1.82206">
        <ele>259.3</ele>
        <time>2015-05-06T13:30:50.000Z</time>
      </trkpt>
      <trkpt lat="43.4545" lon="1.82198">
        <ele>259.2</ele>
        <time>2015-05-06T13:30:58.000Z</time>
      </trkpt>
      <trkpt lat="43.45457" lon="1.82189">
        <ele>259.1</ele>
        <time>2015-05-06T13:31:6.000Z</time>
      </trkpt>
      <trkpt lat="43.45463" lon="1.82179">
        <ele>259</ele>
        <time>2015-05-06T13:31:14.000Z</time>
      </trkpt>
      <trkpt lat="43.45467" lon="1.82167">
        <ele>258.8</ele>
        <time>2015-05-06T13:31:22.000Z</time>
      </trkpt>
      <trkpt lat="43.45468" lon="1.82154">
        <ele>258.7</ele>
        <time>2015-05-06T13:31:31.000Z</time>
      </trkpt>
      <trkpt lat="43.45471" lon="1.82142">
        <ele>258.6</ele>
        <time>2015-05-06T13:31:39.000Z</time>
      </trkpt>
      <trkpt lat="43.45476" lon="1.82131">
        <ele>258.7</ele>
        <time>2015-05-06T13:31:47.000Z</time>
      </trkpt>
      <trkpt lat="43.45482" lon="1.8212">
        <ele>258.8</ele>
        <time>2015-05-06T13:31:55.000Z</time>
      </trkpt>
      <trkpt lat="43.45487" lon="1.8211">
        <ele>258.9</ele>
        <time>2015-05-06T13:32:2.000Z</time>
      </trkpt>
      <trkpt lat="43.45495" lon="1.82102">
        <ele>258.9</ele>
        <time>2015-05-06T13:32:10.000Z</time>
      </trkpt>
      <trkpt lat="43.45502" lon="1.82094">
        <ele>259</ele>
        <time>2015-05-06T13:32:18.000Z</time>
      </trkpt>
      <trkpt lat="43.45508" lon="1.82085">
        <ele>259</ele>
        <time>2015-05-06T13:32:26.000Z</time>
      </trkpt>
      <trkpt lat="43.45515" lon="1.82074">
        <ele>259.1</ele>
        <time>2015-05-06T13:32:35.000Z</time>
      </trkpt>
      <trkpt lat="43.45518" lon="1.82062">
        <ele>259.1</ele>
        <time>2015-05-06T13:32:44.000Z</time>
      </trkpt>
      <trkpt lat="43.45519" lon="1.8205">
        <ele>259</ele>
        <time>2015-05-06T13:32:53.000Z</time>
      </trkpt>
      <trkpt lat="43.45519" lon="1.82037">
        <ele>259</ele>
        <time>2015-05-06T13:33:2.000Z</time>
      </trkpt>
      <trkpt lat="43.45519" lon="1.82023">
        <ele>258.8</ele>
        <time>2015-05-06T13:33:11.000Z</time>
      </trkpt>
      <trkpt lat="43.45521" lon="1.8201">
        <ele>258.6</ele>
        <time>2015-05-06T13:33:20.000Z</time>
      </trkpt>
      <trkpt lat="43.45525" lon="1.81998">
        <ele>258.5</ele>
        <time>2015-05-06T13:33:28.000Z</time>
      </trkpt>
      <trkpt lat="43.4553" lon="1.81988">
        <ele>258.3</ele>
        <time>2015-05-06T13:33:36.000Z</time>
      </trkpt>
      <trkpt lat="43.45534" lon="1.81976">
        <ele>257.9</ele>
        <time>2015-05-06T13:33:45.000Z</time>
      </trkpt>
      <trkpt lat="43.45537" lon="1.81964">
        <ele>257.6</ele>
        <time>2015-05-06T13:33:54.000Z</time>
      </trkpt>
      <trkpt lat="43.45543" lon="1.81952">
        <ele>257</ele>
        <time>2015-05-06T13:34:4.000Z</time>
      </trkpt>
      <trkpt lat="43.45547" lon="1.81941">
        <ele>256.9</ele>
        <time>2015-05-06T13:34:12.000Z</time>
      </trkpt>
      <trkpt lat="43.45551" lon="1.81929">
        <ele>256.9</ele>
        <time>2015-05-06T13:34:21.000Z</time>
      </trkpt>
      <trkpt lat="43.45556" lon="1.81918">
        <ele>257</ele>
        <time>2015-05-06T13:34:29.000Z</time>
      </trkpt>
      <trkpt lat="43.45561" lon="1.81907">
        <ele>257.1</ele>
        <time>2015-05-06T13:34:37.000Z</time>
      </trkpt>
      <trkpt lat="43.45565" lon="1.81896">
        <ele>257.1</ele>
        <time>2015-05-06T13:34:45.000Z</time>
      </trkpt>
      <trkpt lat="43.4557" lon="1.81884">
        <ele>257.1</ele>
        <time>2015-05-06T13:34:53.000Z</time>
      </trkpt>
      <trkpt lat="43.45573" lon="1.81873">
        <ele>257.2</ele>
        <time>2015-05-06T13:35:1.000Z</time>
      </trkpt>
      <trkpt lat="43.45576" lon="1.81859">
        <ele>257.4</ele>
        <time>2015-05-06T13:35:10.000Z</time>
      </trkpt>
      <trkpt lat="43.45579" lon="1.81847">
        <ele>257.5</ele>
        <time>2015-05-06T13:35:19.000Z</time>
      </trkpt>
      <trkpt lat="43.45581" lon="1.81834">
        <ele>257.3</ele>
        <time>2015-05-06T13:35:28.000Z</time>
      </trkpt>
      <trkpt lat="43.45585" lon="1.81822">
        <ele>256.9</ele>
        <time>2015-05-06T13:35:37.000Z</time>
      </trkpt>
      <trkpt lat="43.45588" lon="1.8181">
        <ele>256.6</ele>
        <time>2015-05-06T13:35:46.000Z</time>
      </trkpt>
      <trkpt lat="43.4559" lon="1.81796">
        <ele>256.3</ele>
        <time>2015-05-06T13:35:56.000Z</time>
      </trkpt>
      <trkpt lat="43.45591" lon="1.81783">
        <ele>256.1</ele>
        <time>2015-05-06T13:36:10.000Z</time>
      </trkpt>
      <trkpt lat="43.45593" lon="1.8177">
        <ele>256</ele>
        <time>2015-05-06T13:36:20.000Z</time>
      </trkpt>
      <trkpt lat="43.45593" lon="1.81757">
        <ele>255.7</ele>
        <time>2015-05-06T13:36:30.000Z</time>
      </trkpt>
      <trkpt lat="43.45594" lon="1.81743">
        <ele>255.3</ele>
        <time>2015-05-06T13:36:39.000Z</time>
      </trkpt>
      <trkpt lat="43.45594" lon="1.81731">
        <ele>254.9</ele>
        <time>2015-05-06T13:36:47.000Z</time>
      </trkpt>
      <trkpt lat="43.45594" lon="1.81717">
        <ele>254.4</ele>
        <time>2015-05-06T13:36:56.000Z</time>
      </trkpt>
      <trkpt lat="43.45594" lon="1.81703">
        <ele>254</ele>
        <time>2015-05-06T13:37:5.000Z</time>
      </trkpt>
      <trkpt lat="43.45595" lon="1.8169">
        <ele>253.3</ele>
        <time>2015-05-06T13:37:14.000Z</time>
      </trkpt>
      <trkpt lat="43.45596" lon="1.81676">
        <ele>252.3</ele>
        <time>2015-05-06T13:37:23.000Z</time>
      </trkpt>
      <trkpt lat="43.45596" lon="1.81663">
        <ele>251.4</ele>
        <time>2015-05-06T13:37:32.000Z</time>
      </trkpt>
      <trkpt lat="43.45596" lon="1.8165">
        <ele>250.6</ele>
        <time>2015-05-06T13:37:40.000Z</time>
      </trkpt>
      <trkpt lat="43.45596" lon="1.81636">
        <ele>249.6</ele>
        <time>2015-05-06T13:37:49.000Z</time>
      </trkpt>
      <trkpt lat="43.45596" lon="1.81624">
        <ele>248.8</ele>
        <time>2015-05-06T13:37:57.000Z</time>
      </trkpt>
      <trkpt lat="43.45597" lon="1.81611">
        <ele>247.7</ele>
        <time>2015-05-06T13:38:5.000Z</time>
      </trkpt>
      <trkpt lat="43.45597" lon="1.81598">
        <ele>247.1</ele>
        <time>2015-05-06T13:38:13.000Z</time>
      </trkpt>
      <trkpt lat="43.45598" lon="1.81584">
        <ele>246.1</ele>
        <time>2015-05-06T13:38:21.000Z</time>
      </trkpt>
      <trkpt lat="43.45599" lon="1.81571">
        <ele>245.3</ele>
        <time>2015-05-06T13:38:29.000Z</time>
      </trkpt>
      <trkpt lat="43.456" lon="1.81558">
        <ele>244.7</ele>
        <time>2015-05-06T13:38:37.000Z</time>
      </trkpt>
      <trkpt lat="43.45601" lon="1.81544">
        <ele>244.2</ele>
        <time>2015-05-06T13:38:45.000Z</time>
      </trkpt>
      <trkpt lat="43.45601" lon="1.81532">
        <ele>243.6</ele>
        <time>2015-05-06T13:38:53.000Z</time>
      </trkpt>
      <trkpt lat="43.456" lon="1.81518">
        <ele>243.1</ele>
        <time>2015-05-06T13:39:2.000Z</time>
      </trkpt>
      <trkpt lat="43.45599" lon="1.81506">
        <ele>241.8</ele>
        <time>2015-05-06T13:39:32.000Z</time>
      </trkpt>
      <trkpt lat="43.45595" lon="1.81493">
        <ele>241.6</ele>
        <time>2015-05-06T13:39:46.000Z</time>
      </trkpt>
      <trkpt lat="43.45592" lon="1.8148">
        <ele>241.2</ele>
        <time>2015-05-06T13:39:56.000Z</time>
      </trkpt>
      <trkpt lat="43.45589" lon="1.81468">
        <ele>240.8</ele>
        <time>2015-05-06T13:40:6.000Z</time>
      </trkpt>
      <trkpt lat="43.45586" lon="1.81456">
        <ele>240.6</ele>
        <time>2015-05-06T13:40:15.000Z</time>
      </trkpt>
      <trkpt lat="43.45584" lon="1.81443">
        <ele>240.5</ele>
        <time>2015-05-06T13:40:23.000Z</time>
      </trkpt>
      <trkpt lat="43.45583" lon="1.8143">
        <ele>240.4</ele>
        <time>2015-05-06T13:40:31.000Z</time>
      </trkpt>
      <trkpt lat="43.45581" lon="1.81418">
        <ele>240.4</ele>
        <time>2015-05-06T13:40:39.000Z</time>
      </trkpt>
      <trkpt lat="43.4558" lon="1.81405">
        <ele>240.3</ele>
        <time>2015-05-06T13:40:47.000Z</time>
      </trkpt>
      <trkpt lat="43.45579" lon="1.81392">
        <ele>240.3</ele>
        <time>2015-05-06T13:40:55.000Z</time>
      </trkpt>
      <trkpt lat="43.45578" lon="1.81379">
        <ele>240.2</ele>
        <time>2015-05-06T13:41:3.000Z</time>
      </trkpt>
      <trkpt lat="43.45576" lon="1.81367">
        <ele>240</ele>
        <time>2015-05-06T13:41:11.000Z</time>
      </trkpt>
      <trkpt lat="43.45575" lon="1.81353">
        <ele>239.6</ele>
        <time>2015-05-06T13:41:20.000Z</time>
      </trkpt>
      <trkpt lat="43.45573" lon="1.8134">
        <ele>239.2</ele>
        <time>2015-05-06T13:41:29.000Z</time>
      </trkpt>
      <trkpt lat="43.45571" lon="1.81328">
        <ele>238.8</ele>
        <time>2015-05-06T13:41:38.000Z</time>
      </trkpt>
      <trkpt lat="43.45569" lon="1.81315">
        <ele>238.4</ele>
        <time>2015-05-06T13:41:47.000Z</time>
      </trkpt>
      <trkpt lat="43.45564" lon="1.81303">
        <ele>238.1</ele>
        <time>2015-05-06T13:41:56.000Z</time>
      </trkpt>
      <trkpt lat="43.45557" lon="1.81294">
        <ele>237.8</ele>
        <time>2015-05-06T13:42:4.000Z</time>
      </trkpt>
      <trkpt lat="43.45549" lon="1.81286">
        <ele>237.5</ele>
        <time>2015-05-06T13:42:12.000Z</time>
      </trkpt>
      <trkpt lat="43.45541" lon="1.81278">
        <ele>237</ele>
        <time>2015-05-06T13:42:20.000Z</time>
      </trkpt>
      <trkpt lat="43.45534" lon="1.8127">
        <ele>236.7</ele>
        <time>2015-05-06T13:42:28.000Z</time>
      </trkpt>
      <trkpt lat="43.45527" lon="1.81261">
        <ele>236.5</ele>
        <time>2015-05-06T13:42:36.000Z</time>
      </trkpt>
      <trkpt lat="43.45523" lon="1.81249">
        <ele>236.2</ele>
        <time>2015-05-06T13:42:46.000Z</time>
      </trkpt>
      <trkpt lat="43.45523" lon="1.81236">
        <ele>236</ele>
        <time>2015-05-06T13:42:54.000Z</time>
      </trkpt>
      <trkpt lat="43.45525" lon="1.81223">
        <ele>235.9</ele>
        <time>2015-05-06T13:43:3.000Z</time>
      </trkpt>
      <trkpt lat="43.45529" lon="1.81211">
        <ele>235.8</ele>
        <time>2015-05-06T13:43:11.000Z</time>
      </trkpt>
      <trkpt lat="43.4553" lon="1.81198">
        <ele>235.6</ele>
        <time>2015-05-06T13:43:20.000Z</time>
      </trkpt>
      <trkpt lat="43.45532" lon="1.81184">
        <ele>235.5</ele>
        <time>2015-05-06T13:43:29.000Z</time>
      </trkpt>
      <trkpt lat="43.45534" lon="1.81172">
        <ele>235.3</ele>
        <time>2015-05-06T13:43:37.000Z</time>
      </trkpt>
      <trkpt lat="43.45537" lon="1.81159">
        <ele>235.2</ele>
        <time>2015-05-06T13:43:46.000Z</time>
      </trkpt>
      <trkpt lat="43.45539" lon="1.81146">
        <ele>235</ele>
        <time>2015-05-06T13:43:54.000Z</time>
      </trkpt>
      <trkpt lat="43.45541" lon="1.81132">
        <ele>234.9</ele>
        <time>2015-05-06T13:44:3.000Z</time>
      </trkpt>
      <trkpt lat="43.45544" lon="1.8112">
        <ele>234.5</ele>
        <time>2015-05-06T13:44:13.000Z</time>
      </trkpt>
      <trkpt lat="43.45547" lon="1.81107">
        <ele>234.4</ele>
        <time>2015-05-06T13:44:23.000Z</time>
      </trkpt>
      <trkpt lat="43.4555" lon="1.81095">
        <ele>234.6</ele>
        <time>2015-05-06T13:44:33.000Z</time>
      </trkpt>
      <trkpt lat="43.45553" lon="1.81083">
        <ele>235.3</ele>
        <time>2015-05-06T13:44:43.000Z</time>
      </trkpt>
      <trkpt lat="43.45555" lon="1.8107">
        <ele>237.3</ele>
        <time>2015-05-06T13:44:56.000Z</time>
      </trkpt>
      <trkpt lat="43.45557" lon="1.81058">
        <ele>238.4</ele>
        <time>2015-05-06T13:45:7.000Z</time>
      </trkpt>
      <trkpt lat="43.45559" lon="1.81045">
        <ele>239.8</ele>
        <time>2015-05-06T13:45:18.000Z</time>
      </trkpt>
      <trkpt lat="43.4556" lon="1.81032">
        <ele>241.5</ele>
        <time>2015-05-06T13:45:28.000Z</time>
      </trkpt>
      <trkpt lat="43.45559" lon="1.81019">
        <ele>242.5</ele>
        <time>2015-05-06T13:45:37.000Z</time>
      </trkpt>
      <trkpt lat="43.45557" lon="1.81007">
        <ele>243.3</ele>
        <time>2015-05-06T13:45:46.000Z</time>
      </trkpt>
      <trkpt lat="43.45556" lon="1.80993">
        <ele>243.7</ele>
        <time>2015-05-06T13:45:55.000Z</time>
      </trkpt>
      <trkpt lat="43.45555" lon="1.8098">
        <ele>244</ele>
        <time>2015-05-06T13:46:4.000Z</time>
      </trkpt>
      <trkpt lat="43.45553" lon="1.80968">
        <ele>244.3</ele>
        <time>2015-05-06T13:46:12.000Z</time>
      </trkpt>
      <trkpt lat="43.45552" lon="1.80955">
        <ele>244.6</ele>
        <time>2015-05-06T13:46:21.000Z</time>
      </trkpt>
      <trkpt lat="43.4555" lon="1.80942">
        <ele>244.6</ele>
        <time>2015-05-06T13:46:31.000Z</time>
      </trkpt>
      <trkpt lat="43.45549" lon="1.80929">
        <ele>244.7</ele>
        <time>2015-05-06T13:46:41.000Z</time>
      </trkpt>
      <trkpt lat="43.45547" lon="1.80915">
        <ele>244.7</ele>
        <time>2015-05-06T13:46:51.000Z</time>
      </trkpt>
      <trkpt lat="43.45546" lon="1.80903">
        <ele>244.8</ele>
        <time>2015-05-06T13:46:59.000Z</time>
      </trkpt>
      <trkpt lat="43.45544" lon="1.8089">
        <ele>244.8</ele>
        <time>2015-05-06T13:47:8.000Z</time>
      </trkpt>
      <trkpt lat="43.45542" lon="1.80877">
        <ele>245.1</ele>
        <time>2015-05-06T13:47:17.000Z</time>
      </trkpt>
      <trkpt lat="43.4554" lon="1.80864">
        <ele>245</ele>
        <time>2015-05-06T13:47:26.000Z</time>
      </trkpt>
      <trkpt lat="43.45538" lon="1.80852">
        <ele>244.9</ele>
        <time>2015-05-06T13:47:34.000Z</time>
      </trkpt>
      <trkpt lat="43.45534" lon="1.8084">
        <ele>244.8</ele>
        <time>2015-05-06T13:47:42.000Z</time>
      </trkpt>
      <trkpt lat="43.4553" lon="1.80828">
        <ele>244.6</ele>
        <time>2015-05-06T13:47:51.000Z</time>
      </trkpt>
      <trkpt lat="43.45525" lon="1.80816">
        <ele>244.5</ele>
        <time>2015-05-06T13:48:0.000Z</time>
      </trkpt>
      <trkpt lat="43.4552" lon="1.80806">
        <ele>244.5</ele>
        <time>2015-05-06T13:48:8.000Z</time>
      </trkpt>
      <trkpt lat="43.45515" lon="1.80795">
        <ele>244.4</ele>
        <time>2015-05-06T13:48:16.000Z</time>
      </trkpt>
      <trkpt lat="43.4551" lon="1.80784">
        <ele>244.4</ele>
        <time>2015-05-06T13:48:24.000Z</time>
      </trkpt>
      <trkpt lat="43.45504" lon="1.80772">
        <ele>244.4</ele>
        <time>2015-05-06T13:48:32.000Z</time>
      </trkpt>
      <trkpt lat="43.45499" lon="1.80762">
        <ele>244.3</ele>
        <time>2015-05-06T13:48:40.000Z</time>
      </trkpt>
      <trkpt lat="43.45493" lon="1.80752">
        <ele>244.2</ele>
        <time>2015-05-06T13:48:48.000Z</time>
      </trkpt>
      <trkpt lat="43.45487" lon="1.80742">
        <ele>244.2</ele>
        <time>2015-05-06T13:48:56.000Z</time>
      </trkpt>
      <trkpt lat="43.45479" lon="1.80733">
        <ele>244.2</ele>
        <time>2015-05-06T13:49:5.000Z</time>
      </trkpt>
      <trkpt lat="43.45473" lon="1.80722">
        <ele>244.1</ele>
        <time>2015-05-06T13:49:13.000Z</time>
      </trkpt>
      <trkpt lat="43.45466" lon="1.80713">
        <ele>244.1</ele>
        <time>2015-05-06T13:49:21.000Z</time>
      </trkpt>
      <trkpt lat="43.45459" lon="1.80703">
        <ele>244</ele>
        <time>2015-05-06T13:49:29.000Z</time>
      </trkpt>
      <trkpt lat="43.45453" lon="1.80693">
        <ele>244.1</ele>
        <time>2015-05-06T13:49:37.000Z</time>
      </trkpt>
      <trkpt lat="43.45446" lon="1.80684">
        <ele>244.1</ele>
        <time>2015-05-06T13:49:45.000Z</time>
      </trkpt>
      <trkpt lat="43.45439" lon="1.80674">
        <ele>244.2</ele>
        <time>2015-05-06T13:49:54.000Z</time>
      </trkpt>
      <trkpt lat="43.45433" lon="1.80664">
        <ele>244.3</ele>
        <time>2015-05-06T13:50:3.000Z</time>
      </trkpt>
      <trkpt lat="43.45426" lon="1.80655">
        <ele>244.3</ele>
        <time>2015-05-06T13:50:12.000Z</time>
      </trkpt>
      <trkpt lat="43.4542" lon="1.80647">
        <ele>244.3</ele>
        <time>2015-05-06T13:50:20.000Z</time>
      </trkpt>
      <trkpt lat="43.45414" lon="1.80636">
        <ele>244.3</ele>
        <time>2015-05-06T13:50:29.000Z</time>
      </trkpt>
      <trkpt lat="43.45409" lon="1.80625">
        <ele>244.3</ele>
        <time>2015-05-06T13:50:37.000Z</time>
      </trkpt>
      <trkpt lat="43.45404" lon="1.80614">
        <ele>244.3</ele>
        <time>2015-05-06T13:50:46.000Z</time>
      </trkpt>
      <trkpt lat="43.45398" lon="1.80603">
        <ele>244.3</ele>
        <time>2015-05-06T13:50:54.000Z</time>
      </trkpt>
      <trkpt lat="43.45392" lon="1.80592">
        <ele>244.1</ele>
        <time>2015-05-06T13:51:2.000Z</time>
      </trkpt>
      <trkpt lat="43.45387" lon="1.80581">
        <ele>243.8</ele>
        <time>2015-05-06T13:51:10.000Z</time>
      </trkpt>
      <trkpt lat="43.45381" lon="1.80571">
        <ele>243.3</ele>
        <time>2015-05-06T13:51:17.000Z</time>
      </trkpt>
      <trkpt lat="43.45375" lon="1.80559">
        <ele>242.4</ele>
        <time>2015-05-06T13:51:25.000Z</time>
      </trkpt>
      <trkpt lat="43.45369" lon="1.80549">
        <ele>241.7</ele>
        <time>2015-05-06T13:51:33.000Z</time>
      </trkpt>
      <trkpt lat="43.45362" lon="1.80539">
        <ele>241.1</ele>
        <time>2015-05-06T13:51:41.000Z</time>
      </trkpt>
      <trkpt lat="43.45357" lon="1.80529">
        <ele>240.6</ele>
        <time>2015-05-06T13:51:49.000Z</time>
      </trkpt>
      <trkpt lat="43.4535" lon="1.80518">
        <ele>240.4</ele>
        <time>2015-05-06T13:51:58.000Z</time>
      </trkpt>
      <trkpt lat="43.45344" lon="1.80508">
        <ele>240.2</ele>
        <time>2015-05-06T13:52:7.000Z</time>
      </trkpt>
      <trkpt lat="43.45338" lon="1.80498">
        <ele>240.1</ele>
        <time>2015-05-06T13:52:15.000Z</time>
      </trkpt>
      <trkpt lat="43.45333" lon="1.80488">
        <ele>240.5</ele>
        <time>2015-05-06T13:52:24.000Z</time>
      </trkpt>
      <trkpt lat="43.45326" lon="1.80479">
        <ele>241</ele>
        <time>2015-05-06T13:52:32.000Z</time>
      </trkpt>
      <trkpt lat="43.45319" lon="1.80469">
        <ele>241.4</ele>
        <time>2015-05-06T13:52:40.000Z</time>
      </trkpt>
      <trkpt lat="43.45313" lon="1.8046">
        <ele>241.6</ele>
        <time>2015-05-06T13:52:48.000Z</time>
      </trkpt>
      <trkpt lat="43.45306" lon="1.80451">
        <ele>241.8</ele>
        <time>2015-05-06T13:52:56.000Z</time>
      </trkpt>
      <trkpt lat="43.453" lon="1.80441">
        <ele>241.6</ele>
        <time>2015-05-06T13:53:5.000Z</time>
      </trkpt>
      <trkpt lat="43.45292" lon="1.80432">
        <ele>241.4</ele>
        <time>2015-05-06T13:53:13.000Z</time>
      </trkpt>
      <trkpt lat="43.45286" lon="1.80423">
        <ele>240.9</ele>
        <time>2015-05-06T13:53:21.000Z</time>
      </trkpt>
      <trkpt lat="43.45279" lon="1.80413">
        <ele>240.4</ele>
        <time>2015-05-06T13:53:29.000Z</time>
      </trkpt>
      <trkpt lat="43.45273" lon="1.80404">
        <ele>239.9</ele>
        <time>2015-05-06T13:53:37.000Z</time>
      </trkpt>
      <trkpt lat="43.45273" lon="1.8039">
        <ele>239.3</ele>
        <time>2015-05-06T13:53:47.000Z</time>
      </trkpt>
      <trkpt lat="43.45278" lon="1.80379">
        <ele>239</ele>
        <time>2015-05-06T13:53:55.000Z</time>
      </trkpt>
      <trkpt lat="43.45283" lon="1.80367">
        <ele>239.1</ele>
        <time>2015-05-06T13:54:3.000Z</time>
      </trkpt>
      <trkpt lat="43.45287" lon="1.80355">
        <ele>239.3</ele>
        <time>2015-05-06T13:54:11.000Z</time>
      </trkpt>
      <trkpt lat="43.45291" lon="1.80343">
        <ele>239.4</ele>
        <time>2015-05-06T13:54:19.000Z</time>
      </trkpt>
      <trkpt lat="43.45295" lon="1.80331">
        <ele>239.5</ele>
        <time>2015-05-06T13:54:27.000Z</time>
      </trkpt>
      <trkpt lat="43.45299" lon="1.80319">
        <ele>239.6</ele>
        <time>2015-05-06T13:54:35.000Z</time>
      </trkpt>
      <trkpt lat="43.45308" lon="1.80316">
        <ele>239.7</ele>
        <time>2015-05-06T13:54:48.000Z</time>
      </trkpt>
      <trkpt lat="43.45318" lon="1.80321">
        <ele>240</ele>
        <time>2015-05-06T13:54:57.000Z</time>
      </trkpt>
      <trkpt lat="43.45327" lon="1.80322">
        <ele>240.3</ele>
        <time>2015-05-06T13:55:5.000Z</time>
      </trkpt>
      <trkpt lat="43.45336" lon="1.80319">
        <ele>240.5</ele>
        <time>2015-05-06T13:55:14.000Z</time>
      </trkpt>
      <trkpt lat="43.45345" lon="1.80315">
        <ele>240.6</ele>
        <time>2015-05-06T13:55:22.000Z</time>
      </trkpt>
      <trkpt lat="43.45354" lon="1.8031">
        <ele>241</ele>
        <time>2015-05-06T13:55:30.000Z</time>
      </trkpt>
      <trkpt lat="43.45363" lon="1.80306">
        <ele>241.3</ele>
        <time>2015-05-06T13:55:38.000Z</time>
      </trkpt>
      <trkpt lat="43.45372" lon="1.80302">
        <ele>241.6</ele>
        <time>2015-05-06T13:55:46.000Z</time>
      </trkpt>
      <trkpt lat="43.45381" lon="1.80297">
        <ele>241.7</ele>
        <time>2015-05-06T13:55:54.000Z</time>
      </trkpt>
      <trkpt lat="43.45389" lon="1.80292">
        <ele>241.8</ele>
        <time>2015-05-06T13:56:2.000Z</time>
      </trkpt>
      <trkpt lat="43.45398" lon="1.80288">
        <ele>242.1</ele>
        <time>2015-05-06T13:56:10.000Z</time>
      </trkpt>
      <trkpt lat="43.45406" lon="1.80284">
        <ele>242.3</ele>
        <time>2015-05-06T13:56:18.000Z</time>
      </trkpt>
      <trkpt lat="43.45415" lon="1.8028">
        <ele>242.4</ele>
        <time>2015-05-06T13:56:26.000Z</time>
      </trkpt>
      <trkpt lat="43.45424" lon="1.80276">
        <ele>242.5</ele>
        <time>2015-05-06T13:56:34.000Z</time>
      </trkpt>
      <trkpt lat="43.45432" lon="1.80272">
        <ele>242.6</ele>
        <time>2015-05-06T13:56:42.000Z</time>
      </trkpt>
      <trkpt lat="43.45442" lon="1.80267">
        <ele>242.6</ele>
        <time>2015-05-06T13:56:51.000Z</time>
      </trkpt>
      <trkpt lat="43.45451" lon="1.80263">
        <ele>242.6</ele>
        <time>2015-05-06T13:56:59.000Z</time>
      </trkpt>
      <trkpt lat="43.4546" lon="1.8026">
        <ele>242.6</ele>
        <time>2015-05-06T13:57:7.000Z</time>
      </trkpt>
      <trkpt lat="43.45469" lon="1.80255">
        <ele>242.6</ele>
        <time>2015-05-06T13:57:16.000Z</time>
      </trkpt>
      <trkpt lat="43.45478" lon="1.80252">
        <ele>242.7</ele>
        <time>2015-05-06T13:57:25.000Z</time>
      </trkpt>
      <trkpt lat="43.45484" lon="1.80243">
        <ele>242.7</ele>
        <time>2015-05-06T13:57:34.000Z</time>
      </trkpt>
      <trkpt lat="43.45491" lon="1.80234">
        <ele>242.6</ele>
        <time>2015-05-06T13:57:42.000Z</time>
      </trkpt>
      <trkpt lat="43.45498" lon="1.80226">
        <ele>242.5</ele>
        <time>2015-05-06T13:57:50.000Z</time>
      </trkpt>
      <trkpt lat="43.45505" lon="1.80217">
        <ele>242</ele>
        <time>2015-05-06T13:57:58.000Z</time>
      </trkpt>
      <trkpt lat="43.45512" lon="1.80208">
        <ele>241.6</ele>
        <time>2015-05-06T13:58:10.000Z</time>
      </trkpt>
      <trkpt lat="43.45519" lon="1.80198">
        <ele>240.9</ele>
        <time>2015-05-06T13:58:21.000Z</time>
      </trkpt>
      <trkpt lat="43.45526" lon="1.80188">
        <ele>240.8</ele>
        <time>2015-05-06T13:58:30.000Z</time>
      </trkpt>
      <trkpt lat="43.45532" lon="1.80178">
        <ele>240.5</ele>
        <time>2015-05-06T13:58:38.000Z</time>
      </trkpt>
      <trkpt lat="43.45538" lon="1.80169">
        <ele>240.1</ele>
        <time>2015-05-06T13:58:46.000Z</time>
      </trkpt>
      <trkpt lat="43.45545" lon="1.80159">
        <ele>239.6</ele>
        <time>2015-05-06T13:58:54.000Z</time>
      </trkpt>
      <trkpt lat="43.45551" lon="1.8015">
        <ele>239.2</ele>
        <time>2015-05-06T13:59:2.000Z</time>
      </trkpt>
      <trkpt lat="43.45557" lon="1.80139">
        <ele>238.8</ele>
        <time>2015-05-06T13:59:11.000Z</time>
      </trkpt>
      <trkpt lat="43.45563" lon="1.8013">
        <ele>238.6</ele>
        <time>2015-05-06T13:59:19.000Z</time>
      </trkpt>
      <trkpt lat="43.4557" lon="1.8012">
        <ele>238.8</ele>
        <time>2015-05-06T13:59:27.000Z</time>
      </trkpt>
      <trkpt lat="43.45576" lon="1.8011">
        <ele>237.9</ele>
        <time>2015-05-06T13:59:34.000Z</time>
      </trkpt>
      <trkpt lat="43.45582" lon="1.80099">
        <ele>236.9</ele>
        <time>2015-05-06T13:59:43.000Z</time>
      </trkpt>
      <trkpt lat="43.45588" lon="1.80089">
        <ele>235.9</ele>
        <time>2015-05-06T13:59:51.000Z</time>
      </trkpt>
      <trkpt lat="43.45594" lon="1.80079">
        <ele>234.7</ele>
        <time>2015-05-06T14:00:0.000Z</time>
      </trkpt>
      <trkpt lat="43.45601" lon="1.80069">
        <ele>234</ele>
        <time>2015-05-06T14:00:9.000Z</time>
      </trkpt>
      <trkpt lat="43.45607" lon="1.8006">
        <ele>233.8</ele>
        <time>2015-05-06T14:00:17.000Z</time>
      </trkpt>
      <trkpt lat="43.45613" lon="1.8005">
        <ele>233.4</ele>
        <time>2015-05-06T14:00:25.000Z</time>
      </trkpt>
      <trkpt lat="43.45619" lon="1.8004">
        <ele>232.8</ele>
        <time>2015-05-06T14:00:33.000Z</time>
      </trkpt>
      <trkpt lat="43.45626" lon="1.8003">
        <ele>232.6</ele>
        <time>2015-05-06T14:00:41.000Z</time>
      </trkpt>
      <trkpt lat="43.45633" lon="1.8002">
        <ele>232.6</ele>
        <time>2015-05-06T14:00:49.000Z</time>
      </trkpt>
      <trkpt lat="43.45641" lon="1.80012">
        <ele>232.1</ele>
        <time>2015-05-06T14:00:57.000Z</time>
      </trkpt>
      <trkpt lat="43.45649" lon="1.80005">
        <ele>231.7</ele>
        <time>2015-05-06T14:01:5.000Z</time>
      </trkpt>
      <trkpt lat="43.45654" lon="1.79994">
        <ele>231.3</ele>
        <time>2015-05-06T14:01:15.000Z</time>
      </trkpt>
      <trkpt lat="43.45663" lon="1.79988">
        <ele>230.8</ele>
        <time>2015-05-06T14:01:25.000Z</time>
      </trkpt>
      <trkpt lat="43.45672" lon="1.79981">
        <ele>230.1</ele>
        <time>2015-05-06T14:01:33.000Z</time>
      </trkpt>
      <trkpt lat="43.4568" lon="1.79974">
        <ele>229.5</ele>
        <time>2015-05-06T14:01:40.000Z</time>
      </trkpt>
      <trkpt lat="43.45689" lon="1.7997">
        <ele>228.9</ele>
        <time>2015-05-06T14:01:47.000Z</time>
      </trkpt>
      <trkpt lat="43.45697" lon="1.79964">
        <ele>227.8</ele>
        <time>2015-05-06T14:01:54.000Z</time>
      </trkpt>
      <trkpt lat="43.45705" lon="1.79958">
        <ele>227.3</ele>
        <time>2015-05-06T14:02:2.000Z</time>
      </trkpt>
      <trkpt lat="43.45715" lon="1.79955">
        <ele>226.7</ele>
        <time>2015-05-06T14:02:10.000Z</time>
      </trkpt>
      <trkpt lat="43.45725" lon="1.79951">
        <ele>226.4</ele>
        <time>2015-05-06T14:02:18.000Z</time>
      </trkpt>
      <trkpt lat="43.45734" lon="1.79947">
        <ele>225.9</ele>
        <time>2015-05-06T14:02:29.000Z</time>
      </trkpt>
      <trkpt lat="43.45744" lon="1.79943">
        <ele>225.7</ele>
        <time>2015-05-06T14:02:38.000Z</time>
      </trkpt>
      <trkpt lat="43.45752" lon="1.79939">
        <ele>225.5</ele>
        <time>2015-05-06T14:02:45.000Z</time>
      </trkpt>
      <trkpt lat="43.4576" lon="1.79931">
        <ele>225.1</ele>
        <time>2015-05-06T14:02:54.000Z</time>
      </trkpt>
      <trkpt lat="43.45767" lon="1.79922">
        <ele>224.5</ele>
        <time>2015-05-06T14:03:2.000Z</time>
      </trkpt>
      <trkpt lat="43.45774" lon="1.79914">
        <ele>224</ele>
        <time>2015-05-06T14:03:11.000Z</time>
      </trkpt>
      <trkpt lat="43.4578" lon="1.79905">
        <ele>224.6</ele>
        <time>2015-05-06T14:03:18.000Z</time>
      </trkpt>
      <trkpt lat="43.45782" lon="1.79891">
        <ele>222.4</ele>
        <time>2015-05-06T14:03:27.000Z</time>
      </trkpt>
      <trkpt lat="43.45781" lon="1.79878">
        <ele>224.7</ele>
        <time>2015-05-06T14:03:34.000Z</time>
      </trkpt>
      <trkpt lat="43.45784" lon="1.79864">
        <ele>223.2</ele>
        <time>2015-05-06T14:03:41.000Z</time>
      </trkpt>
      <trkpt lat="43.45791" lon="1.79857">
        <ele>222.9</ele>
        <time>2015-05-06T14:03:50.000Z</time>
      </trkpt>
      <trkpt lat="43.45797" lon="1.79847">
        <ele>223.6</ele>
        <time>2015-05-06T14:03:57.000Z</time>
      </trkpt>
      <trkpt lat="43.45795" lon="1.79834">
        <ele>226</ele>
        <time>2015-05-06T14:04:5.000Z</time>
      </trkpt>
      <trkpt lat="43.45799" lon="1.79823">
        <ele>226.4</ele>
        <time>2015-05-06T14:04:13.000Z</time>
      </trkpt>
      <trkpt lat="43.45805" lon="1.79812">
        <ele>226</ele>
        <time>2015-05-06T14:04:25.000Z</time>
      </trkpt>
      <trkpt lat="43.45807" lon="1.79799">
        <ele>225.3</ele>
        <time>2015-05-06T14:04:34.000Z</time>
      </trkpt>
      <trkpt lat="43.4581" lon="1.79787">
        <ele>224.9</ele>
        <time>2015-05-06T14:04:42.000Z</time>
      </trkpt>
      <trkpt lat="43.45811" lon="1.79774">
        <ele>224.6</ele>
        <time>2015-05-06T14:04:49.000Z</time>
      </trkpt>
      <trkpt lat="43.45816" lon="1.79763">
        <ele>224.2</ele>
        <time>2015-05-06T14:04:58.000Z</time>
      </trkpt>
      <trkpt lat="43.45821" lon="1.79751">
        <ele>224</ele>
        <time>2015-05-06T14:05:7.000Z</time>
      </trkpt>
      <trkpt lat="43.45825" lon="1.7974">
        <ele>223.8</ele>
        <time>2015-05-06T14:05:15.000Z</time>
      </trkpt>
      <trkpt lat="43.45828" lon="1.79727">
        <ele>223.6</ele>
        <time>2015-05-06T14:05:22.000Z</time>
      </trkpt>
      <trkpt lat="43.45834" lon="1.79718">
        <ele>223.5</ele>
        <time>2015-05-06T14:05:31.000Z</time>
      </trkpt>
      <trkpt lat="43.45839" lon="1.79706">
        <ele>223.4</ele>
        <time>2015-05-06T14:05:40.000Z</time>
      </trkpt>
      <trkpt lat="43.45844" lon="1.79694">
        <ele>223.3</ele>
        <time>2015-05-06T14:05:48.000Z</time>
      </trkpt>
      <trkpt lat="43.45852" lon="1.79687">
        <ele>223.2</ele>
        <time>2015-05-06T14:05:56.000Z</time>
      </trkpt>
      <trkpt lat="43.45858" lon="1.79677">
        <ele>223</ele>
        <time>2015-05-06T14:06:4.000Z</time>
      </trkpt>
      <trkpt lat="43.45862" lon="1.79666">
        <ele>222.7</ele>
        <time>2015-05-06T14:06:13.000Z</time>
      </trkpt>
      <trkpt lat="43.45866" lon="1.79655">
        <ele>222.6</ele>
        <time>2015-05-06T14:06:21.000Z</time>
      </trkpt>
      <trkpt lat="43.45869" lon="1.79642">
        <ele>222.4</ele>
        <time>2015-05-06T14:06:35.000Z</time>
      </trkpt>
      <trkpt lat="43.45875" lon="1.79633">
        <ele>222.4</ele>
        <time>2015-05-06T14:07:11.000Z</time>
      </trkpt>
      <trkpt lat="43.45882" lon="1.79624">
        <ele>222.4</ele>
        <time>2015-05-06T14:07:19.000Z</time>
      </trkpt>
      <trkpt lat="43.4589" lon="1.79618">
        <ele>222.4</ele>
        <time>2015-05-06T14:07:29.000Z</time>
      </trkpt>
      <trkpt lat="43.45899" lon="1.79613">
        <ele>222.6</ele>
        <time>2015-05-06T14:07:37.000Z</time>
      </trkpt>
      <trkpt lat="43.45908" lon="1.79609">
        <ele>222.8</ele>
        <time>2015-05-06T14:07:43.000Z</time>
      </trkpt>
      <trkpt lat="43.45916" lon="1.79602">
        <ele>223.2</ele>
        <time>2015-05-06T14:07:53.000Z</time>
      </trkpt>
      <trkpt lat="43.45925" lon="1.79597">
        <ele>223.7</ele>
        <time>2015-05-06T14:08:1.000Z</time>
      </trkpt>
      <trkpt lat="43.45933" lon="1.79593">
        <ele>224.3</ele>
        <time>2015-05-06T14:08:15.000Z</time>
      </trkpt>
      <trkpt lat="43.45943" lon="1.79589">
        <ele>224.7</ele>
        <time>2015-05-06T14:08:24.000Z</time>
      </trkpt>
      <trkpt lat="43.45952" lon="1.79587">
        <ele>225.2</ele>
        <time>2015-05-06T14:08:33.000Z</time>
      </trkpt>
      <trkpt lat="43.45961" lon="1.79578">
        <ele>225.4</ele>
        <time>2015-05-06T14:08:41.000Z</time>
      </trkpt>
      <trkpt lat="43.45967" lon="1.79568">
        <ele>225.8</ele>
        <time>2015-05-06T14:08:54.000Z</time>
      </trkpt>
      <trkpt lat="43.45976" lon="1.79563">
        <ele>226.5</ele>
        <time>2015-05-06T14:09:4.000Z</time>
      </trkpt>
      <trkpt lat="43.45982" lon="1.79553">
        <ele>227.1</ele>
        <time>2015-05-06T14:09:16.000Z</time>
      </trkpt>
      <trkpt lat="43.45991" lon="1.79548">
        <ele>227.5</ele>
        <time>2015-05-06T14:09:23.000Z</time>
      </trkpt>
      <trkpt lat="43.45998" lon="1.79541">
        <ele>228.4</ele>
        <time>2015-05-06T14:09:35.000Z</time>
      </trkpt>
      <trkpt lat="43.46008" lon="1.7954">
        <ele>229.3</ele>
        <time>2015-05-06T14:09:45.000Z</time>
      </trkpt>
      <trkpt lat="43.46017" lon="1.79535">
        <ele>230.1</ele>
        <time>2015-05-06T14:09:55.000Z</time>
      </trkpt>
      <trkpt lat="43.46025" lon="1.7953">
        <ele>230.5</ele>
        <time>2015-05-06T14:10:2.000Z</time>
      </trkpt>
      <trkpt lat="43.46035" lon="1.79528">
        <ele>230.8</ele>
        <time>2015-05-06T14:10:10.000Z</time>
      </trkpt>
      <trkpt lat="43.46044" lon="1.79524">
        <ele>231.1</ele>
        <time>2015-05-06T14:10:18.000Z</time>
      </trkpt>
      <trkpt lat="43.46053" lon="1.79519">
        <ele>231.6</ele>
        <time>2015-05-06T14:10:26.000Z</time>
      </trkpt>
      <trkpt lat="43.46061" lon="1.79512">
        <ele>232</ele>
        <time>2015-05-06T14:10:35.000Z</time>
      </trkpt>
      <trkpt lat="43.46069" lon="1.79506">
        <ele>232.4</ele>
        <time>2015-05-06T14:10:44.000Z</time>
      </trkpt>
      <trkpt lat="43.46077" lon="1.79499">
        <ele>232.9</ele>
        <time>2015-05-06T14:10:58.000Z</time>
      </trkpt>
      <trkpt lat="43.46086" lon="1.79497">
        <ele>233.2</ele>
        <time>2015-05-06T14:11:8.000Z</time>
      </trkpt>
      <trkpt lat="43.46096" lon="1.79494">
        <ele>233.5</ele>
        <time>2015-05-06T14:11:16.000Z</time>
      </trkpt>
      <trkpt lat="43.46106" lon="1.79492">
        <ele>233.8</ele>
        <time>2015-05-06T14:11:24.000Z</time>
      </trkpt>
      <trkpt lat="43.46115" lon="1.79489">
        <ele>234</ele>
        <time>2015-05-06T14:11:34.000Z</time>
      </trkpt>
      <trkpt lat="43.46124" lon="1.79486">
        <ele>234.3</ele>
        <time>2015-05-06T14:11:42.000Z</time>
      </trkpt>
      <trkpt lat="43.46133" lon="1.79482">
        <ele>234.5</ele>
        <time>2015-05-06T14:11:52.000Z</time>
      </trkpt>
      <trkpt lat="43.46142" lon="1.79478">
        <ele>234.6</ele>
        <time>2015-05-06T14:12:1.000Z</time>
      </trkpt>
      <trkpt lat="43.4615" lon="1.79472">
        <ele>234.9</ele>
        <time>2015-05-06T14:12:9.000Z</time>
      </trkpt>
      <trkpt lat="43.46158" lon="1.79466">
        <ele>235.3</ele>
        <time>2015-05-06T14:12:19.000Z</time>
      </trkpt>
      <trkpt lat="43.46167" lon="1.79463">
        <ele>235.9</ele>
        <time>2015-05-06T14:12:31.000Z</time>
      </trkpt>
      <trkpt lat="43.46176" lon="1.7946">
        <ele>236.2</ele>
        <time>2015-05-06T14:12:41.000Z</time>
      </trkpt>
      <trkpt lat="43.46185" lon="1.79458">
        <ele>236.9</ele>
        <time>2015-05-06T14:12:52.000Z</time>
      </trkpt>
      <trkpt lat="43.46195" lon="1.79459">
        <ele>237.3</ele>
        <time>2015-05-06T14:13:2.000Z</time>
      </trkpt>
      <trkpt lat="43.46204" lon="1.79459">
        <ele>237.6</ele>
        <time>2015-05-06T14:13:13.000Z</time>
      </trkpt>
      <trkpt lat="43.46213" lon="1.7946">
        <ele>237.7</ele>
        <time>2015-05-06T14:13:22.000Z</time>
      </trkpt>
      <trkpt lat="43.46222" lon="1.7946">
        <ele>237.9</ele>
        <time>2015-05-06T14:13:31.000Z</time>
      </trkpt>
      <trkpt lat="43.46231" lon="1.79464">
        <ele>238</ele>
        <time>2015-05-06T14:13:40.000Z</time>
      </trkpt>
      <trkpt lat="43.4624" lon="1.79469">
        <ele>238.2</ele>
        <time>2015-05-06T14:13:51.000Z</time>
      </trkpt>
      <trkpt lat="43.46248" lon="1.79474">
        <ele>238.2</ele>
        <time>2015-05-06T14:14:1.000Z</time>
      </trkpt>
      <trkpt lat="43.46256" lon="1.7948">
        <ele>238.4</ele>
        <time>2015-05-06T14:14:11.000Z</time>
      </trkpt>
      <trkpt lat="43.46265" lon="1.79486">
        <ele>238.5</ele>
        <time>2015-05-06T14:14:20.000Z</time>
      </trkpt>
      <trkpt lat="43.46273" lon="1.79492">
        <ele>238.7</ele>
        <time>2015-05-06T14:14:29.000Z</time>
      </trkpt>
      <trkpt lat="43.46282" lon="1.79496">
        <ele>239</ele>
        <time>2015-05-06T14:14:38.000Z</time>
      </trkpt>
      <trkpt lat="43.46291" lon="1.795">
        <ele>239.4</ele>
        <time>2015-05-06T14:14:47.000Z</time>
      </trkpt>
      <trkpt lat="43.463" lon="1.79501">
        <ele>239.7</ele>
        <time>2015-05-06T14:14:55.000Z</time>
      </trkpt>
      <trkpt lat="43.4631" lon="1.79502">
        <ele>240</ele>
        <time>2015-05-06T14:15:4.000Z</time>
      </trkpt>
      <trkpt lat="43.4632" lon="1.795">
        <ele>240.2</ele>
        <time>2015-05-06T14:15:13.000Z</time>
      </trkpt>
      <trkpt lat="43.46329" lon="1.79498">
        <ele>240.2</ele>
        <time>2015-05-06T14:15:21.000Z</time>
      </trkpt>
      <trkpt lat="43.46339" lon="1.79494">
        <ele>241.8</ele>
        <time>2015-05-06T14:15:32.000Z</time>
      </trkpt>
      <trkpt lat="43.46345" lon="1.79484">
        <ele>243</ele>
        <time>2015-05-06T14:15:43.000Z</time>
      </trkpt>
      <trkpt lat="43.46348" lon="1.79471">
        <ele>243.6</ele>
        <time>2015-05-06T14:15:54.000Z</time>
      </trkpt>
      <trkpt lat="43.46356" lon="1.79464">
        <ele>243.1</ele>
        <time>2015-05-06T14:16:6.000Z</time>
      </trkpt>
      <trkpt lat="43.46364" lon="1.79457">
        <ele>242.5</ele>
        <time>2015-05-06T14:16:22.000Z</time>
      </trkpt>
      <trkpt lat="43.46365" lon="1.79453">
        <ele>243.6</ele>
        <time>2015-05-06T14:17:36.000Z</time>
      </trkpt>
    </trkseg>
  </trk>
</gpx>